[[{"header":{"parameterUnit":"m.s-1","parameterCategory":1,"la1":30.6,"la2":28.766,"lo1":-90.7593,"lo2":-88.6598,"dy":0.0162,"dx":0.0183,"nx":116,"ny":114,"refTime":"2024-06-30T18:00:00:Z","depth":0,"parameterNumber":2,"parameterNumberName":"U-component_of_WINDS"},"data":[0.0,0.0,0.0,0.0,0.0,0.0,0.0,0.0,0.0,0.0,0.0,0.0,0.0,0.0,0.0,0.0,0.0,0.0,0.0,0.0,0.0,0.0,0.0,0.0,0.0,0.0,0.0,0.0,0.0,0.0,0.0,0.0,0.0,0.0,0.0,0.0,0.0,0.0,0.0,0.0,0.0,0.0,0.0,0.0,0.0,0.0,0.0,0.0,0.0,0.0,0.0,0.0,0.0,0.0,0.0,0.0,0.0,0.0,0.0,0.0,0.0,0.0,0.0,0.0,0.0,0.0,0.0,0.0,0.0,0.0,0.0,0.0,0.0,0.0,0.0,0.0,0.0,0.0,0.0,0.0,0.0,0.0,0.0,0.0,0.0,0.0,0.0,0.0,0.0,0.0,0.0,0.0,0.0,0.0,0.0,0.0,0.0,0.0,0.0,0.0,0.0,0.0,0.0,0.0,0.0,0.0,0.0,0.0,0.0,0.0,0.0,0.0,0.0,0.0,0.0,0.0,0.0,0.0,0.0,0.0,0.0,0.0,0.0,0.0,0.0,0.0,0.0,0.0,0.0,0.0,0.0,0.0,0.0,0.0,0.0,0.0,0.0,0.0,0.0,0.0,0.0,0.0,0.0,0.0,0.0,0.0,0.0,0.0,0.0,0.0,0.0,0.0,0.0,0.0,0.0,0.0,0.0,0.0,0.0,0.0,0.0,0.0,0.0,0.0,0.0,0.0,0.0,0.0,0.0,0.0,0.0,0.0,0.0,0.0,0.0,0.0,0.0,0.0,0.0,0.0,0.0,0.0,0.0,0.0,0.0,0.0,0.0,0.0,0.0,0.0,0.0,0.0,0.0,0.0,0.0,0.0,0.0,0.0,0.0,0.0,0.0,0.0,0.0,0.0,0.0,0.0,0.0,0.0,0.0,0.0,0.0,0.0,0.0,0.0,0.0,0.0,0.0,0.0,0.0,0.0,0.0,0.0,0.0,0.0,0.0,0.0,0.0,0.0,0.0,0.0,0.0,0.0,0.0,0.0,0.0,0.0,0.0,0.0,0.0,0.0,0.0,0.0,0.0,0.0,0.0,0.0,0.0,0.0,0.0,0.0,0.0,0.0,0.0,0.0,0.0,0.0,0.0,0.0,0.0,0.0,0.0,0.0,0.0,0.0,0.0,0.0,0.0,0.0,0.0,0.0,0.0,0.0,0.0,0.0,0.0,0.0,0.0,0.0,0.0,0.0,0.0,0.0,0.0,0.0,0.0,0.0,0.0,0.0,0.0,0.0,0.0,0.0,0.0,0.0,0.0,0.0,0.0,0.0,0.0,0.0,0.0,0.0,0.0,0.0,0.0,0.0,0.0,0.0,0.0,0.0,0.0,0.0,0.0,0.0,0.0,0.0,0.0,0.0,0.0,0.0,0.0,0.0,0.0,0.0,0.0,0.0,0.0,0.0,0.0,0.0,0.0,0.0,0.0,0.0,0.0,0.0,0.0,0.0,0.0,0.0,0.0,0.0,0.0,0.0,0.0,0.0,0.0,0.0,0.0,0.0,0.0,0.0,0.0,0.0,0.0,0.0,0.0,0.0,0.0,0.0,0.0,0.0,0.0,0.0,0.0,0.0,0.0,0.0,0.0,0.0,0.0,0.0,0.0,0.0,0.0,0.0,0.0,0.0,0.0,0.0,0.0,0.0,0.0,0.0,0.0,0.0,0.0,0.0,0.0,0.0,0.0,0.0,0.0,0.0,0.0,0.0,0.0,0.0,0.0,0.0,0.0,0.0,0.0,0.0,0.0,0.0,0.0,0.0,0.0,0.0,0.0,0.0,0.0,0.0,0.0,0.0,0.0,0.0,0.0,0.0,0.0,0.0,0.0,0.0,0.0,0.0,0.0,0.0,0.0,0.0,0.0,0.0,0.0,0.0,0.0,0.0,0.0,0.0,0.0,0.0,0.0,0.0,0.0,0.0,0.0,0.0,0.0,0.0,0.0,0.0,0.0,0.0,0.0,0.0,0.0,0.0,0.0,0.0,0.0,0.0,0.0,0.0,0.0,0.0,0.0,0.0,0.0,0.0,0.0,0.0,0.0,0.0,0.0,0.0,0.0,0.0,0.0,0.0,0.0,0.0,0.0,0.0,0.0,0.0,0.0,0.0,0.0,0.0,0.0,0.0,0.0,0.0,0.0,0.0,0.0,0.0,0.0,0.0,0.0,0.0,0.0,0.0,0.0,0.0,0.0,0.0,0.0,0.0,0.0,0.0,0.0,0.0,0.0,0.0,0.0,0.0,0.0,0.0,0.0,0.0,0.0,0.0,0.0,0.0,0.0,0.0,0.0,0.0,0.0,0.0,0.0,0.0,0.0,0.0,0.0,0.0,0.0,0.0,0.0,0.0,0.0,0.0,0.0,0.0,0.0,0.0,0.0,0.0,0.0,0.0,0.0,0.0,0.0,0.0,0.0,0.0,0.0,0.0,0.0,0.0,0.0,0.0,0.0,0.0,0.0,0.0,0.0,0.0,0.0,0.0,0.0,0.0,0.0,0.0,0.0,0.0,0.0,0.0,0.0,0.0,0.0,0.0,0.0,0.0,0.0,0.0,0.0,0.0,0.0,0.0,0.0,0.0,0.0,0.0,0.0,0.0,0.0,0.0,0.0,0.0,0.0,0.0,0.0,0.0,0.0,0.0,0.0,0.0,0.0,0.0,0.0,0.0,0.0,0.0,0.0,0.0,0.0,0.0,0.0,0.0,0.0,0.0,0.0,0.0,0.0,0.0,0.0,0.0,0.0,0.0,0.0,0.0,0.0,0.0,0.0,0.0,0.0,0.0,0.0,0.0,0.0,0.0,0.0,0.0,0.0,0.0,0.0,0.0,0.0,0.0,0.0,0.0,0.0,0.0,0.0,0.0,0.0,0.0,0.0,0.0,0.0,0.0,0.0,0.0,0.0,0.0,0.0,0.0,0.0,0.0,0.0,0.0,0.0,0.0,0.0,0.0,0.0,0.0,0.0,0.0,0.0,0.0,0.0,0.0,0.0,0.0,0.0,0.0,0.0,0.0,0.0,0.0,0.0,0.0,0.0,0.0,0.0,0.0,0.0,0.0,0.0,0.0,0.0,0.0,0.0,0.0,0.0,0.0,0.0,0.0,0.0,0.0,0.0,0.0,0.0,0.0,0.0,0.0,0.0,0.0,0.0,0.0,0.0,0.0,0.0,0.0,0.0,0.0,0.0,0.0,0.0,0.0,0.0,0.0,0.0,0.0,0.0,0.0,0.0,0.0,0.0,0.0,0.0,0.0,0.0,0.0,0.0,0.0,0.0,0.0,0.0,0.0,0.0,0.0,0.0,0.0,0.0,0.0,0.0,0.0,0.0,0.0,0.0,0.0,0.0,0.0,0.0,0.0,0.0,0.0,0.0,0.0,0.0,0.0,0.0,0.0,0.0,0.0,0.0,0.0,0.0,0.0,0.0,0.0,0.0,0.0,0.0,0.0,0.0,0.0,0.0,0.0,0.0,0.0,0.0,0.0,0.0,0.0,0.0,0.0,0.0,0.0,0.0,0.0,0.0,0.0,0.0,0.0,0.0,0.0,0.0,0.0,0.0,0.0,0.0,0.0,0.0,0.0,0.0,0.0,0.0,0.0,0.0,0.0,0.0,0.0,0.0,0.0,0.0,0.0,0.0,0.0,0.0,0.0,0.0,0.0,0.0,0.0,0.0,0.0,0.0,0.0,0.0,0.0,0.0,0.0,0.0,0.0,0.0,0.0,0.0,0.0,0.0,0.0,0.0,0.0,0.0,0.0,0.0,0.0,0.0,0.0,0.0,0.0,0.0,0.0,0.0,0.0,0.0,0.0,0.0,0.0,0.0,0.0,0.0,0.0,0.0,0.0,0.0,0.0,0.0,0.0,0.0,0.0,0.0,0.0,0.0,0.0,0.0,0.0,0.0,0.0,0.0,0.0,0.0,0.0,0.0,0.0,0.0,0.0,0.0,0.0,0.0,0.0,0.0,0.0,0.0,0.0,0.0,0.0,0.0,0.0,0.0,0.0,0.0,0.0,0.0,0.0,0.0,0.0,0.0,0.0,0.0,0.0,0.0,0.0,0.0,0.0,0.0,0.0,0.0,0.0,0.0,0.0,0.0,0.0,0.0,0.0,0.0,0.0,0.0,0.0,0.0,0.0,0.0,0.0,0.0,0.0,0.0,0.0,0.0,0.0,0.0,0.0,0.0,0.0,0.0,0.0,0.0,0.0,0.0,0.0,0.0,0.0,0.0,0.0,0.0,0.0,0.0,0.0,0.0,0.0,0.0,0.0,0.0,0.0,0.0,0.0,0.0,0.0,0.0,0.0,0.0,0.0,0.0,0.0,0.0,0.0,0.0,0.0,0.0,0.0,0.0,0.0,0.0,0.0,0.0,0.0,0.0,0.0,0.0,0.0,0.0,0.0,0.0,0.0,0.0,0.0,0.0,0.0,0.0,0.0,0.0,0.0,0.0,0.0,0.0,0.0,0.0,0.0,0.0,0.0,0.0,0.0,0.0,0.0,0.0,0.0,0.0,0.0,0.0,0.0,0.0,0.0,0.0,0.0,0.0,0.0,0.0,0.0,0.0,0.0,0.0,0.0,0.0,0.0,0.0,0.0,0.0,0.0,0.0,0.0,0.0,0.0,0.0,0.0,0.0,0.0,0.0,0.0,0.0,0.0,0.0,0.0,0.0,0.0,0.0,0.0,0.0,0.0,0.0,0.0,0.0,0.0,0.0,0.0,0.0,0.0,0.0,0.0,0.0,0.0,0.0,0.0,0.0,0.0,0.0,0.0,0.0,0.0,0.0,0.0,0.0,0.0,0.0,0.0,0.0,0.0,0.0,0.0,0.0,0.0,0.0,0.0,0.0,0.0,0.0,0.0,0.0,0.0,0.0,0.0,0.0,0.0,0.0,0.0,0.0,0.0,0.0,0.0,0.0,0.0,0.0,0.0,0.0,0.0,0.0,0.0,0.0,0.0,0.0,0.0,0.0,0.0,0.0,0.0,0.0,0.0,0.0,0.0,0.0,0.0,0.0,0.0,0.0,0.0,0.0,0.0,0.0,0.0,0.0,0.0,0.0,0.0,0.0,0.0,0.0,0.0,0.0,0.0,0.0,0.0,0.0,0.0,0.0,0.0,0.0,0.0,0.0,0.0,0.0,0.0,0.0,0.0,0.0,0.0,0.0,0.0,0.0,0.0,0.0,0.0,0.0,0.0,0.0,0.0,0.0,0.0,0.0,0.0,0.0,0.0,0.0,0.0,0.0,0.0,0.0,0.0,0.0,0.0,0.0,0.0,0.0,0.0,0.0,0.0,0.0,0.0,0.0,0.0,0.0,0.0,0.0,0.0,0.0,0.0,0.0,0.0,0.0,0.0,0.0,0.0,0.0,0.0,0.0,0.0,0.0,0.0,0.0,0.0,0.0,0.0,0.0,0.0,0.0,0.0,0.0,0.0,0.0,0.0,0.0,0.0,0.0,0.0,0.0,0.0,0.0,0.0,0.0,0.0,0.0,0.0,0.0,0.0,0.0,0.0,0.0,0.0,0.0,0.0,0.0,0.0,0.0,0.0,0.0,0.0,0.0,0.0,0.0,0.0,0.0,0.0,0.0,0.0,0.0,0.0,0.0,0.0,0.0,0.0,0.0,0.0,0.0,0.0,0.0,0.0,0.0,0.0,0.0,0.0,0.0,0.0,0.0,0.0,0.0,0.0,0.0,0.0,0.0,0.0,0.0,0.0,0.0,0.0,0.0,0.0,0.0,0.0,0.0,0.0,0.0,0.0,0.0,0.0,0.0,0.0,0.0,0.0,0.0,0.0,0.0,0.0,0.0,0.0,0.0,0.0,0.0,0.0,0.0,0.0,0.0,0.0,0.0,0.0,0.0,0.0,0.0,0.0,0.0,0.0,0.0,0.0,0.0,0.0,0.0,0.0,0.0,0.0,0.0,0.0,0.0,0.0,0.0,0.0,0.0,0.0,0.0,0.0,0.0,0.0,0.0,0.0,0.0,0.0,0.0,0.0,0.0,0.0,0.0,0.0,0.0,0.0,0.0,0.0,0.0,0.0,0.0,0.0,0.0,0.0,-0.9323,-0.8836,0.0,0.0,0.0,0.0,0.0,0.0,0.0,0.0,0.0,0.0,0.0,0.0,0.0,0.0,0.0,0.0,0.0,0.0,0.0,0.0,0.0,0.0,0.0,-0.6668,-0.6599,-0.6599,-0.6599,-0.6599,-0.6599,0.0,0.0,0.0,0.0,0.0,-0.6388,-0.6286,-0.6364,-0.6613,-0.6613,-0.6835,-0.7245,-0.727,-0.687,-0.6149,0.0,0.0,0.0,0.0,0.0,0.0,0.0,0.0,0.0,0.0,0.0,0.0,0.0,0.0,0.0,0.0,0.0,0.0,0.0,0.0,0.0,0.0,0.0,0.0,0.0,0.0,0.0,0.0,0.0,0.0,0.0,0.0,0.0,0.0,0.0,0.0,0.0,0.0,0.0,0.0,0.0,0.0,0.0,0.0,0.0,0.0,0.0,0.0,0.0,0.0,0.0,0.0,0.0,0.0,0.0,0.0,0.0,0.0,0.0,0.0,0.0,0.0,0.0,0.0,0.0,0.0,0.0,0.0,0.0,0.0,-1.1669,-1.0985,0.0,0.0,0.0,0.0,0.0,0.0,0.0,0.0,0.0,0.0,0.0,0.0,0.0,0.0,0.0,0.0,0.0,0.0,0.0,0.0,0.0,-0.5513,-0.6486,-0.6599,-0.6599,-0.6599,-0.6599,-0.6599,-0.6599,-0.6599,0.0,0.0,0.0,-0.6599,-0.6599,-0.6699,-0.6953,-0.7406,-0.7603,-0.8145,-0.9007,-0.9341,-0.9017,-0.8075,-0.7257,0.0,0.0,0.0,0.0,0.0,0.0,0.0,0.0,0.0,0.0,0.0,0.0,0.0,0.0,0.0,0.0,0.0,0.0,0.0,0.0,0.0,0.0,0.0,0.0,0.0,0.0,0.0,0.0,0.0,0.0,0.0,0.0,0.0,0.0,0.0,0.0,0.0,0.0,0.0,0.0,0.0,0.0,0.0,0.0,0.0,0.0,0.0,0.0,0.0,0.0,0.0,0.0,0.0,0.0,0.0,0.0,0.0,0.0,0.0,0.0,0.0,0.0,0.0,-1.2535,-1.3189,-1.4677,-1.4264,-1.5139,-1.6871,-1.4473,-1.3832,-1.4319,-1.2554,0.0,0.0,0.0,0.0,0.0,0.0,0.0,0.0,0.0,0.0,0.0,0.0,0.0,0.0,0.0,0.0,0.0,0.0,0.0,-0.5926,-0.6536,-0.6599,-0.6599,-0.6599,-0.6599,-0.6599,-0.6599,-0.6599,0.0,0.0,-0.6599,-0.6599,-0.6599,-0.7053,-0.7331,-0.7406,-0.8399,-0.9318,-1.0173,-1.0576,-1.0949,-1.1212,-0.9566,-0.8835,-0.8771,0.0,0.0,0.0,0.0,0.0,0.0,0.0,0.0,0.0,0.0,0.0,0.0,0.0,0.0,0.0,0.0,0.0,0.0,0.0,0.0,0.0,0.0,0.0,0.0,0.0,0.0,0.0,0.0,0.0,0.0,0.0,0.0,0.0,0.0,0.0,0.0,0.0,0.0,0.0,0.0,0.0,-0.7139,-0.7954,0.0,0.0,0.0,0.0,0.0,0.0,0.0,0.0,0.0,0.0,0.0,0.0,0.0,-1.2252,-1.3076,-1.3877,-1.472,-1.5595,-1.5525,-1.619,-1.7444,-1.7174,-1.7618,-1.86,-1.8721,0.0,-1.6196,-1.541,0.0,0.0,0.0,0.0,0.0,0.0,0.0,0.0,0.0,0.0,0.0,0.0,0.0,0.0,0.0,0.0,0.0,0.0,0.0,0.0,0.0,-0.6865,-0.7053,-0.7053,-0.7363,-0.7413,-0.7078,-0.7053,-0.6915,-0.6611,-0.6599,-0.6599,-0.6599,-0.7128,-0.8005,-0.9266,-1.0695,-1.178,-1.2485,-1.2968,-1.3334,-1.3544,-1.2751,-1.1519,-1.0,-0.9143,0.0,0.0,0.0,0.0,0.0,0.0,0.0,0.0,0.0,0.0,0.0,0.0,0.0,0.0,0.0,0.0,0.0,0.0,0.0,0.0,0.0,0.0,0.0,0.0,0.0,0.0,0.0,0.0,0.0,0.0,0.0,0.0,0.0,0.0,0.0,0.0,0.0,0.0,0.0,-0.6982,-0.7974,-0.8346,-0.8418,-0.8334,0.0,0.0,0.0,0.0,0.0,0.0,0.0,0.0,0.0,-1.2988,-1.3636,-1.4316,-1.496,-1.5341,-1.5831,-1.6425,-1.6434,-1.7214,-1.8594,-1.8491,-1.9146,-2.0387,-2.0632,-2.022,-1.9242,-1.7745,-1.6838,-1.6315,0.0,0.0,0.0,0.0,-1.5141,-1.4903,0.0,0.0,0.0,0.0,0.0,0.0,0.0,0.0,0.0,0.0,0.0,0.0,-0.6767,-0.7156,-0.7456,-0.7616,-0.8049,-0.8112,-0.7666,-0.7481,-0.7219,-0.6815,-0.6674,-0.6662,-0.6803,-0.7753,-0.9254,-1.1332,-1.2739,-1.3722,-1.433,-1.4846,-1.5097,-1.511,-1.5248,-1.3989,-1.1726,-1.0845,-0.9796,0.0,0.0,0.0,0.0,0.0,0.0,0.0,0.0,0.0,0.0,0.0,0.0,0.0,0.0,0.0,0.0,0.0,0.0,0.0,0.0,0.0,0.0,0.0,0.0,0.0,0.0,0.0,0.0,0.0,0.0,0.0,0.0,0.0,0.0,0.0,0.0,0.0,0.0,-0.7949,-0.8867,-0.9324,-0.9541,-0.9549,0.0,0.0,0.0,0.0,0.0,0.0,-1.221,-1.3457,-1.4307,-1.4591,-1.5332,-1.6006,-1.6584,-1.6833,-1.7332,-1.807,-1.8102,-1.8977,-2.0549,-2.0335,-2.1003,-2.2334,-2.2196,-2.2133,-2.1958,-1.9748,-1.8832,-1.8744,-1.7739,-1.734,-1.739,-1.784,-1.7727,-1.7476,0.0,0.0,0.0,0.0,0.0,0.0,0.0,0.0,0.0,0.0,0.0,-0.6771,-0.7294,-0.7381,-0.7628,-0.82,-0.8286,-0.8286,0.0,-0.7716,-0.7393,-0.7356,-0.6865,-0.684,-0.7344,-0.9442,-1.137,-1.3073,-1.3727,-1.4324,-1.4878,-1.5412,-1.5655,-1.568,-1.6187,-1.5773,-1.4582,-1.2973,-1.223,-1.1968,0.0,0.0,0.0,0.0,0.0,0.0,0.0,0.0,0.0,0.0,0.0,0.0,0.0,0.0,0.0,0.0,0.0,0.0,0.0,0.0,0.0,0.0,0.0,0.0,0.0,0.0,0.0,0.0,0.0,0.0,0.0,0.0,0.0,0.0,0.0,0.0,0.0,0.0,0.0,-1.1814,-1.1702,0.0,0.0,0.0,0.0,-1.1479,-1.2988,-1.3938,-1.3977,-1.5225,-1.5977,-1.5997,-1.6426,-1.7028,-1.79,-1.8851,-2.0147,-2.1719,-2.1867,-2.2836,-2.4484,-2.3655,-2.3765,-2.4619,-2.4104,-2.3866,-2.3703,-2.1496,-2.0566,-2.0503,-1.9874,-1.9635,-1.9648,-1.9673,-1.966,-1.9648,0.0,0.0,0.0,-0.3906,-0.4393,-0.4916,-0.5258,-0.5902,-0.6413,-0.6587,-0.7062,-0.7373,-0.74,-0.8051,-0.8575,-0.88,-0.9127,-0.9177,-0.8837,-0.8288,-0.8137,-0.8487,-0.7974,-0.8451,-1.0069,-1.1209,-1.263,-1.4287,-1.4859,-1.5412,-1.5932,-1.6132,-1.6199,-1.6233,-1.64,-1.6296,-1.5856,-1.4569,-1.3383,-1.23,-1.1175,-0.9943,0.0,0.0,0.0,0.0,0.0,0.0,0.0,0.0,0.0,0.0,0.0,0.0,0.0,0.0,0.0,0.0,0.0,0.0,0.0,0.0,0.0,0.0,0.0,0.0,0.0,0.0,0.0,0.0,0.0,0.0,0.0,0.0,0.0,0.0,0.0,0.0,0.0,-1.2135,-1.2578,0.0,-1.2465,-1.29,-1.3223,-1.3223,-1.4561,-1.54,-1.54,-1.7246,-1.7976,-1.7347,-1.863,-1.9166,-1.8828,-1.9819,-2.0637,-2.1226,-2.1886,-2.2819,-2.3956,-2.3646,-2.3989,-2.4775,-2.4587,-2.4519,-2.4469,-2.3665,-2.2698,-2.1669,-2.1104,-2.0891,-2.0891,-2.0891,-2.0891,-2.0891,-0.4779,-0.434,0.0,-0.3906,-0.4578,-0.5241,-0.5548,-0.6225,-0.675,-0.6888,-0.7353,-0.7669,-0.7698,-0.8537,-0.9176,-0.9353,-0.9705,-0.9742,-0.939,-0.8875,-0.8724,-0.9088,-0.9102,-0.9981,-1.1826,-1.2768,-1.3891,-1.5173,-1.5706,-1.6158,-1.65,-1.65,-1.65,-1.65,-1.65,-1.65,-1.645,-1.5731,-1.4689,-1.3458,-1.2734,-1.1653,-1.0383,0.0,0.0,0.0,0.0,0.0,0.0,0.0,0.0,0.0,0.0,0.0,0.0,0.0,0.0,0.0,0.0,0.0,0.0,0.0,0.0,0.0,0.0,0.0,0.0,0.0,0.0,0.0,0.0,0.0,0.0,0.0,0.0,0.0,0.0,0.0,-1.2418,-1.3003,-1.3594,-1.3887,-1.375,-1.4375,-1.4785,-1.4785,-1.5986,-1.675,-1.675,-1.8781,-1.9612,-1.8982,-2.0159,-2.0722,-2.053,-2.1165,-2.1737,-2.2209,-2.3179,-2.3958,-2.4524,-2.4524,-2.4837,-2.536,-2.5172,-2.5084,-2.5071,-2.4863,-2.4167,-2.3125,-2.2749,-2.2611,-2.2611,-2.2611,-2.2498,-2.2309,-0.4192,-0.4034,-0.3906,-0.3906,-0.4843,-0.5613,-0.5613,-0.6349,-0.6903,-0.6903,-0.7216,-0.7653,-0.8238,-0.88,-0.9327,-0.9855,-0.9905,-0.9905,-0.9905,-0.939,-0.9126,-0.9176,-1.0219,-1.1347,-1.2475,-1.4092,-1.5185,-1.5718,-1.6258,-1.65,-1.65,-1.65,-1.65,-1.65,-1.65,-1.65,-1.65,-1.65,-1.6187,-1.563,-1.4576,-1.3778,-1.3048,0.0,0.0,0.0,0.0,0.0,0.0,0.0,0.0,0.0,0.0,0.0,0.0,0.0,0.0,0.0,0.0,0.0,0.0,0.0,0.0,0.0,0.0,0.0,0.0,0.0,0.0,0.0,0.0,0.0,0.0,0.0,0.0,0.0,-1.1728,-1.2064,-1.2949,-1.4684,-1.4862,-1.5028,-1.5439,-1.5919,-1.6214,-1.6214,-1.738,-1.8115,-1.8081,-1.9875,-2.0882,-2.0882,-2.0903,-2.1542,-2.2855,-2.2926,-2.3638,-2.4969,-2.5978,-2.6499,-2.6499,-2.6499,-2.6499,-2.6461,-2.5862,-2.5624,-2.5586,-2.5084,-2.4838,-2.4838,-2.48,-2.4788,-2.4788,-2.4788,-2.4481,-2.3941,-0.413,-0.4005,-0.3906,-0.3906,-0.4967,-0.5826,-0.5826,-0.6554,-0.7114,-0.7114,-0.7662,-0.8112,-0.8286,-0.9127,-0.973,-0.988,-0.9905,-0.9905,-0.9905,-0.939,-0.9642,-1.0861,-1.2373,-1.3677,-1.4764,-1.5229,-1.5731,-1.6274,-1.6425,-1.65,-1.65,-1.65,-1.65,-1.65,-1.65,-1.65,-1.65,-1.65,-1.64,-1.6233,-1.555,-1.4695,-1.374,0.0,0.0,0.0,0.0,0.0,0.0,0.0,0.0,0.0,0.0,0.0,0.0,0.0,0.0,0.0,0.0,0.0,0.0,0.0,0.0,0.0,0.0,0.0,0.0,0.0,0.0,0.0,0.0,0.0,0.0,0.0,-1.3525,-1.4239,-1.4338,-1.4449,-1.5066,-1.6519,-1.6367,-1.6475,-1.7204,-1.8051,-1.8517,-1.842,-2.0067,-2.0745,-2.0072,-2.2122,-2.3028,-2.236,-2.331,-2.3334,-2.2248,-2.3686,-2.4245,-2.3927,-2.5687,-2.6499,-2.6499,-2.6499,-2.6499,-2.6487,-2.6323,-2.626,-2.6248,-2.6097,-2.6047,-2.5971,-2.5134,-2.4788,-2.4788,-2.4788,-2.472,-2.4569,-0.4146,-0.4015,-0.3984,-0.4271,-0.5192,-0.5965,-0.6162,-0.6772,-0.7178,-0.7088,-0.7785,-0.8298,-0.8298,-0.9265,-0.9905,-0.9905,-0.9905,-0.9905,-0.9905,-0.9818,-1.0521,-1.2203,-1.3456,-1.4601,-1.5668,-1.5919,-1.6195,-1.65,-1.65,-1.65,-1.65,-1.65,-1.65,-1.65,-1.65,-1.65,-1.65,-1.65,-1.65,-1.6475,-1.617,-1.5655,-1.5022,-1.4212,-1.3521,-1.2872,-1.2049,-1.146,-1.1021,-1.0721,0.0,0.0,0.0,0.0,0.0,0.0,0.0,0.0,0.0,0.0,0.0,0.0,0.0,0.0,0.0,0.0,0.0,0.0,0.0,0.0,0.0,0.0,0.0,0.0,-1.5455,-1.6218,-1.7638,-1.6613,-1.6367,-1.8227,-1.7895,-1.7996,-1.9285,-1.9955,-2.0368,-2.0496,-2.1752,-2.2267,-2.1716,-2.3537,-2.4354,-2.3802,-2.4554,-2.4636,-2.3904,-2.4624,-2.4933,-2.4767,-2.5943,-2.6499,-2.6499,-2.6499,-2.6499,-2.6499,-2.6499,-2.6499,-2.6499,-2.6499,-2.6499,-2.6436,0.0,0.0,0.0,0.0,-2.5146,-2.5109,-0.4195,-0.4034,-0.4103,-0.4777,-0.5451,-0.6061,-0.6564,-0.6955,-0.7138,-0.696,-0.7669,-0.82,-0.82,-0.9115,-0.9742,-0.9805,-0.9805,-0.9855,-0.9981,-1.0557,-1.1608,-1.3223,-1.3928,-1.4765,-1.5768,-1.6249,-1.65,-1.65,-1.65,-1.65,-1.65,-1.65,-1.65,-1.65,-1.65,-1.65,-1.65,-1.65,-1.65,-1.65,-1.65,-1.65,-1.6387,-1.5449,-1.5035,-1.4859,-1.3842,-1.2864,-1.2055,-1.1992,0.0,0.0,0.0,0.0,0.0,0.0,0.0,0.0,0.0,0.0,0.0,0.0,0.0,0.0,0.0,0.0,0.0,0.0,0.0,0.0,0.0,0.0,0.0,0.0,-1.7169,-1.8005,-2.092,-1.8594,-1.7492,-1.986,-1.941,-1.963,-2.1372,-2.1652,-2.1902,-2.2389,-2.2958,-2.3278,-2.3136,0.0,0.0,0.0,0.0,-2.5668,-2.6489,-2.5728,-2.5728,-2.6489,-2.664,-2.665,-2.6587,-2.6587,-2.6549,-2.6499,-2.6499,-2.6499,-2.6499,-2.6499,-2.6499,-2.6499,-2.6499,-2.6499,-2.6436,-2.5921,-2.5686,-2.5624,-0.4195,-0.4034,-0.4103,-0.4777,-0.5451,-0.6115,-0.6751,-0.7042,-0.7193,-0.7146,-0.7399,-0.7578,-0.7578,-0.82,-0.8776,-0.9214,-0.9264,-0.9629,0.0,0.0,-1.263,-1.3871,-1.4859,-1.568,-1.6325,-1.6437,-1.65,-1.65,-1.65,-1.65,-1.65,-1.65,-1.65,-1.65,-1.65,-1.65,-1.65,-1.65,-1.65,-1.65,-1.65,-1.65,-1.6475,-1.6283,-1.5919,-1.5525,-1.5304,-1.5078,-1.4827,-1.4406,-1.4123,-1.3702,-1.2341,0.0,0.0,0.0,0.0,0.0,0.0,0.0,0.0,0.0,0.0,0.0,0.0,0.0,0.0,0.0,0.0,0.0,0.0,0.0,0.0,-1.9056,-1.9765,-2.0606,-2.1897,-2.0742,-2.0169,-2.1377,-2.1126,-2.1281,-2.2348,-2.3221,-2.3752,-2.3813,-2.505,-2.5458,-2.4637,-2.5603,-2.641,-2.6845,-2.687,-2.6757,-2.6563,-2.7201,-2.7201,-2.66,-2.7395,0.0,-2.7165,-2.7165,-2.6914,-2.6499,-2.6499,-2.6499,-2.6499,-2.6499,-2.6499,-2.6499,-2.6499,-2.6499,-2.6474,-2.6361,-2.6336,-2.6311,-0.4195,-0.4034,-0.4223,-0.5227,-0.5685,-0.6237,-0.7241,-0.741,-0.7394,-0.7394,-0.7521,-0.7598,-0.7605,-0.8019,-0.8411,-0.8674,-0.9189,0.0,0.0,-1.2024,-1.3308,-1.445,-1.5273,-1.5957,-1.6488,-1.65,-1.65,-1.65,-1.65,-1.65,-1.65,-1.65,-1.65,-1.65,-1.65,-1.65,-1.65,-1.65,-1.65,-1.65,-1.65,-1.65,-1.65,-1.65,-1.6325,-1.6107,-1.6107,-1.5932,-1.5655,-1.5399,-1.5123,-1.4745,-1.3928,-1.3082,-1.2174,0.0,0.0,0.0,0.0,0.0,0.0,0.0,0.0,0.0,0.0,0.0,0.0,0.0,0.0,-1.5722,-1.7087,0.0,-1.9492,-2.0834,-2.1034,-2.15,-2.2942,-2.2291,-2.1972,-2.286,-2.2432,-2.258,-2.4014,-2.4651,-2.5046,-2.534,-2.6049,-2.628,-2.5769,-2.6459,-2.7027,-2.7268,-2.7557,-2.7591,-2.7348,-2.7865,-2.7865,-2.7348,-2.7865,-2.7959,-2.7695,-2.7695,-2.7544,-2.7281,-2.7281,-2.7165,-2.6889,-2.6612,-2.6499,-2.6499,-2.6499,-2.6499,-2.6499,-2.6499,-2.6499,-2.6499,-0.4198,-0.416,-0.4505,-0.5694,-0.6007,-0.6496,-0.7719,-0.7724,-0.7605,-0.7605,-0.765,-0.7671,-0.7627,-0.7862,-0.8051,-0.8112,0.0,0.0,0.0,-1.2388,-1.3835,-1.4865,-1.5505,-1.607,-1.6488,-1.65,-1.65,-1.65,-1.65,-1.65,-1.65,-1.65,-1.65,-1.65,-1.65,-1.65,-1.65,-1.65,-1.65,-1.65,-1.65,-1.65,-1.65,-1.65,-1.65,-1.65,-1.65,-1.617,-1.5718,-1.5819,-1.5512,-1.5047,-1.5047,-1.4425,-1.3566,-1.2918,-1.1999,0.0,0.0,0.0,0.0,0.0,0.0,0.0,0.0,0.0,-1.56,-1.5814,-1.6985,-1.8227,-1.9158,-1.9867,-2.0774,-2.2222,-2.1962,-2.2195,-2.391,-2.3548,-2.3388,-2.406,-2.3634,-2.3896,-2.5444,-2.5699,-2.5996,-2.6461,-2.6499,-2.6549,-2.665,-2.7077,-2.7381,-2.7595,-2.8034,-2.8323,-2.8436,-2.8436,-2.8436,-2.8436,-2.8436,-2.8373,-2.826,-2.826,-2.821,-2.8109,-2.8109,-2.7846,-2.7406,-2.7002,-2.6751,-2.665,-2.665,-2.6587,-2.6499,-2.6499,-2.6499,-2.6499,-0.4204,-0.462,-0.5165,-0.579,-0.6386,-0.7047,-0.7794,-0.7724,-0.7605,-0.7605,-0.741,-0.7199,-0.7025,-0.704,-0.7182,-0.7475,0.0,0.0,-1.0656,-1.2772,-1.4274,-1.4859,-1.5869,-1.6437,-1.65,-1.65,-1.65,-1.65,-1.65,-1.65,-1.65,-1.65,-1.65,-1.65,-1.65,-1.65,-1.65,-1.65,-1.65,-1.65,-1.65,-1.65,-1.65,-1.65,-1.65,-1.65,-1.65,-1.617,-1.5768,-1.6237,-1.6057,-1.5605,-1.5605,-1.5517,-1.5216,-1.4211,0.0,-1.291,-1.2847,-1.2872,-1.3286,-1.4852,-1.4984,-1.5316,0.0,0.0,-1.8103,-1.9058,-1.9823,-2.0348,-2.0503,-2.1325,-2.2235,-2.292,-2.3373,-2.3923,-2.4612,-2.4636,-2.4591,-2.47,-2.5036,-2.5361,-2.5586,-2.6097,-2.6424,-2.6487,-2.6499,-2.6713,-2.7203,-2.7291,-2.7733,-2.8675,-2.8762,-2.9089,-2.9591,-2.9603,-2.9603,-2.9603,-2.9603,-2.9327,-2.88,-2.88,-2.8561,-2.8109,-2.8109,-2.8072,-2.8009,-2.7946,-2.7632,-2.7228,-2.7228,-2.6927,-2.6499,-2.6499,-2.6499,-2.6499,-0.4261,-0.5084,-0.5831,-0.594,-0.6487,-0.7122,-0.7794,-0.7834,-0.7768,-0.7768,-0.7583,-0.7401,-0.7321,-0.7058,-0.6906,-0.6934,-0.8474,-0.9667,-1.0193,-1.2328,-1.3979,-1.4859,-1.5618,-1.6183,-1.6488,-1.65,-1.65,-1.65,-1.65,-1.65,-1.65,-1.65,-1.65,-1.65,-1.65,-1.65,-1.65,-1.65,-1.65,-1.65,-1.65,-1.65,-1.65,-1.65,-1.63,-1.6032,-1.6032,-1.5894,0.0,0.0,-1.5618,-1.5663,-1.5336,-1.5236,-1.5148,-1.4702,-1.4173,0.0,-1.45,-1.5153,0.0,0.0,-1.7451,-1.8041,-1.9208,-1.956,-1.9786,-2.0239,-2.1004,-2.1619,-2.1619,-2.2259,-2.2945,0.0,-2.3841,-2.4305,-2.5159,-2.5008,-2.4933,-2.5234,-2.546,-2.5598,-2.5598,-2.616,-2.6499,-2.6499,-2.6788,-2.7065,-2.7268,-2.7896,-2.8448,-2.8875,-2.9252,-2.9553,-2.9792,-2.9792,-2.9792,-2.9792,-2.9792,-2.9666,-2.9428,-2.9428,-2.9302,-2.9063,-2.8737,-2.8586,-2.8561,-2.8235,-2.7971,-2.772,-2.7406,-2.7178,-2.6939,-2.6612,-2.6499,-2.6499,-0.4311,-0.5396,-0.6259,-0.6033,-0.6679,-0.7376,-0.7831,-0.7899,-0.7899,-0.7899,-0.7768,-0.7665,-0.7612,-0.7131,-0.6782,-0.6693,-0.8165,-0.9265,-0.9654,-1.1899,-1.3566,-1.4406,-1.5261,-1.5881,-1.6283,-1.6425,-1.65,-1.65,-1.65,-1.65,-1.65,-1.65,-1.65,-1.65,-1.65,-1.65,-1.65,-1.65,-1.65,-1.65,-1.65,-1.65,-1.6475,-1.6346,-1.6045,-1.5693,-1.5693,-1.5512,0.0,0.0,-1.4934,-1.5185,-1.4796,-1.479,-1.4921,-1.5072,-1.4947,-1.4921,-1.5706,0.0,0.0,-1.8468,-1.9346,-2.0125,-2.0426,-2.0815,-2.1182,-2.1345,-2.1983,-2.2506,-2.2506,-2.2832,-2.3346,-2.4104,-2.423,-2.4607,-2.5686,-2.5372,-2.5121,-2.536,-2.5385,-2.5385,-2.5385,-2.6072,-2.6499,-2.6499,-2.7002,-2.7344,-2.7507,-2.8411,-2.8963,-2.9126,-2.9578,-2.9792,-2.9792,-2.9792,-2.9792,-2.9792,-2.9792,-2.9792,-2.9792,-2.9792,-2.9792,-2.9767,-2.9352,-2.9126,-2.9139,-2.8737,-2.8473,-2.8285,-2.772,-2.7419,-2.7253,-2.67,-2.6499,-2.6499,-0.4323,-0.5423,-0.6314,-0.6043,-0.7147,-0.8027,-0.7913,-0.7899,-0.7899,-0.7899,-0.7892,-0.7827,-0.7627,-0.7001,-0.6693,-0.6874,-0.8249,-0.9113,-0.9126,-1.1685,-1.3223,-1.3248,-1.4827,-1.5706,-1.5718,-1.6224,-1.65,-1.65,-1.65,-1.65,-1.65,-1.65,-1.65,-1.65,-1.65,-1.65,-1.65,-1.65,-1.65,-1.65,-1.65,-1.65,-1.6437,-1.5919,-1.5706,-1.5693,-1.5693,0.0,0.0,0.0,-1.4141,-1.4154,-1.4141,-1.4475,0.0,-1.5517,-1.6032,0.0,0.0,0.0,-1.843,-1.9497,-2.0226,-2.0943,-2.1995,-2.2246,-2.241,-2.292,-2.3058,-2.3083,-2.3083,-2.3095,-2.3471,-2.4587,-2.4763,-2.5172,-2.6311,-2.5971,-2.5385,-2.4863,-2.4813,-2.4813,0.0,-2.5858,-2.6499,-2.6499,-2.7002,-2.7519,-2.8047,-2.8612,-2.9189,-2.9741,-2.9779,-2.9792,-2.9792,-2.9792,-2.9792,-2.9792,-2.9792,-2.9792,-2.9792,-2.9792,-2.9792,-2.9792,-2.9779,-2.9767,-2.9767,-2.9754,-2.9415,-2.8813,-2.8298,-2.7758,-2.7253,-2.67,-2.6499,-2.6499,-0.5076,-0.5943,-0.6659,-0.6837,-0.7651,-0.8216,-0.7942,-0.7899,-0.7899,-0.7899,-0.7899,0.0,0.0,0.0,0.0,0.0,-0.7477,-0.8288,-0.905,-1.0632,-1.2033,-1.3148,-1.4111,-1.4959,-1.568,-1.5881,-1.6145,-1.65,-1.65,-1.65,-1.65,-1.65,-1.65,-1.65,-1.65,-1.65,-1.65,-1.65,-1.65,-1.65,-1.65,-1.65,-1.6475,-1.6287,-1.5575,-1.4639,0.0,0.0,0.0,0.0,-1.3207,-1.3509,-1.3509,0.0,0.0,-1.553,0.0,0.0,0.0,0.0,-2.0038,-2.074,-2.1343,-2.1945,-2.2656,-2.2832,-2.2782,-2.2594,-2.2556,-2.2443,-2.2108,-2.2347,-2.2932,-2.4092,-2.4582,-2.5209,-2.6336,-2.5996,-2.5523,-2.536,-2.5335,0.0,0.0,0.0,0.0,-2.6461,-2.7341,-2.7908,-2.8097,-2.9001,-2.9591,-2.9779,-2.9792,-2.9792,-2.9792,-2.9792,-2.9792,-2.9792,-2.9792,-2.9792,-2.9792,-2.9792,-2.9792,-2.9792,-2.9792,-2.9792,-2.9792,-2.9792,-2.9679,-2.9453,-2.8875,-2.831,-2.7758,-2.7241,-2.6813,-2.6499,-0.546,-0.6191,-0.6846,-0.7286,-0.7948,0.0,0.0,0.0,0.0,0.0,0.0,0.0,0.0,0.0,0.0,0.0,0.0,-0.7816,-0.846,-0.9692,-1.0896,-1.1974,-1.2973,-1.3815,-1.4513,-1.4714,-1.5078,-1.563,-1.563,-1.5731,-1.5932,-1.5932,-1.5932,-1.5932,-1.5932,-1.6032,-1.6187,-1.6019,-1.6158,-1.6463,-1.6082,-1.5932,-1.5881,-1.5472,-1.4563,0.0,0.0,0.0,0.0,-1.2149,0.0,0.0,0.0,0.0,0.0,0.0,0.0,-1.8292,0.0,-1.9874,-2.1119,-2.1644,-2.2196,-2.2669,-2.302,-2.2945,-2.2656,-2.2133,-2.1857,-2.1556,-2.0991,-2.1179,-2.192,-2.3439,-2.396,-2.4745,-2.6285,-2.5996,-2.5598,-2.5598,-2.5598,-2.5674,0.0,0.0,0.0,-2.6461,-2.7657,-2.831,-2.8109,-2.9176,-2.9792,-2.9792,-2.9792,-2.9792,-2.9792,-2.9792,-2.9792,-2.9792,-2.9792,-2.9792,-2.9792,-2.9792,-2.9792,-2.9792,-2.9792,-2.9792,-2.9792,-2.9792,-2.9792,-2.9729,-2.9151,-2.8675,-2.831,-2.7557,-2.709,-2.6763,-0.5508,-0.6225,-0.689,0.0,0.0,0.0,0.0,0.0,0.0,0.0,0.0,0.0,0.0,0.0,0.0,0.0,0.0,0.0,-0.7432,-0.8915,0.0,-0.9855,-1.1437,-1.2341,-1.235,-1.2872,-1.3441,-1.4053,-1.4053,-1.4311,-1.4808,-1.4808,-1.4808,-1.4808,-1.4808,-1.511,-1.5567,-1.5047,-1.5424,-1.6296,-1.5248,-1.4808,-1.4695,-1.3616,0.0,0.0,0.0,0.0,0.0,0.0,0.0,0.0,0.0,0.0,0.0,0.0,0.0,-1.8555,-1.9597,-2.0715,-2.1694,-2.2221,-2.2719,-2.3095,-2.307,-2.2631,-2.2108,-2.1518,-2.0993,-2.0427,0.0,0.0,-2.0564,-2.2706,-2.3133,-2.3948,-2.6185,-2.6047,-2.5686,0.0,0.0,0.0,0.0,0.0,0.0,-2.6575,0.0,-2.8637,-2.8172,-2.9202,-2.9792,-2.9792,-2.9792,-2.9792,-2.9792,-2.9792,-2.9792,-2.9792,-2.9792,-2.9792,-2.9792,-2.9792,-2.9792,-2.9792,-2.9792,-2.9792,-2.9792,-2.9792,-2.9792,-2.9741,-2.9189,-2.8913,-2.8762,-2.772,-2.7306,-2.7241,0.0,0.0,0.0,0.0,0.0,0.0,0.0,0.0,0.0,0.0,0.0,0.0,0.0,0.0,0.0,0.0,0.0,0.0,0.0,0.0,0.0,0.0,0.0,-1.1334,-1.1789,-1.2341,0.0,0.0,0.0,-1.3504,-1.3629,-1.3629,-1.3629,-1.3629,-1.3629,-1.3961,-1.4475,-1.3885,-1.4048,-1.4664,0.0,-1.3629,-1.3604,0.0,0.0,0.0,0.0,0.0,0.0,0.0,0.0,0.0,0.0,0.0,-1.7137,0.0,0.0,-2.0214,-2.0878,-2.187,-2.2719,-2.2857,-2.2995,-2.2995,-2.2594,-2.2096,-2.1418,-2.0439,-1.9811,-1.9246,-1.8719,0.0,0.0,-2.2297,-2.3547,0.0,-2.6298,-2.6725,0.0,0.0,0.0,-2.7519,-2.767,-2.8059,0.0,0.0,-2.8084,-2.8436,-2.8662,-2.9402,-2.9792,-2.9792,-2.9792,-2.9792,-2.9792,-2.9792,-2.9792,-2.9792,-2.9792,-2.9792,-2.9792,-2.9792,-2.9792,-2.9792,-2.9792,-2.9792,-2.9792,-2.9792,-2.9792,-2.9779,-2.9628,-2.9315,-2.8813,-2.8147,-2.7632,-2.7241,0.0,0.0,0.0,0.0,0.0,0.0,0.0,0.0,0.0,0.0,0.0,0.0,0.0,0.0,0.0,0.0,0.0,0.0,0.0,0.0,0.0,0.0,0.0,-0.9805,-1.0144,-1.0671,-1.1098,0.0,0.0,0.0,0.0,-1.2375,-1.25,-1.25,-1.25,-1.2818,-1.333,-1.2743,0.0,0.0,0.0,0.0,0.0,0.0,0.0,0.0,0.0,0.0,0.0,0.0,0.0,-1.6233,-1.7265,-1.784,-1.8329,-1.9422,0.0,-2.1182,-2.1707,-2.2443,-2.3108,-2.3108,-2.292,-2.2606,-2.2071,-2.133,-2.0363,-1.902,-1.8505,0.0,-1.6936,0.0,0.0,0.0,0.0,0.0,-2.5896,-2.6801,-2.7281,0.0,-2.7984,0.0,-2.8461,-2.8712,-2.8875,0.0,-2.885,-2.8863,-2.8888,-2.9478,-2.9792,-2.9792,-2.9792,-2.9792,-2.9792,-2.9792,-2.9792,-2.9792,-2.9792,-2.9792,-2.9792,-2.9792,-2.9792,-2.9792,-2.9792,-2.9792,-2.9792,-2.9792,-2.9792,-2.9792,-2.9792,-2.9591,-2.9214,-2.8411,-2.7908,-2.7532,0.0,0.0,0.0,0.0,0.0,0.0,0.0,0.0,0.0,0.0,0.0,0.0,0.0,0.0,0.0,0.0,0.0,0.0,0.0,0.0,0.0,0.0,0.0,-0.8175,-0.8175,0.0,0.0,0.0,0.0,0.0,0.0,0.0,0.0,0.0,0.0,0.0,0.0,0.0,0.0,0.0,0.0,0.0,0.0,0.0,0.0,0.0,0.0,0.0,0.0,0.0,-1.5768,-1.6989,-1.8519,-1.9108,-1.9421,-2.0503,-2.1194,-2.1719,-2.2272,-2.2744,-2.3108,-2.3108,-2.2631,-2.2058,-2.1506,-2.0388,-1.9058,-1.7564,0.0,-1.6656,-1.5261,-1.6317,-1.794,-1.9635,0.0,-2.3075,-2.5285,-2.6502,-2.7266,-2.7369,-2.8298,-2.8913,-2.9001,-2.9001,-2.9252,-2.9754,-2.9792,-2.9578,-2.9026,-2.9515,-2.9792,-2.9792,-2.9792,-2.9792,-2.9792,-2.9792,-2.9792,-2.9792,-2.9792,-2.9792,-2.9792,-2.9792,-2.9792,-2.9792,-2.9792,-2.9792,-2.9792,-2.9792,-2.9792,-2.9779,-2.9704,-2.9679,-2.9541,-2.8411,-2.7996,-2.7846,0.0,0.0,0.0,0.0,0.0,0.0,0.0,0.0,0.0,0.0,0.0,0.0,0.0,0.0,0.0,0.0,0.0,0.0,0.0,0.0,0.0,0.0,0.0,0.0,0.0,0.0,0.0,0.0,0.0,0.0,0.0,0.0,0.0,0.0,0.0,0.0,0.0,0.0,0.0,0.0,0.0,0.0,0.0,0.0,0.0,0.0,0.0,0.0,0.0,0.0,-1.6609,-1.8041,-1.877,-1.9648,-2.0528,-2.1182,-2.1732,-2.2284,-2.2807,-2.3032,-2.3108,-2.3108,-2.2343,-2.1493,-2.0968,-1.9271,0.0,0.0,0.0,-1.5374,-1.5517,-1.6581,0.0,-2.0201,0.0,0.0,0.0,0.0,-2.6977,0.0,0.0,0.0,0.0,0.0,0.0,0.0,-2.9792,-2.9741,-2.9641,-2.9741,-2.9792,-2.9792,-2.9792,-2.9792,-2.9792,-2.9792,-2.9792,-2.9792,-2.9792,-2.9792,-2.9792,-2.9792,-2.9792,-2.9792,-2.9792,-2.9792,-2.9792,-2.9792,-2.9792,-2.9741,-2.9264,-2.9076,-2.89,-2.7833,-2.7419,-2.7331,0.0,0.0,0.0,0.0,0.0,0.0,0.0,0.0,0.0,0.0,-0.7899,0.0,0.0,0.0,0.0,0.0,0.0,0.0,0.0,0.0,0.0,0.0,0.0,0.0,0.0,0.0,0.0,0.0,0.0,0.0,0.0,0.0,0.0,0.0,0.0,0.0,0.0,0.0,0.0,0.0,0.0,0.0,0.0,0.0,0.0,0.0,0.0,0.0,0.0,0.0,-1.5698,-1.7576,-1.8958,-1.9999,-2.0855,-2.1669,-2.2108,-2.2406,-2.2957,-2.3108,-2.3032,-2.2744,-2.1882,-2.0792,-1.9661,0.0,0.0,0.0,0.0,-1.4796,-1.4463,0.0,0.0,0.0,0.0,0.0,0.0,0.0,0.0,0.0,0.0,0.0,0.0,0.0,0.0,0.0,-2.9792,-2.9792,-2.9792,-2.9792,-2.9792,-2.9792,-2.9792,-2.9792,-2.9792,-2.9792,-2.9792,-2.9792,-2.9792,-2.9792,-2.9792,-2.9792,-2.9792,-2.9792,-2.9792,-2.9792,-2.9792,-2.9792,-2.9616,-2.9315,-2.9001,-2.8998,-2.9042,-2.8228,-2.8217,-2.8501,0.0,0.0,0.0,0.0,0.0,0.0,0.0,0.0,-0.7899,-0.7899,-0.7899,-0.7797,-0.7545,-0.756,0.0,0.0,0.0,0.0,0.0,0.0,0.0,0.0,0.0,0.0,0.0,0.0,0.0,0.0,0.0,0.0,0.0,0.0,0.0,0.0,0.0,0.0,0.0,0.0,0.0,0.0,0.0,0.0,0.0,0.0,0.0,0.0,0.0,0.0,0.0,0.0,-1.4369,-1.6162,-1.8267,-1.956,-2.0514,-2.1481,-2.1945,-2.2259,-2.2782,-2.3007,-2.297,-2.2418,-2.1393,-2.0101,-1.8555,-1.7149,0.0,0.0,0.0,-1.4299,-1.3529,0.0,0.0,0.0,0.0,0.0,0.0,0.0,0.0,0.0,0.0,0.0,0.0,0.0,0.0,0.0,-2.9792,-2.9792,-2.9792,-2.9792,-2.9792,-2.9792,-2.9792,-2.9792,-2.9792,-2.9792,-2.9792,-2.9792,-2.9792,-2.9792,-2.9792,-2.9792,-2.9792,-2.9792,-2.9998,-2.9896,-2.9603,-2.9834,-2.9454,-2.8737,-2.8784,-2.8988,-2.9153,-2.8764,-2.9038,-2.9573,0.0,0.0,0.0,0.0,0.0,0.0,0.0,0.0,-0.7899,-0.7899,-0.7899,-0.7724,-0.7287,-0.7454,0.0,0.0,0.0,0.0,0.0,0.0,0.0,0.0,0.0,0.0,0.0,0.0,0.0,0.0,0.0,0.0,0.0,0.0,0.0,0.0,0.0,0.0,0.0,0.0,0.0,0.0,0.0,0.0,0.0,0.0,0.0,0.0,0.0,0.0,0.0,0.0,0.0,-1.3799,-1.553,-1.7501,-1.9271,-1.9861,0.0,0.0,-2.2234,-2.2732,-2.297,-2.2418,-2.1079,-1.9585,-1.8455,0.0,0.0,0.0,-1.3697,-1.3491,-1.3946,-1.4173,0.0,0.0,0.0,0.0,0.0,0.0,0.0,0.0,0.0,0.0,0.0,0.0,0.0,0.0,-2.9792,-2.9792,-2.9792,-2.9792,-2.9792,-2.9792,-2.9792,-2.9792,-2.9792,-2.9792,-2.9792,-2.9792,-2.9792,-2.9792,-2.9792,-2.9792,-2.9792,-2.9869,-3.0696,-3.0285,-2.9038,-2.998,-2.9497,-2.8195,-2.8429,-2.8549,-2.8588,-2.8874,-2.899,-2.9071,0.0,0.0,0.0,0.0,0.0,0.0,0.0,-0.7212,-0.7899,-0.7899,-0.779,-0.7643,-0.7462,-0.7276,0.0,0.0,0.0,0.0,0.0,0.0,0.0,0.0,0.0,0.0,0.0,0.0,0.0,0.0,0.0,0.0,0.0,0.0,0.0,0.0,0.0,0.0,0.0,0.0,0.0,0.0,0.0,0.0,0.0,0.0,0.0,0.0,0.0,0.0,0.0,0.0,0.0,0.0,-1.3119,-1.4532,0.0,0.0,-1.9623,-2.0665,-2.1568,-2.197,-2.2096,-2.187,-2.0564,-1.8933,-1.7491,0.0,0.0,-1.3735,-1.3366,-1.3261,-1.3509,-1.3871,-1.4488,0.0,-1.6166,-1.73,0.0,0.0,0.0,0.0,0.0,0.0,0.0,0.0,0.0,-3.0582,-3.1156,-3.1476,-3.1476,-3.0432,-2.9792,-2.9792,-2.9792,-2.9792,-2.9792,-3.0343,-3.062,-3.0658,-3.123,-3.1476,-3.1462,-3.108,-3.112,-3.1436,-3.1038,-3.0725,-3.0534,-3.054,-2.9973,-2.9137,-2.9221,-2.9405,-2.9592,-2.9713,-3.0072,-3.0494,0.0,0.0,0.0,0.0,0.0,0.0,-0.5879,-0.6876,-0.7667,-0.7869,-0.7724,-0.7568,-0.7485,-0.7189,-0.6944,-0.6824,0.0,0.0,0.0,0.0,0.0,0.0,0.0,0.0,0.0,0.0,0.0,0.0,0.0,0.0,0.0,0.0,0.0,0.0,0.0,0.0,0.0,0.0,0.0,0.0,0.0,0.0,0.0,0.0,0.0,0.0,0.0,0.0,0.0,0.0,0.0,0.0,0.0,0.0,0.0,0.0,-1.8229,-1.9359,-2.0639,-2.1144,-2.1232,-2.1029,-1.9999,-1.8519,0.0,0.0,-1.4582,-1.3423,-1.3198,-1.3198,-1.3198,-1.3546,-1.4022,-1.4576,-1.511,-1.6233,-1.8444,0.0,0.0,0.0,0.0,0.0,0.0,0.0,0.0,-3.0619,-3.1626,-3.2121,-3.2012,-3.096,-3.0427,-3.0633,-3.0355,-3.0355,-3.0646,-3.1291,-3.1609,-3.1609,-3.2072,-3.2295,-3.2282,-3.1605,-3.1564,-3.1978,-3.134,-3.1037,-3.1027,-3.0868,-3.0308,-2.9605,-2.9863,-3.0086,-3.0329,-3.0584,-3.0999,-3.1511,0.0,0.0,0.0,0.0,0.0,0.0,0.0,-0.6482,-0.7152,-0.7809,-0.7724,-0.7493,-0.7241,-0.7195,-0.7048,-0.6642,0.0,0.0,0.0,0.0,0.0,0.0,0.0,0.0,0.0,0.0,0.0,0.0,0.0,0.0,0.0,0.0,0.0,0.0,0.0,0.0,0.0,0.0,0.0,0.0,0.0,0.0,0.0,0.0,0.0,0.0,0.0,0.0,0.0,0.0,0.0,0.0,0.0,0.0,0.0,0.0,-1.6522,-1.7788,-1.9371,-2.0238,-2.0566,-1.9962,-1.9396,-1.8418,0.0,-1.5299,-1.4582,-1.3423,-1.3198,-1.3198,-1.3198,-1.321,-1.3403,-1.4009,-1.4563,-1.5688,-1.7903,0.0,0.0,0.0,0.0,0.0,0.0,0.0,0.0,-2.9429,-3.0533,0.0,-3.0644,-3.122,-3.1881,-3.2544,-3.1669,-3.1646,-3.2558,-3.2558,-3.2593,-3.2593,-3.1929,-3.1605,-3.1592,-3.0918,-3.0609,-3.0691,-3.164,-3.1235,-2.9881,-3.0817,-3.0335,-2.9097,-2.9964,-3.0299,-3.0389,-3.119,-3.1511,-3.1511,0.0,0.0,0.0,0.0,0.0,0.0,0.0,0.0,-0.6966,-0.7182,-0.7272,-0.7287,-0.7203,-0.695,-0.6794,-0.6807,0.0,0.0,0.0,0.0,0.0,0.0,0.0,0.0,0.0,0.0,0.0,0.0,0.0,0.0,0.0,0.0,0.0,0.0,0.0,0.0,0.0,0.0,0.0,0.0,0.0,0.0,0.0,0.0,0.0,0.0,0.0,0.0,0.0,0.0,0.0,0.0,0.0,0.0,0.0,-1.2567,-1.4475,0.0,-1.7313,-1.7978,-1.8404,-1.8215,-1.7451,-1.6471,-1.5399,-1.4739,-1.413,-1.3366,-1.3198,-1.3198,-1.3198,-1.3198,-1.3641,-1.4984,-1.5336,0.0,0.0,0.0,0.0,0.0,0.0,0.0,0.0,0.0,-3.1328,-3.124,-3.2207,-3.2703,-3.2599,-3.2166,-3.171,-3.1261,-3.0951,-3.093,-3.1227,-3.1907,-3.2255,-3.2255,-3.2706,-3.289,-3.2861,-3.2188,-3.2145,-3.254,-3.1955,-3.1675,-3.1623,-3.147,-3.1146,-3.0748,-3.0999,-3.1117,-3.1161,-3.1409,-3.1511,-3.1511,0.0,0.0,0.0,0.0,0.0,0.0,0.0,0.0,-0.6329,-0.6831,-0.6948,-0.7029,-0.7189,-0.6906,-0.6732,-0.6782,0.0,0.0,0.0,0.0,0.0,0.0,0.0,0.0,0.0,0.0,0.0,0.0,0.0,0.0,0.0,0.0,0.0,0.0,0.0,0.0,0.0,0.0,0.0,0.0,0.0,0.0,-0.8298,0.0,0.0,0.0,0.0,0.0,0.0,0.0,0.0,0.0,0.0,0.0,0.0,0.0,-1.2897,-1.4579,0.0,-1.6435,-1.6813,-1.6952,-1.6446,-1.5669,-1.4668,-1.4226,-1.3852,-1.3221,-1.311,-1.314,-1.3195,-1.3476,-1.4063,-1.5178,-1.5685,0.0,0.0,0.0,0.0,0.0,0.0,0.0,0.0,0.0,-3.1507,-3.1432,-3.237,-3.2908,-3.2751,-3.2428,-3.1852,-3.0977,-3.1092,-3.1345,-3.1673,-3.2315,-3.2616,-3.2647,-3.2971,-3.3125,-3.3095,-3.2437,-3.2333,-3.2706,-3.1854,-3.1735,0.0,-3.1675,-3.1511,-3.1511,-3.1511,-3.1511,-3.1511,-3.1511,-3.1511,-3.1511,0.0,0.0,0.0,0.0,0.0,0.0,0.0,0.0,0.0,0.0,0.0,-0.673,-0.71,-0.6986,0.0,0.0,0.0,0.0,0.0,0.0,0.0,0.0,0.0,0.0,0.0,-0.6599,-0.6878,-0.7468,-0.8024,-0.8349,-0.8424,-0.8888,0.0,0.0,0.0,0.0,0.0,0.0,0.0,0.0,0.0,-0.7688,0.0,0.0,0.0,0.0,0.0,0.0,0.0,0.0,0.0,0.0,0.0,0.0,0.0,0.0,0.0,0.0,0.0,-1.5414,-1.5622,-1.5951,-1.6022,-1.5616,-1.3971,-1.3717,0.0,-1.297,-1.2929,-1.308,-1.3238,-1.3977,-1.4678,-1.4967,0.0,0.0,0.0,0.0,0.0,0.0,0.0,0.0,0.0,-2.9776,-3.0611,-3.0385,-3.1411,-3.1897,-3.1512,-3.2079,-3.2123,-3.1525,-3.1857,-3.2484,-3.335,-3.3365,-3.3365,-3.335,-3.2736,-3.2437,-3.2392,-3.178,-3.1511,-3.1511,-3.1511,-3.1511,-3.1511,-3.1511,-3.1511,-3.1511,-3.1511,-3.1511,-3.1511,-3.1511,-3.1511,-3.1511,0.0,0.0,0.0,0.0,0.0,0.0,0.0,0.0,0.0,0.0,0.0,-0.6415,-0.6497,-0.66,0.0,0.0,0.0,0.0,0.0,0.0,0.0,0.0,0.0,0.0,0.0,-0.6599,-0.7087,-0.8087,-0.8225,-0.8725,-0.9516,-0.9227,-0.8737,0.0,0.0,0.0,0.0,0.0,0.0,0.0,-0.6778,-0.6874,0.0,0.0,0.0,0.0,-0.7616,-0.825,0.0,0.0,0.0,0.0,0.0,0.0,0.0,0.0,-1.1405,-1.1966,-1.2815,0.0,-1.3843,-1.3471,-1.3394,-1.3287,0.0,-1.2818,-1.2705,0.0,0.0,-1.3479,-1.3762,-1.4609,-1.5723,0.0,0.0,0.0,0.0,0.0,0.0,0.0,0.0,0.0,0.0,-3.1057,-3.1263,-3.1205,-3.1471,-3.1604,-3.1497,-3.1645,-3.166,-3.1511,-3.1575,-3.1738,-3.1974,-3.1974,-3.1974,-3.1959,-3.1809,-3.1735,-3.1735,-3.157,-3.1511,-3.1511,-3.1511,-3.1511,-3.1511,-3.1511,-3.1511,-3.1511,-3.1511,-3.1511,-3.1511,-3.1511,-3.1511,-3.1511,0.0,0.0,0.0,0.0,0.0,0.0,0.0,0.0,0.0,0.0,0.0,0.0,0.0,0.0,0.0,0.0,0.0,0.0,0.0,0.0,0.0,0.0,0.0,0.0,0.0,-0.6599,-0.7159,-0.8298,-0.8298,-0.8851,-0.9893,-0.9604,0.0,0.0,0.0,0.0,0.0,0.0,0.0,0.0,-0.6599,0.0,0.0,0.0,0.0,0.0,-0.7041,-0.7667,0.0,-0.8489,-0.9241,-1.0199,0.0,0.0,0.0,0.0,-1.1417,-1.1599,-1.1966,-1.2964,-1.3874,-1.3737,-1.3683,-1.3683,-1.3683,0.0,0.0,0.0,0.0,0.0,-1.4588,0.0,0.0,0.0,0.0,0.0,0.0,0.0,0.0,0.0,0.0,0.0,0.0,-3.1511,-3.1511,-3.1511,-3.1511,-3.1511,-3.1511,-3.1511,-3.1511,-3.1511,-3.1511,-3.1511,-3.1511,-3.1511,-3.1511,-3.1511,-3.1511,-3.1511,-3.1511,-3.1511,-3.1511,-3.1511,-3.1511,-3.1511,-3.1511,-3.1511,-3.1511,-3.1511,-3.1511,-3.1511,-3.1511,-3.1511,-3.1511,-3.1511,0.0,0.0,0.0,0.0,0.0,0.0,0.0,0.0,0.0,0.0,0.0,0.0,0.0,0.0,0.0,0.0,0.0,0.0,0.0,0.0,0.0,0.0,0.0,0.0,0.0,0.0,0.0,0.0,0.0,0.0,0.0,0.0,-0.9328,0.0,0.0,0.0,0.0,0.0,0.0,0.0,0.0,0.0,0.0,0.0,0.0,0.0,0.0,0.0,0.0,-0.829,-0.9124,-1.0078,-1.0688,0.0,0.0,0.0,0.0,0.0,-1.1814,-1.3302,-1.4697,-1.473,-1.4906,-1.5036,-1.492,0.0,0.0,0.0,0.0,0.0,0.0,0.0,0.0,0.0,0.0,0.0,0.0,0.0,0.0,0.0,0.0,0.0,-3.1511,-3.1511,-3.1511,-3.1511,-3.1511,-3.1511,-3.1511,-3.1511,-3.1511,-3.1511,-3.1511,-3.1511,-3.1511,-3.1511,-3.1511,-3.1511,-3.1511,-3.1511,-3.1511,-3.1511,-3.1511,-3.1511,-3.1511,-3.1511,-3.1511,-3.1511,-3.1511,-3.1511,-3.1511,-3.1511,-3.1511,-3.1511,-3.1511,-3.1496,0.0,0.0,0.0,0.0,0.0,0.0,0.0,0.0,0.0,0.0,0.0,0.0,0.0,0.0,0.0,0.0,0.0,0.0,0.0,0.0,0.0,0.0,0.0,0.0,0.0,0.0,0.0,0.0,0.0,0.0,-0.9227,-0.9692,-0.9328,-0.8273,0.0,0.0,0.0,0.0,0.0,-0.6599,0.0,0.0,0.0,0.0,0.0,0.0,0.0,0.0,0.0,-0.738,-0.8584,-1.016,-0.9217,0.0,0.0,0.0,0.0,0.0,-1.2328,-1.4089,-1.5209,-1.3557,-1.4016,-1.4701,-1.4124,0.0,0.0,0.0,0.0,0.0,0.0,0.0,0.0,0.0,0.0,0.0,0.0,0.0,0.0,0.0,0.0,-3.1511,-3.1511,-3.1511,-3.1511,-3.1511,-3.1511,-3.1511,-3.1511,-3.1511,-3.1511,-3.1511,-3.1511,-3.1511,-3.1511,-3.1511,-3.1511,-3.1511,-3.1511,-3.1511,-3.1511,-3.1511,-3.1511,-3.1511,-3.1511,-3.1511,-3.1511,-3.1511,-3.1511,-3.1511,-3.1511,-3.1511,-3.1511,-3.1511,-3.1511,-3.1421,0.0,0.0,0.0,0.0,0.0,0.0,0.0,0.0,0.0,0.0,0.0,0.0,0.0,0.0,0.0,0.0,0.0,0.0,0.0,0.0,0.0,0.0,0.0,0.0,0.0,0.0,0.0,0.0,0.0,-0.9001,-0.9529,-0.919,-0.8776,-0.8261,0.0,0.0,0.0,0.0,0.0,-0.6757,0.0,0.0,0.0,0.0,0.0,0.0,0.0,0.0,0.0,0.0,-0.8599,-0.9545,-0.9328,0.0,0.0,0.0,0.0,0.0,-1.1461,-1.3181,-1.4586,-1.4017,-1.5126,-1.6368,-1.6443,0.0,0.0,0.0,0.0,0.0,0.0,0.0,0.0,0.0,0.0,0.0,0.0,0.0,0.0,0.0,0.0,-3.0477,-3.0477,-3.0477,-3.0477,-3.0477,-3.0477,-3.0477,-3.0477,-3.0477,-3.0477,-3.0477,-3.0477,-3.0477,-3.0477,-3.0806,-3.1137,-3.1511,-3.1511,-3.1511,-3.1511,-3.1511,-3.1511,-3.1511,-3.1511,-3.1511,-3.1511,-3.1511,-3.1511,-3.1511,-3.1511,-3.1511,-3.1466,-3.1077,-3.0943,-3.0881,0.0,0.0,0.0,0.0,0.0,0.0,0.0,0.0,0.0,0.0,0.0,0.0,0.0,0.0,0.0,0.0,0.0,0.0,0.0,0.0,0.0,0.0,0.0,0.0,0.0,0.0,-0.7691,-0.8298,-0.8917,-0.9435,-0.9805,-0.8828,-0.8276,-0.8049,0.0,0.0,0.0,0.0,-0.6828,-0.6963,0.0,0.0,0.0,0.0,0.0,0.0,0.0,0.0,0.0,0.0,0.0,0.0,0.0,0.0,0.0,-0.9659,-0.9659,-0.9899,-1.0982,-1.2512,-1.4021,-1.5007,-1.6368,-1.7667,-1.8506,0.0,0.0,0.0,0.0,0.0,0.0,0.0,0.0,0.0,0.0,0.0,0.0,0.0,0.0,-2.8607,-2.9175,-2.9606,-2.9606,-2.9606,-2.9606,-2.9606,-2.9606,-2.9606,-2.9606,-2.9606,-2.9606,-2.9606,-2.9606,-2.9606,-2.9606,-3.0058,-3.0552,-3.1047,-3.1197,-3.1182,-3.1047,-3.1047,-3.1047,-3.1047,-3.1047,-3.1047,-3.1047,-3.1047,-3.1047,-3.1047,-3.1047,-3.1047,-3.0987,-3.0477,-3.0283,-3.0193,0.0,0.0,0.0,0.0,0.0,0.0,0.0,0.0,0.0,0.0,0.0,0.0,0.0,0.0,0.0,0.0,0.0,0.0,0.0,0.0,0.0,0.0,0.0,0.0,0.0,-0.7381,-0.7691,-0.8298,-0.9156,-0.958,-0.9606,-0.8906,-0.8177,-0.7475,0.0,0.0,0.0,0.0,-0.717,-0.7186,-0.7186,0.0,0.0,0.0,0.0,0.0,0.0,0.0,0.0,0.0,0.0,0.0,0.0,0.0,-0.898,-0.898,-0.898,-0.9512,-1.1991,-1.3223,-1.4246,-1.6099,-1.6666,0.0,-1.8418,-1.8627,0.0,0.0,0.0,0.0,0.0,0.0,0.0,0.0,0.0,0.0,0.0,0.0,-2.8607,-2.8607,-2.9175,-2.9606,-2.9606,-2.9606,-2.9606,-2.9606,-2.9606,-2.9606,-2.9606,-2.9606,-2.9606,-2.9606,-2.9606,-2.9606,-2.9606,-2.9651,-2.9696,-2.9729,-3.0298,-3.0283,-2.9756,-2.9756,-2.9756,-2.9756,-2.9756,-2.9756,-2.9756,-2.9756,-2.9756,-2.9756,-2.9756,-2.9756,-2.9714,-2.9696,-2.9666,-2.9577,0.0,0.0,0.0,0.0,0.0,0.0,0.0,0.0,0.0,0.0,0.0,0.0,0.0,0.0,0.0,0.0,0.0,0.0,0.0,0.0,0.0,0.0,0.0,-0.7136,-0.7636,-0.7978,-0.8265,-0.8484,-0.8819,-0.8978,-0.8964,-0.8378,0.0,0.0,0.0,0.0,0.0,0.0,0.0,-0.7454,-0.7454,-0.7356,0.0,0.0,0.0,0.0,0.0,0.0,0.0,0.0,-0.8012,-0.8237,-0.7974,-0.8064,-0.8282,-0.8282,-0.8282,-0.8679,-1.0498,-1.2055,-1.3658,-1.5635,-1.6742,0.0,0.0,0.0,0.0,0.0,0.0,0.0,0.0,0.0,0.0,0.0,0.0,0.0,0.0,-2.7824,-2.7989,-2.7989,-2.8199,-2.8364,-2.8364,-2.8364,-2.8364,-2.8364,-2.8364,-2.8364,-2.8364,-2.8364,-2.8364,-2.8364,-2.8364,-2.8364,-2.8364,-2.8757,-2.8783,-2.8364,-2.9415,-2.9804,-2.9606,-2.9606,-2.9606,-2.9606,-2.9606,-2.9606,-2.9606,-2.9606,-2.9606,-2.9606,-2.9606,-2.9606,-2.9562,-2.9131,-2.8966,-2.8876,0.0,0.0,0.0,0.0,0.0,0.0,0.0,0.0,0.0,0.0,0.0,0.0,0.0,0.0,0.0,0.0,0.0,0.0,0.0,0.0,0.0,0.0,0.0,-0.7277,-0.7873,-0.8326,-0.8592,-0.8697,-0.8522,-0.8488,-0.8586,0.0,0.0,0.0,0.0,0.0,0.0,0.0,0.0,0.0,-0.7694,-0.759,0.0,0.0,0.0,0.0,0.0,0.0,0.0,0.0,-0.7899,-0.7899,-0.7899,-0.7899,-0.7944,-0.8162,-0.8364,-0.8821,-1.0129,-1.1786,-1.3553,0.0,0.0,0.0,0.0,0.0,0.0,0.0,0.0,0.0,0.0,0.0,0.0,0.0,0.0,0.0,-2.751,-2.76,-2.76,-2.76,-2.76,-2.76,-2.76,-2.76,-2.76,-2.76,-2.76,-2.76,-2.76,-2.76,-2.76,-2.76,-2.76,-2.76,-2.76,-2.8064,-2.8064,-2.76,-2.8528,-2.8978,-2.8978,-2.8978,-2.8978,-2.8978,-2.8978,-2.8978,-2.8978,-2.8978,-2.8978,-2.8978,-2.8978,-2.8978,-2.8918,-2.8442,-2.8278,-2.8203,0.0,0.0,0.0,0.0,0.0,0.0,0.0,0.0,0.0,0.0,0.0,0.0,0.0,0.0,0.0,0.0,0.0,0.0,0.0,0.0,0.0,0.0,0.0,-0.7491,-0.809,-0.8298,-0.8557,-0.8897,-0.8355,-0.8268,-0.8582,-0.7908,0.0,0.0,0.0,0.0,0.0,0.0,0.0,0.0,-0.7899,-0.7899,-0.7899,0.0,0.0,0.0,0.0,0.0,0.0,0.0,-0.7899,-0.7899,-0.7899,-0.7914,-0.8049,-0.8694,-0.9368,-1.0174,-1.1446,-1.2777,0.0,0.0,0.0,0.0,0.0,0.0,0.0,0.0,0.0,0.0,0.0,0.0,0.0,0.0,0.0,-2.6811,-2.751,-2.76,-2.76,-2.76,-2.76,-2.76,-2.76,-2.76,-2.76,-2.76,-2.76,-2.76,-2.76,-2.76,-2.76,-2.76,-2.76,-2.76,-2.76,-2.76,-2.76,-2.76,-2.76,-2.76,-2.76,-2.76,-2.76,-2.76,-2.76,-2.76,-2.76,-2.76,-2.76,-2.76,-2.76,-2.76,-2.76,-2.76,-2.76,-2.76,0.0,0.0,0.0,0.0,0.0,0.0,0.0,0.0,0.0,0.0,0.0,0.0,0.0,0.0,0.0,0.0,0.0,0.0,0.0,0.0,0.0,0.0,0.0,0.0,0.0,0.0,-0.8207,-0.8552,-0.801,-0.7801,0.0,0.0,0.0,-0.7493,0.0,0.0,0.0,0.0,0.0,0.0,-0.7899,-0.7899,-0.7899,0.0,0.0,0.0,0.0,0.0,0.0,0.0,0.0,0.0,-0.7899,-0.8551,-0.9165,-0.8409,-0.9315,-1.0613,-1.1002,-1.2751,0.0,0.0,0.0,0.0,0.0,0.0,0.0,0.0,0.0,0.0,0.0,0.0,0.0,-2.5465,-2.6153,-2.6811,-2.751,-2.76,-2.76,-2.76,-2.76,-2.76,-2.76,-2.76,-2.76,-2.76,-2.76,-2.76,-2.76,-2.76,-2.76,-2.76,-2.76,-2.76,-2.76,-2.76,-2.76,-2.76,-2.76,-2.76,-2.76,-2.76,-2.76,-2.76,-2.76,-2.76,-2.76,-2.76,-2.76,-2.76,-2.76,-2.76,-2.76,-2.76,-2.76,-2.76,0.0,0.0,0.0,0.0,0.0,0.0,0.0,0.0,0.0,0.0,0.0,-0.3809,0.0,0.0,0.0,0.0,0.0,0.0,0.0,0.0,0.0,-0.7605,0.0,0.0,0.0,-0.7841,-0.799,0.0,0.0,0.0,0.0,0.0,0.0,-0.7724,0.0,-0.7899,0.0,0.0,0.0,0.0,-0.7899,-0.7899,-0.7899,0.0,0.0,0.0,0.0,0.0,0.0,0.0,0.0,0.0,-0.7899,-0.8446,-0.9078,-0.8934,-1.0082,-1.1602,-1.2577,0.0,0.0,0.0,0.0,0.0,0.0,0.0,0.0,0.0,0.0,0.0,0.0,0.0,0.0,-2.5128,-2.5779,-2.6333,-2.6761,-2.6821,-2.6821,-2.6821,-2.6821,-2.6821,-2.6821,-2.6821,-2.6821,-2.6821,-2.6821,-2.6821,-2.6821,-2.6821,-2.6821,-2.6821,-2.7061,-2.721,-2.721,-2.7465,-2.76,-2.76,-2.76,-2.76,-2.76,-2.76,-2.76,-2.76,-2.76,-2.76,-2.76,-2.76,-2.76,-2.76,-2.76,-2.76,-2.76,-2.76,-2.76,-2.76,0.0,0.0,-0.4185,-0.4112,0.0,0.0,0.0,0.0,0.0,0.0,-0.373,-0.3763,0.0,0.0,0.0,-0.5773,0.0,0.0,0.0,0.0,-0.7635,-0.7635,-0.7635,-0.7724,-0.7921,0.0,0.0,0.0,0.0,0.0,0.0,0.0,-0.7899,-0.7899,0.0,-0.7899,0.0,0.0,0.0,0.0,-0.7906,-0.7906,-0.7921,-0.7906,0.0,0.0,0.0,0.0,0.0,0.0,0.0,0.0,-0.7928,-0.7996,-0.8379,-0.9773,-1.1244,-1.2874,0.0,0.0,0.0,0.0,0.0,0.0,0.0,0.0,0.0,0.0,0.0,0.0,0.0,0.0,-2.4672,-2.4672,-2.528,-2.574,-2.567,-2.567,-2.5646,-2.5615,-2.5615,-2.5615,-2.5615,-2.5615,-2.5615,-2.5615,-2.5615,-2.5615,-2.5615,-2.5615,-2.5615,-2.5615,-2.6183,-2.6497,-2.6497,-2.7121,-2.742,-2.742,-2.742,-2.742,-2.742,-2.754,-2.76,-2.76,-2.76,-2.7625,-2.7685,-2.7685,-2.7685,-2.7685,-2.7685,-2.765,-2.7625,-2.766,-2.7685,-2.7685,0.0,0.0,-0.4185,-0.4112,0.0,0.0,0.0,0.0,-0.3876,-0.3836,-0.3814,-0.3813,-0.3825,-0.381,0.0,-0.5773,-0.5903,0.0,0.0,0.0,-0.7841,-0.7841,-0.7841,-0.7898,-0.8049,-0.7956,-0.7956,-0.8056,-0.7956,0.0,0.0,0.0,0.0,-0.7899,0.0,-0.7899,0.0,0.0,0.0,-0.8043,-0.7941,-0.7955,-0.8036,-0.7941,-0.7962,0.0,0.0,0.0,0.0,0.0,0.0,0.0,-0.8113,-0.8781,-0.9487,-0.8792,-1.0725,-1.324,0.0,0.0,0.0,0.0,0.0,0.0,0.0,0.0,0.0,0.0,0.0,0.0,0.0,-2.4483,-2.5222,-2.5222,-2.6146,-2.6707,-2.6303,-2.6235,-2.6077,-2.5646,-2.5615,-2.5615,-2.5615,-2.5615,-2.5615,-2.5615,-2.5615,-2.5615,-2.5615,-2.5615,-2.5615,-2.5615,-2.5749,-2.5824,-2.5824,-2.5959,-2.6033,-2.6033,-2.6033,-2.6033,-2.6063,-2.7121,-2.76,-2.76,-2.76,-2.7885,-2.831,-2.831,-2.831,-2.831,-2.831,-2.8018,-2.766,-2.814,-2.831,-2.8367,0.0,0.0,0.0,0.0,0.0,0.0,0.0,0.0,-0.3891,-0.3858,-0.3851,-0.3847,-0.3855,-0.3851,0.0,0.0,-0.5709,-0.6326,0.0,0.0,0.0,0.0,-0.8004,-0.8072,-0.8247,-0.8079,-0.803,0.0,0.0,0.0,0.0,0.0,0.0,-0.8379,0.0,-0.8492,0.0,0.0,-0.8037,-0.8095,-0.8128,-0.8182,-0.824,-0.8162,-0.8182,-0.8247,-0.8247,0.0,0.0,0.0,0.0,0.0,0.0,0.0,-0.931,-0.9415,-1.0985,-1.3028,0.0,0.0,0.0,0.0,0.0,0.0,0.0,0.0,0.0,0.0,0.0,0.0,0.0,-2.4869,-2.5302,-2.5302,-2.5826,-2.6145,-2.5858,-2.5832,-2.5712,-2.5431,-2.5173,-2.5028,-2.5028,-2.4784,-2.4642,-2.4642,-2.4642,-2.4642,-2.4642,-2.4642,-2.4642,-2.4642,-2.4948,-2.5113,-2.5113,-2.5689,-2.5963,-2.5963,-2.5963,-2.5963,-2.5994,-2.6423,-2.6821,-2.7121,-2.7121,-2.7655,-2.8487,-2.8487,-2.8662,-2.8943,-2.8943,-2.8756,-2.8496,-2.881,-2.8943,-2.8989,0.0,0.0,0.0,0.0,0.0,0.0,0.0,0.0,0.0,-0.3828,-0.3873,-0.3877,-0.3828,-0.3858,-0.4167,0.0,0.0,0.0,-0.6846,0.0,0.0,0.0,-0.8158,-0.8234,-0.8403,-0.8198,-0.8109,0.0,0.0,0.0,0.0,0.0,0.0,-0.8921,0.0,0.0,0.0,0.0,-0.8178,-0.8218,-0.8348,-0.8428,-0.8454,-0.8422,-0.8428,-0.8454,-0.8454,-0.8457,-0.8482,-0.8482,0.0,0.0,0.0,0.0,-0.8724,-1.0105,-1.1129,-1.2406,0.0,0.0,0.0,0.0,0.0,0.0,0.0,0.0,0.0,0.0,0.0,0.0,0.0,-2.5278,-2.5335,-2.5335,-2.5411,-2.543,-2.5354,-2.5335,-2.5297,-2.5221,-2.4812,-2.4552,-2.4552,-2.4137,-2.3879,-2.3879,-2.3879,-2.3879,-2.3879,-2.3879,-2.3879,-2.3879,-2.4403,-2.4684,-2.4684,-2.57,-2.6196,-2.6196,-2.6196,-2.6196,-2.6175,-2.5726,-2.5962,-2.6704,-2.6704,-2.7363,-2.8435,-2.8435,-2.874,-2.9187,-2.9315,-2.9281,-2.923,-2.947,-2.9563,-2.9563,0.0,0.0,0.0,0.0,0.0,0.0,0.0,0.0,0.0,0.0,-0.3898,-0.3902,-0.3888,-0.3898,-0.4167,-0.4837,-0.4987,-0.5566,0.0,0.0,0.0,0.0,-0.8361,-0.8367,-0.8409,-0.8198,-0.8185,0.0,0.0,0.0,0.0,0.0,0.0,-0.8914,0.0,0.0,0.0,0.0,-0.8457,-0.8604,-0.8467,-0.8504,-0.8645,-0.8467,-0.8511,-0.8663,-0.8663,-0.8736,-0.8835,-0.8835,-0.8835,0.0,0.0,0.0,0.0,-0.893,-0.9964,0.0,0.0,0.0,0.0,0.0,0.0,0.0,0.0,0.0,0.0,0.0,0.0,0.0,-2.5297,-2.5577,-2.5888,-2.5888,-2.6228,-2.6367,-2.5943,-2.5888,-2.5726,-2.5259,-2.5144,-2.5105,-2.5105,-2.5028,-2.4989,-2.4989,-2.4989,-2.4989,-2.4989,-2.4989,-2.4989,-2.4989,-2.5068,-2.5132,-2.5132,-2.5286,-2.5357,-2.5357,-2.5357,-2.5357,-2.5373,-2.5294,-2.5928,-2.7115,-2.7115,-2.7502,-2.8155,-2.8155,-2.8196,-2.8341,-2.8985,-2.8923,-2.858,-2.975,-3.0187,-3.0251,0.0,0.0,0.0,0.0,0.0,0.0,0.0,0.0,0.0,0.0,0.0,-0.4455,-0.4455,-0.4455,-0.4425,-0.435,-0.4683,0.0,0.0,0.0,0.0,0.0,0.0,-0.861,-0.8684,-0.8516,0.0,0.0,0.0,0.0,0.0,-1.0897,-1.1278,0.0,0.0,0.0,0.0,0.0,0.0,-0.8699,-0.8678,-0.9236,-0.9951,-0.9035,-0.9253,-0.9941,-0.9119,-0.8858,-0.8897,-0.8897,-0.8897,-0.8886,-0.8835,0.0,0.0,0.0,0.0,0.0,0.0,0.0,0.0,0.0,0.0,0.0,0.0,0.0,0.0,0.0,0.0,0.0,-2.4861,-2.5329,-2.5765,-2.5765,-2.6303,-2.6641,-2.6419,-2.6384,-2.6298,-2.607,-2.5817,-2.5652,-2.5652,-2.5373,-2.5202,-2.5202,-2.5202,-2.5202,-2.5202,-2.5202,-2.5202,-2.5202,-2.5202,-2.5202,-2.5202,-2.5503,-2.5652,-2.5652,-2.591,-2.5908,-2.5652,-2.5926,-2.6243,-2.6632,-2.6632,-2.7203,-2.8112,-2.8112,-2.8288,-2.8641,-2.8958,-2.8924,-2.8761,-2.9349,-2.956,-2.9616,0.0,0.0,0.0,0.0,0.0,0.0,0.0,0.0,0.0,0.0,0.0,-0.4972,-0.5132,0.0,0.0,0.0,-0.4523,0.0,0.0,0.0,0.0,0.0,0.0,0.0,-0.8858,-0.8742,0.0,0.0,0.0,0.0,-1.0985,-1.1886,-1.2999,0.0,-1.2921,0.0,0.0,0.0,0.0,-0.9326,-0.9425,-1.0128,-1.1018,-1.0314,-1.0737,-1.1492,-0.9992,0.0,0.0,0.0,0.0,0.0,0.0,0.0,0.0,0.0,0.0,0.0,0.0,0.0,0.0,0.0,0.0,0.0,0.0,0.0,0.0,0.0,0.0,-2.3949,-2.3949,-2.4695,-2.5321,-2.5321,-2.5778,-2.6149,-2.6149,-2.6149,-2.6149,-2.6149,-2.5999,-2.5908,-2.5908,-2.5537,-2.5285,-2.5285,-2.5123,-2.5009,-2.5009,-2.5009,-2.5106,-2.5303,-2.5285,-2.5401,-2.558,-2.5979,-2.6191,-2.6191,-2.6522,-2.6521,-2.6191,-2.6556,-2.6563,-2.6332,-2.6332,-2.6872,-2.7744,-2.7744,-2.802,-2.8434,-2.862,-2.8687,-2.8722,-2.8925,-2.8993,-2.8993,0.0,0.0,0.0,0.0,0.0,0.0,0.0,0.0,0.0,0.0,0.0,-0.5147,-0.5784,-0.5392,-0.5082,-0.5036,-0.4547,0.0,0.0,0.0,0.0,0.0,0.0,0.0,0.0,0.0,0.0,0.0,0.0,0.0,-1.2206,-1.2272,-1.3455,-1.5431,-1.3979,-1.2446,-1.0891,0.0,0.0,-1.0971,-1.0978,-1.1035,-1.1255,-1.2651,-1.321,-1.3074,-1.1543,0.0,0.0,0.0,0.0,0.0,0.0,0.0,0.0,0.0,0.0,0.0,0.0,0.0,0.0,0.0,0.0,0.0,0.0,0.0,0.0,0.0,0.0,-2.2398,-2.2398,-2.3579,-2.4558,-2.4558,-2.4592,-2.4609,-2.4609,-2.4609,-2.4609,-2.4609,-2.5204,-2.5611,-2.5611,-2.5594,-2.5578,-2.5578,-2.492,-2.4547,-2.4547,-2.4547,-2.4852,-2.5561,-2.5578,-2.5899,-2.6607,-2.6657,-2.6657,-2.6657,-2.6691,-2.6691,-2.6657,-2.6691,-2.6691,-2.6674,-2.6674,-2.6708,-2.6776,-2.6776,-2.6793,-2.6877,-2.7587,-2.7858,-2.7959,-2.8722,-2.8993,-2.8993,0.0,0.0,0.0,0.0,0.0,0.0,0.0,0.0,0.0,0.0,0.0,0.0,0.0,-0.6684,-0.6401,-0.5979,-0.6253,0.0,0.0,0.0,0.0,0.0,0.0,0.0,0.0,0.0,0.0,0.0,0.0,-0.9514,-1.0835,-1.1316,-1.1705,-1.2036,-1.2483,-1.2611,-1.2369,-1.0203,0.0,0.0,-1.1103,-1.1975,0.0,-1.3371,-1.398,-1.4623,0.0,0.0,0.0,0.0,0.0,0.0,-0.9607,-0.9275,-0.8897,-0.8897,0.0,0.0,0.0,0.0,0.0,0.0,0.0,0.0,0.0,0.0,0.0,0.0,0.0,-2.2296,-2.2296,-2.3122,-2.3797,-2.3797,-2.4186,-2.4491,-2.4491,-2.4491,-2.4491,-2.4491,-2.4728,-2.4897,-2.4897,-2.4897,-2.4897,-2.4897,-2.4643,-2.4491,-2.4491,-2.4491,-2.4626,-2.4897,-2.4897,-2.5032,-2.5286,-2.5761,-2.5998,-2.5998,-2.6471,-2.6691,-2.6691,-2.6691,-2.6691,-2.6691,-2.6691,-2.6691,-2.6691,-2.6691,-2.6691,-2.6725,-2.6996,-2.7097,-2.7131,-2.7436,-2.752,-2.752,0.0,0.0,0.0,-0.708,0.0,-0.6209,-0.6493,-0.6001,-0.6036,-0.7248,0.0,0.0,0.0,0.0,-0.7188,-0.6549,-0.7254,-0.774,-0.774,0.0,0.0,0.0,0.0,0.0,0.0,0.0,0.0,0.0,0.0,0.0,0.0,-1.0497,-1.0599,-1.0396,-1.1173,-1.2094,0.0,0.0,0.0,-1.1898,0.0,0.0,-1.4554,0.0,-1.5707,0.0,0.0,0.0,0.0,0.0,0.0,0.0,0.0,-0.9698,-0.8897,-0.8897,-0.8897,0.0,0.0,0.0,0.0,0.0,0.0,0.0,0.0,0.0,0.0,0.0,0.0,-2.2296,-2.2296,-2.2699,-2.3038,-2.3038,-2.3427,-2.3763,-2.3763,-2.3763,-2.3763,-2.3763,-2.3983,-2.4135,-2.4135,-2.4135,-2.4135,-2.4135,-2.3898,-2.3763,-2.3763,-2.3763,-2.3881,-2.4118,-2.4372,-2.4491,-2.4491,-2.4983,-2.5236,-2.5236,-2.5727,-2.6082,-2.6336,-2.6336,-2.6471,-2.6691,-2.6691,-2.6691,-2.6691,-2.6691,-2.6691,-2.6691,-2.6691,-2.6691,-2.6691,-2.6691,-2.6691,-2.6691,-0.8897,-0.8897,-0.8649,-0.7875,-0.7721,-0.7424,-0.6606,-0.6456,-0.6673,-0.7356,0.0,0.0,0.0,0.0,0.0,-0.6807,-0.7421,-0.7831,-0.7831,-0.8502,0.0,0.0,0.0,0.0,0.0,0.0,0.0,0.0,0.0,0.0,0.0,0.0,-1.0345,-1.0994,-1.0311,-1.0835,-1.2229,0.0,-1.266,-1.3464,0.0,-1.4504,-1.4909,0.0,0.0,0.0,-1.7044,-1.6326,0.0,-1.4066,0.0,0.0,0.0,-1.0104,-0.8931,-0.8914,-0.8914,0.0,0.0,0.0,0.0,0.0,0.0,0.0,0.0,0.0,0.0,0.0,0.0,-2.2245,-2.2262,-2.2279,-2.2296,-2.2296,-2.2296,-2.2296,-2.2296,-2.2296,-2.2296,-2.2296,-2.2936,-2.3359,-2.3359,-2.3359,-2.3359,-2.3359,-2.2699,-2.2296,-2.2296,-2.2296,-2.2632,-2.3342,-2.4068,-2.444,-2.444,-2.4457,-2.4457,-2.4457,-2.4491,-2.488,-2.5575,-2.5575,-2.5981,-2.6657,-2.6657,-2.6674,-2.6691,-2.6691,-2.6691,-2.6691,-2.6691,-2.6691,-2.6691,-2.6691,-2.6691,-2.6691,-0.8897,-0.8897,-0.8824,-0.861,-0.8085,-0.782,-0.8146,-0.7714,-0.7617,0.0,0.0,0.0,-0.8749,-0.8616,-0.8453,-0.831,-0.8485,-0.8586,-0.8586,-0.8795,-0.8897,-0.8897,-0.8897,0.0,0.0,0.0,0.0,0.0,0.0,0.0,0.0,0.0,0.0,0.0,-0.9855,-1.0244,-1.0599,-1.007,0.0,0.0,-1.3041,-1.4504,0.0,0.0,0.0,0.0,0.0,-1.8768,-1.8287,0.0,-1.6545,-1.4587,0.0,0.0,0.0,-0.9061,-0.9275,0.0,-0.9044,0.0,0.0,0.0,0.0,0.0,0.0,0.0,0.0,0.0,0.0,-2.0809,-2.1397,-2.1938,-2.2296,-2.2296,-2.2296,-2.2296,-2.2296,-2.2296,-2.2296,-2.2296,-2.2482,-2.26,-2.26,-2.26,-2.26,-2.26,-2.2429,-2.2296,-2.2296,-2.2296,-2.2381,-2.2598,-2.2801,-2.2919,-2.2919,-2.3427,-2.3697,-2.3712,-2.4254,-2.4609,-2.4795,-2.4795,-2.5203,-2.5913,-2.5913,-2.6201,-2.6691,-2.6691,-2.6691,-2.6691,-2.6691,-2.6691,-2.6691,-2.6691,-2.6691,-2.6691,-0.8897,-0.8897,-0.8897,-0.8897,-0.8515,-0.8364,-0.8824,-0.8498,-0.8369,0.0,0.0,0.0,-0.8897,-0.9179,-0.9224,-0.8931,-0.8897,-0.8897,-0.8897,-0.8897,-0.8897,-0.8897,-0.8957,-0.899,0.0,0.0,0.0,0.0,0.0,0.0,0.0,0.0,0.0,0.0,-0.9372,-0.9576,-0.96,0.0,0.0,0.0,-1.3481,0.0,0.0,-1.8529,-1.9463,0.0,0.0,0.0,-1.988,-2.0015,-1.85,0.0,0.0,-1.2126,-1.1214,-1.0121,-1.0352,0.0,0.0,0.0,0.0,0.0,0.0,0.0,0.0,-1.4505,0.0,0.0,0.0,-1.9676,-2.0158,-2.0839,-2.1451,-2.1786,-2.1837,-2.1955,-2.2245,-2.2296,-2.2296,-2.2296,-2.2296,-2.2296,-2.2296,-2.2296,-2.2296,-2.2296,-2.2296,-2.2296,-2.2296,-2.2296,-2.2296,-2.2296,-2.2296,-2.2296,-2.2296,-2.2733,-2.2936,-2.2953,-2.3376,-2.3731,-2.4051,-2.4051,-2.444,-2.5135,-2.5135,-2.5558,-2.6234,-2.6234,-2.642,-2.6691,-2.6691,-2.6691,-2.6691,-2.6691,-2.6691,-2.6691,0.0,-0.8897,-0.8897,-0.8897,-0.8897,-0.8897,-0.8897,-0.8897,-0.8897,0.0,-0.8965,-0.9044,-0.9134,-0.9658,-0.9737,-0.9078,-0.8959,-0.8919,-0.8919,-0.8936,-0.8946,-0.8946,-0.9069,-0.9114,-0.9114,0.0,0.0,0.0,0.0,0.0,0.0,0.0,0.0,-0.9109,-0.9001,-0.9017,-0.9131,0.0,0.0,-1.2536,-1.45,-1.5989,0.0,0.0,-2.0576,-2.0924,-2.1876,-2.1625,-2.0899,-2.11,-1.9625,0.0,0.0,-1.4552,-1.3419,-1.1819,-1.1938,0.0,-1.1584,-1.1424,0.0,0.0,0.0,0.0,-1.4394,-1.4285,-1.4031,0.0,0.0,0.0,-1.8521,-1.9135,-1.9896,-2.0699,-2.0953,-2.136,-2.2178,-2.2296,-2.2296,-2.2296,-2.2296,-2.2296,-2.2296,-2.2296,-2.2296,-2.2296,-2.2296,-2.2296,-2.2296,-2.2296,-2.2296,-2.2296,-2.2296,-2.2296,-2.2296,-2.2296,-2.2296,-2.2296,-2.2296,-2.2634,-2.3274,-2.3274,-2.3678,-2.4372,-2.4372,-2.4812,-2.549,-2.549,-2.5964,-2.6691,-2.6691,-2.6691,-2.6691,-2.6691,-2.6691,-2.6691,-0.8897,-0.8897,-0.8897,-0.8897,-0.8897,-0.8897,-0.8897,-0.8897,-0.8897,-0.8897,-0.9427,-1.0007,-1.0612,-1.0261,-0.9933,-0.9804,-0.9332,-0.9052,-0.9052,-0.9154,-0.9213,-0.9213,-0.9237,-0.9252,-0.9252,-0.9139,0.0,0.0,0.0,0.0,0.0,0.0,0.0,0.0,-0.9228,-0.9228,-0.934,0.0,0.0,-1.273,-1.3173,0.0,-1.917,-1.9737,-2.1081,-2.2706,-2.2911,-2.3025,-2.2988,-2.2461,-2.1563,-2.0218,0.0,0.0,-1.5441,-1.351,-1.3629,-1.419,-1.3208,-1.3379,-1.3625,-1.2737,0.0,0.0,-1.2229,-1.3176,-1.4064,0.0,0.0,0.0,0.0,-1.6857,-1.7602,-1.8352,-1.9456,-2.0724,-2.211,-2.2296,-2.2296,-2.2296,-2.2296,-2.2296,-2.2296,-2.2296,-2.2296,-2.2296,-2.2296,-2.2296,-2.2296,-2.2296,-2.2296,-2.2296,-2.2296,-2.2296,-2.2296,-2.2296,-2.2296,-2.2296,-2.2296,-2.2381,-2.2499,-2.2499,-2.2919,-2.3613,-2.3613,-2.4034,-2.4711,-2.4711,-2.5506,-2.6691,-2.6691,-2.6691,-2.6691,-2.6691,-2.6691,-2.6691,-0.8897,-0.8897,-0.8897,-0.8897,-0.8897,-0.8897,-0.8897,-0.8897,-0.9027,-0.941,-1.0436,-1.1147,-1.1096,-1.0775,-1.0429,-1.0124,-0.9485,-0.9124,-0.9189,-0.9269,-0.9307,-0.9307,-0.9367,-0.9399,-0.9399,-0.9456,-0.9504,0.0,0.0,0.0,0.0,-0.9335,0.0,0.0,0.0,0.0,0.0,0.0,-1.1255,-1.252,-1.4392,0.0,-1.9863,-2.0827,-2.2138,-2.3459,-2.3649,-2.3806,-2.3745,-2.2399,-2.172,0.0,0.0,-1.8128,-1.7755,0.0,-1.6115,-1.6518,-1.5243,-1.5175,-1.5323,-1.4822,0.0,0.0,0.0,-1.3379,-1.3515,-1.387,0.0,0.0,0.0,0.0,-1.6942,-1.7693,-1.8729,-1.971,-2.05,-2.1262,-2.1752,-2.1752,-2.1752,-2.1752,-2.1752,-2.209,-2.2296,-2.2296,-2.2296,-2.2296,-2.2296,-2.2296,-2.2296,-2.2296,-2.2296,-2.2296,-2.2296,-2.2296,-2.2296,-2.2296,-2.2296,-2.2296,-2.2296,-2.2296,-2.2499,-2.2852,-2.2852,-2.3359,-2.4198,-2.4198,-2.4848,-2.5844,-2.5672,-2.5828,-2.615,-2.615,-2.6387,-2.6691,-0.8936,-0.8941,-0.893,-0.8902,-0.8897,-0.8897,-0.8897,-0.8897,-0.9213,-1.0092,-1.1579,-1.2381,-1.1885,-1.1867,0.0,0.0,-1.0364,-0.9842,-0.9794,0.0,-0.9542,-0.9376,-0.9487,-0.9538,-0.9538,-0.9641,-0.9702,0.0,0.0,0.0,-0.9534,-0.9421,-0.9789,-1.049,0.0,0.0,0.0,0.0,0.0,-1.2922,0.0,-1.8262,-1.9468,-2.143,-2.2674,-2.341,-2.3994,-2.419,-2.3941,-2.2205,-2.1668,-2.1434,-1.9819,-1.9705,0.0,0.0,0.0,0.0,0.0,0.0,0.0,0.0,0.0,-1.4896,0.0,0.0,0.0,-1.4588,0.0,0.0,0.0,0.0,0.0,0.0,0.0,0.0,0.0,-1.9244,0.0,-2.0513,-2.0801,-2.097,-2.097,-2.1515,-2.1975,-2.2279,-2.2026,-2.1992,-2.2279,-2.2296,-2.2296,-2.2296,-2.2296,-2.2296,-2.2296,-2.2296,-2.2296,-2.2296,-2.2296,-2.2296,-2.2296,-2.2296,-2.2296,-2.231,-2.2346,-2.2863,-2.3669,-2.3736,-2.4128,-2.466,-2.4611,-2.4925,-2.5389,-2.5389,-2.5761,-2.6285,-0.9047,-0.9068,-0.9048,-0.8919,-0.8897,-0.8897,-0.8897,-0.8897,-0.9399,-1.0791,-1.2464,-1.3775,0.0,0.0,0.0,0.0,0.0,0.0,-1.1642,0.0,0.0,-0.9682,-0.9675,-0.9683,-0.9683,-0.9694,-0.9702,0.0,0.0,0.0,0.0,-0.9671,-0.9708,-0.9844,-1.0446,0.0,0.0,0.0,-1.3144,0.0,-1.7295,-1.7713,0.0,-1.9839,-2.1266,-2.2218,-2.3666,-2.419,-2.4061,0.0,-2.2804,-2.2502,0.0,-2.077,-2.1306,-1.9951,0.0,0.0,0.0,0.0,0.0,0.0,-1.8249,0.0,0.0,0.0,-1.507,-1.2644,0.0,0.0,0.0,0.0,0.0,0.0,0.0,0.0,-1.5095,-1.5714,-1.6712,-1.8031,-1.9338,-2.0149,-2.0149,-2.0204,-2.0842,-2.2195,-2.1028,-2.0859,-2.2229,-2.2296,-2.2296,-2.2296,-2.2296,-2.2296,-2.2296,-2.2296,-2.2296,-2.2296,-2.2296,-2.2296,-2.2296,-2.2296,-2.2296,-2.2307,-2.255,-2.2708,-2.2859,-2.3161,-2.3324,-2.3499,-2.4552,-2.4812,-2.4626,-2.4626,-2.4677,-2.4745,-0.9043,-0.899,-0.8968,-0.8908,-0.8897,-0.8925,-0.9011,-1.0109,-1.1379,-1.2631,-1.4092,0.0,0.0,0.0,0.0,0.0,0.0,-1.3992,0.0,0.0,0.0,-1.1108,-1.0194,-0.9919,-1.0388,-0.9933,-0.9702,-0.9702,-0.9702,0.0,0.0,0.0,-0.9951,-1.0402,-1.0746,0.0,-1.2283,0.0,-1.2944,0.0,0.0,0.0,0.0,-2.0996,-2.2868,-2.3281,-2.3951,-2.419,-2.4006,0.0,-2.2299,0.0,0.0,0.0,0.0,0.0,0.0,0.0,0.0,0.0,0.0,0.0,0.0,0.0,-1.5365,0.0,-1.476,0.0,0.0,0.0,0.0,0.0,0.0,0.0,-1.417,0.0,0.0,0.0,-1.5154,0.0,0.0,0.0,-1.9249,-1.8966,-1.9355,-2.0859,-1.9575,-1.9575,-2.1563,-2.1651,-2.1854,-2.2279,-2.2296,-2.2296,-2.2296,-2.2296,-2.2296,-2.2296,-2.2296,-2.2296,-2.231,-2.2463,-2.2523,-2.255,-2.2865,-2.3105,-2.33,-2.3426,-2.35,-2.3542,-2.4058,-2.4299,-2.4382,-2.4382,-2.4677,-2.5076,-0.9048,0.0,0.0,0.0,-0.9017,-0.9197,-0.9724,-1.154,-1.3194,-1.4197,0.0,0.0,-1.7902,-1.7725,0.0,0.0,-1.7319,-1.6237,0.0,0.0,-1.2994,-1.2774,-1.1218,0.0,0.0,-1.0443,-0.9919,-0.9702,-0.9702,-0.9702,0.0,0.0,-1.0007,-1.0586,0.0,-1.2003,-1.328,0.0,0.0,-1.5062,-1.6469,-1.7417,-1.8434,-2.2134,-2.3823,-2.419,-2.419,-2.419,-2.3988,-2.2602,-2.2125,-2.2088,-2.1867,-2.151,0.0,0.0,0.0,0.0,-2.1685,0.0,0.0,0.0,0.0,0.0,0.0,0.0,0.0,0.0,0.0,0.0,0.0,0.0,0.0,0.0,0.0,-1.3418,0.0,0.0,0.0,0.0,0.0,0.0,0.0,-1.7494,-1.7731,-1.9558,-1.8138,-1.8398,-2.1165,-2.1301,-2.1681,-2.2514,-2.2561,-2.2561,-2.2561,-2.2561,-2.2561,-2.2561,-2.2561,-2.2561,-2.2544,-2.2738,-2.2835,-2.286,-2.3189,-2.3488,-2.3703,-2.3795,-2.3837,-2.3837,-2.3837,-2.4021,-2.4248,-2.408,-2.436,-2.4872,-0.9114,-0.9307,0.0,0.0,0.0,-0.9809,-1.1373,-1.2946,-1.4235,0.0,0.0,0.0,0.0,0.0,0.0,0.0,0.0,-1.9659,-1.8052,0.0,-1.5233,-1.4457,-1.2884,-1.204,0.0,-1.1264,-1.0476,-0.9702,-0.9702,-0.9702,0.0,0.0,0.0,0.0,-1.1365,-1.2522,-1.339,-1.4927,-1.6947,-1.9187,-2.0016,-2.1777,-2.3768,0.0,-2.2841,-2.419,-2.419,-2.419,-2.4061,-2.3244,-2.2951,-2.2822,-2.2051,-2.2318,0.0,0.0,0.0,0.0,0.0,0.0,0.0,-2.0134,0.0,0.0,0.0,0.0,-1.6602,0.0,0.0,0.0,0.0,0.0,-1.6924,-1.4645,0.0,0.0,0.0,0.0,0.0,0.0,0.0,0.0,0.0,-1.5634,-1.6022,-1.8731,-1.6915,-1.7403,-2.1383,-2.1586,-2.2063,-2.3135,-2.3165,-2.3165,-2.3165,-2.3165,-2.3165,-2.3165,-2.3165,-2.3165,-2.3165,-2.3177,-2.3177,-2.32,-2.3544,-2.3692,-2.3742,-2.4054,-2.418,-2.418,-2.418,-2.4189,-2.412,-2.3473,-2.3242,-2.3259,0.0,0.0,0.0,0.0,0.0,-1.0053,-1.2283,-1.3897,0.0,0.0,0.0,0.0,0.0,-2.197,-2.2272,0.0,0.0,-2.1447,-1.9795,-1.8181,0.0,0.0,0.0,-1.3686,0.0,0.0,-1.1301,-1.0494,-0.9951,-0.9702,0.0,0.0,0.0,0.0,0.0,-1.2847,0.0,0.0,0.0,0.0,0.0,-2.1979,-2.4135,0.0,-2.374,-2.419,-2.419,-2.419,-2.4153,-2.3896,-2.3428,-2.3043,-2.3309,-2.2832,-2.2299,-2.2841,-2.3189,-2.3419,-2.3419,-2.3786,-2.3676,-2.15,-2.0123,-1.8746,0.0,0.0,0.0,0.0,0.0,0.0,0.0,0.0,-1.5988,-1.466,-1.3907,0.0,0.0,0.0,0.0,0.0,0.0,0.0,0.0,0.0,-1.459,-1.6014,-1.5518,-1.6369,-1.9195,-2.049,-2.1531,-2.2376,-2.2911,-2.32,-2.32,-2.32,-2.32,-2.32,-2.32,-2.32,-2.32,-2.3426,-2.3533,-2.3555,-2.3886,-2.4026,-2.4036,-2.4161,-2.419,-2.419,-2.419,-2.419,-2.417,-2.3955,-2.3847,-2.3847,-1.1214,0.0,0.0,0.0,0.0,0.0,-1.3682,0.0,0.0,0.0,-2.033,0.0,-2.285,0.0,-2.3116,0.0,-2.3437,-2.274,-2.1061,-1.9987,0.0,-1.897,-1.6915,0.0,0.0,0.0,-1.2719,-1.1338,-1.0814,-1.0268,-0.9702,0.0,0.0,0.0,0.0,0.0,-1.464,0.0,-1.8408,0.0,0.0,-2.2776,0.0,0.0,-2.419,-2.419,-2.419,-2.419,-2.419,-2.419,-2.3859,-2.3529,-2.4043,-2.3502,-2.2767,-2.3272,-2.3437,-2.3437,-2.3437,-2.3804,-2.3804,-2.2198,-2.0986,-1.9701,-1.7759,-1.777,-1.7954,0.0,0.0,0.0,0.0,0.0,-1.6298,-1.5478,-1.4444,-1.3068,0.0,-1.115,0.0,0.0,0.0,0.0,0.0,0.0,-1.3179,-1.469,-1.4649,-1.5711,-1.8339,-2.0126,-2.147,-2.2328,-2.3149,-2.3555,-2.3555,-2.3555,-2.3555,-2.3555,-2.3555,-2.3555,-2.3566,-2.3785,-2.3886,-2.3896,-2.4103,-2.419,-2.419,-2.419,-2.419,-2.419,-2.419,-2.419,-2.419,-2.419,-2.419,-2.419,0.0,0.0,0.0,0.0,-1.232,0.0,0.0,0.0,-1.9565,0.0,-2.1327,-2.218,-2.2969,-2.3061,-2.3373,-2.4135,-2.419,-2.3547,-2.2014,-2.1886,0.0,0.0,-1.9117,-1.8243,-1.817,0.0,0.0,0.0,-1.2095,-1.1255,-0.9753,0.0,0.0,0.0,-1.1384,0.0,-1.4714,-1.7894,-2.0252,-2.1996,-2.3575,-2.419,-2.419,-2.419,-2.419,-2.419,-2.419,-2.419,-2.419,-2.419,-2.419,-2.419,-2.419,-2.419,-2.419,-2.419,-2.419,-2.419,-2.419,-2.419,-2.3823,-2.2308,-2.1849,-2.1188,-1.8812,-1.9465,-2.0346,-1.9536,0.0,0.0,0.0,0.0,-1.7924,-1.7037,-1.5515,-1.3649,0.0,0.0,0.0,0.0,0.0,0.0,0.0,0.0,-1.1922,-1.4642,-1.426,0.0,0.0,-2.0382,-2.1771,-2.2905,-2.3731,-2.4153,-2.419,-2.419,-2.419,-2.419,-2.419,-2.419,-2.419,-2.419,-2.419,-2.419,-2.419,-2.419,-2.419,-2.419,-2.419,-2.419,-2.419,-2.419,-2.419,-2.419,-2.419,-2.419,-1.2134,-1.2863,-1.3576,0.0,-1.3422,-1.4046,0.0,0.0,0.0,0.0,-2.2189,-2.2997,-2.3804,-2.3896,-2.3988,-2.4171,-2.419,0.0,0.0,0.0,0.0,-2.2364,-2.1382,-2.027,-1.9022,-1.741,0.0,-1.3888,0.0,0.0,-1.0586,0.0,0.0,0.0,0.0,0.0,-1.4677,-1.7307,-2.0079,-2.2776,-2.3786,-2.419,-2.419,-2.419,-2.419,-2.419,-2.419,-2.419,-2.419,-2.419,-2.419,-2.419,-2.419,-2.419,-2.419,-2.419,-2.419,-2.419,-2.419,-2.419,-2.4098,-2.3694,-2.2675,-2.1629,-2.1005,-2.117,-2.1216,-2.0364,-2.1355,-2.2052,-2.1025,-2.0309,-1.9227,0.0,0.0,0.0,0.0,0.0,0.0,0.0,0.0,0.0,0.0,-1.1773,-1.2476,-1.2615,-1.3554,-1.5019,-1.7104,-1.8312,-1.9912,-2.2042,-2.2887,-2.3602,-2.419,-2.419,-2.419,-2.419,-2.419,-2.419,-2.419,-2.419,-2.419,-2.419,-2.419,-2.419,-2.419,-2.419,-2.419,-2.419,-2.419,-2.419,-2.419,-2.419,-2.419,-2.419,-1.3692,0.0,0.0,-1.6536,0.0,0.0,-1.7741,-1.8621,0.0,-2.1574,-2.2501,0.0,-2.3639,-2.4072,-2.4339,-2.4339,-2.4419,0.0,-2.3921,0.0,0.0,-2.3233,-2.2776,-2.2103,-2.1168,-1.9565,0.0,-1.5775,0.0,0.0,-1.0975,0.0,0.0,0.0,0.0,-1.2792,0.0,-1.7686,-2.0639,-2.3061,-2.3878,-2.419,0.0,-2.419,-2.419,-2.419,-2.419,-2.419,-2.419,-2.419,-2.419,-2.419,-2.419,-2.419,-2.419,-2.419,-2.419,-2.419,-2.419,-2.419,-2.419,-2.419,-2.352,-2.2767,-2.2391,-2.2318,-2.2189,-2.1685,-2.2052,-2.2409,-2.2162,-2.0933,-1.9198,0.0,0.0,0.0,0.0,0.0,0.0,0.0,0.0,0.0,-0.9882,-1.1141,-1.2038,-1.1947,-1.3102,-1.4362,-1.5605,-1.7551,-1.9436,-2.118,-2.2382,-2.3391,-2.419,-2.419,-2.419,-2.419,-2.419,-2.419,-2.419,-2.419,-2.419,-2.419,-2.419,-2.419,-2.419,-2.419,-2.419,-2.419,-2.419,-2.419,-2.419,-2.419,-2.419,-2.419,0.0,0.0,0.0,0.0,0.0,0.0,0.0,-2.0299,0.0,-2.1849,0.0,-2.3171,-2.318,-2.3975,-2.4512,-2.4545,0.0,-2.4483,-2.3716,-2.437,-2.4464,-2.3697,-2.3659,-2.3622,-2.3489,-2.1916,0.0,0.0,0.0,-1.338,-1.1086,0.0,0.0,0.0,0.0,0.0,0.0,-1.8673,-2.1516,-2.3116,-2.3925,-2.4218,-2.4199,-2.4228,-2.4247,-2.4247,-2.4266,-2.4247,-2.419,-2.419,-2.4218,-2.4247,-2.4247,-2.4247,-2.4247,-2.4266,-2.4266,-2.4247,-2.4247,-2.4247,-2.4237,-2.4199,-2.419,-2.4025,-2.3318,-2.3153,-2.3153,-2.3153,-2.2593,-2.251,-2.3804,-2.1544,-1.8772,0.0,0.0,0.0,0.0,0.0,0.0,0.0,0.0,0.0,-1.0249,-1.0645,-1.1297,-1.1893,-1.2595,-1.3422,-1.4457,-1.7142,-1.9179,-2.0309,-2.196,-2.3235,-2.4025,-2.4153,-2.419,-2.419,-2.419,-2.419,-2.419,-2.419,-2.419,-2.419,-2.419,-2.419,-2.419,-2.419,-2.419,-2.419,-2.419,-2.419,-2.419,-2.419,-2.419,-2.419,0.0,0.0,0.0,0.0,0.0,-2.1592,-2.2254,-2.1914,-2.1867,-2.2676,-2.3492,-2.4054,-2.4214,-2.4385,-2.4578,-2.4731,-2.4782,0.0,0.0,0.0,0.0,-2.4577,-2.4577,-2.4238,-2.3515,-2.1916,-1.9862,0.0,-1.4955,-1.2878,-1.1091,-1.0254,0.0,0.0,0.0,0.0,-1.7639,-1.9819,0.0,-2.331,-2.4128,-2.4339,-2.4218,-2.4384,-2.4444,-2.4469,-2.4631,-2.4478,-2.419,-2.419,-2.4312,-2.4444,-2.4444,-2.4444,-2.4478,-2.4647,-2.4586,-2.4444,-2.4444,-2.4444,-2.441,-2.4247,-2.419,-2.4153,-2.4025,-2.3988,-2.3988,-2.3988,-2.3878,-2.3657,-2.3281,-2.175,-2.0185,-1.9093,0.0,0.0,0.0,0.0,0.0,0.0,0.0,0.0,0.0,-1.1801,-1.1668,-1.115,0.0,0.0,-1.4383,-1.5025,-1.6628,-1.9426,-2.1133,-2.2391,-2.3189,-2.3878,-2.419,-2.419,-2.419,-2.419,-2.419,-2.419,-2.419,-2.419,-2.419,-2.419,-2.419,-2.419,-2.419,-2.419,-2.419,-2.419,-2.419,-2.419,-2.419,-2.419,0.0,0.0,0.0,0.0,0.0,0.0,0.0,-2.3316,-2.3313,-2.3162,-2.3552,-2.3862,-2.3971,-2.4452,-2.4809,-2.4897,-2.5,-2.5068,-2.5068,-2.5068,-2.5068,-2.5068,-2.5068,-2.4858,-2.4444,-2.3277,-2.1411,-1.8862,-1.6303,-1.3949,-1.18,-1.0501,-1.0144,-1.0665,0.0,-1.5428,0.0,0.0,-2.1898,-2.348,-2.4317,-2.4591,-2.4528,-2.4615,-2.4654,-2.467,-2.4768,-2.4678,-2.4512,-2.4512,-2.4586,-2.4654,-2.4654,-2.4654,-2.467,-2.4775,-2.4731,-2.4631,-2.4537,-2.4503,-2.4444,-2.4256,-2.4275,-2.4348,-2.4348,-2.4348,-2.4384,-2.4486,-2.4436,-2.4124,-2.3396,-2.2253,-2.1183,-2.0496,0.0,0.0,0.0,0.0,0.0,0.0,0.0,0.0,0.0,0.0,0.0,0.0,0.0,0.0,-1.3172,-1.4053,-1.5778,-1.8592,-2.0262,-2.173,-2.2988,-2.3804,-2.419,-2.419,-2.419,-2.419,-2.419,-2.419,-2.419,-2.419,-2.419,-2.419,-2.419,-2.419,-2.419,-2.419,-2.419,-2.419,-2.419,-2.419,-2.419,-2.419,0.0,-2.3317,0.0,0.0,-2.4287,-2.4634,-2.411,-2.4809,-2.4974,-2.3768,-2.3711,-2.3786,-2.3827,-2.4537,-2.5022,-2.5052,-2.5208,-2.5308,-2.5308,-2.5308,-2.5308,-2.5308,-2.5308,-2.5308,-2.5308,-2.4509,-2.2855,0.0,-1.8041,-1.5539,-1.2773,-1.1394,-1.1203,-1.2113,-1.4433,-1.6857,-1.9292,-2.0789,-2.2356,-2.389,-2.4565,-2.484,-2.4804,-2.4828,-2.4842,-2.4849,-2.4883,-2.4915,-2.4915,-2.4915,-2.4869,-2.4842,-2.4842,-2.4842,-2.4849,-2.4883,-2.4869,-2.4806,-2.4651,-2.4604,-2.4548,-2.4375,-2.4462,-2.4551,-2.4551,-2.4551,-2.4607,-2.4768,-2.467,-2.4345,-2.3632,-2.3037,-2.2308,-2.132,-1.9966,0.0,0.0,0.0,0.0,0.0,0.0,0.0,-1.1663,0.0,0.0,0.0,0.0,0.0,-1.2283,-1.3563,-1.5356,-1.7777,-1.9575,-2.1135,-2.2456,-2.3621,-2.419,-2.419,-2.419,-2.419,-2.419,-2.419,-2.419,-2.419,-2.419,-2.419,-2.419,-2.419,-2.419,-2.419,-2.419,-2.419,-2.419,-2.419,-2.419,-2.419,0.0,0.0,0.0,0.0,0.0,-2.5838,-2.5786,-2.6664,-2.6693,-2.4898,-2.4676,-2.4716,-2.4854,-2.4941,-2.5063,-2.5259,-2.5298,-2.5308,-2.5308,-2.5308,-2.5308,-2.5308,-2.5308,-2.5308,-2.5308,-2.4509,-2.2855,0.0,0.0,-1.7058,-1.3775,-1.3597,-1.3923,-1.4717,-1.6536,-1.8771,-2.1197,-2.2085,-2.3381,-2.4872,-2.4948,-2.491,-2.4799,-2.4924,-2.4986,-2.5004,-2.5187,-2.5248,-2.5248,-2.5248,-2.513,-2.4986,-2.4986,-2.4986,-2.501,-2.5198,-2.5124,-2.498,-2.4968,-2.4943,-2.4917,-2.4778,-2.476,-2.4775,-2.4775,-2.4775,-2.4782,-2.4797,-2.479,-2.4518,-2.3659,-2.4176,-2.3964,-2.1651,-2.1181,0.0,0.0,0.0,0.0,0.0,0.0,0.0,0.0,-1.153,0.0,0.0,-1.0254,-1.08,-1.306,-1.3335,-1.4523,-1.6945,-1.9274,-2.0584,-2.0723,-2.3033,-2.419,-2.419,-2.419,-2.419,-2.419,-2.419,-2.419,-2.419,-2.419,-2.419,-2.419,-2.419,-2.419,-2.419,-2.419,-2.419,-2.419,-2.419,-2.419,-2.419,0.0,0.0,-2.6246,-2.645,-2.6756,-2.7011,-2.7128,-2.7502,-2.7501,-2.6752,-2.6204,-2.5706,-2.5225,-2.5173,-2.5214,-2.5284,-2.5308,-2.5308,-2.5308,-2.5308,-2.5308,-2.5308,-2.5308,-2.5308,-2.5308,-2.4981,-2.3832,0.0,0.0,-1.8542,-1.6176,-1.5692,-1.6157,-1.747,-1.9184,-2.0805,-2.2311,-2.3132,-2.4158,-2.5173,-2.5173,-2.5154,-2.5109,-2.5171,-2.5173,-2.5198,-2.5269,-2.5308,-2.5308,-2.5308,-2.5253,-2.5173,-2.5173,-2.5173,-2.5203,-2.5274,-2.5234,-2.5157,-2.5034,-2.5004,-2.4968,-2.4828,-2.4869,-2.4923,-2.4923,-2.4923,-2.4956,-2.5086,-2.5103,-2.4989,-2.4631,-2.4022,-2.3422,-2.3045,-2.1627,-2.0647,0.0,0.0,0.0,0.0,0.0,0.0,0.0,0.0,0.0,0.0,0.0,-1.0323,-1.1783,-1.2784,-1.3954,-1.5405,-1.8742,-2.0503,-2.0503,-2.296,-2.419,-2.419,-2.419,-2.419,-2.419,-2.419,-2.419,-2.419,-2.419,-2.419,-2.4209,-2.4339,-2.4384,-2.4384,-2.4384,-2.4452,-2.4537,-2.4284,-2.4275,-2.4357,-2.7676,-2.7551,-2.7533,-2.7969,-2.8033,-2.8089,-2.8225,-2.8467,-2.8544,-2.8299,-2.7717,-2.6909,-2.5808,-2.5673,-2.5577,-2.5327,-2.5308,-2.5308,-2.5308,-2.5308,-2.5308,-2.5308,-2.5308,0.0,-2.5308,-2.5308,-2.4596,-2.3182,-2.2004,-2.0523,-1.8796,-1.8234,-1.8596,-1.9804,-2.1504,-2.2605,-2.324,-2.4086,-2.4774,-2.5308,-2.5308,-2.5308,-2.5308,-2.5308,-2.5308,-2.5308,-2.5308,-2.5308,-2.5308,-2.5308,-2.5308,-2.5308,-2.5308,-2.5308,-2.5308,-2.5308,-2.5308,-2.5269,-2.5135,-2.5088,-2.5065,-2.4968,-2.5024,-2.5088,-2.5088,-2.5088,-2.5135,-2.5269,-2.5308,-2.5308,-2.5308,-2.4057,-2.3107,-2.3303,-2.1712,-2.0516,0.0,-1.9508,0.0,0.0,-1.6451,-1.523,-1.4252,-1.3078,0.0,0.0,0.0,-1.1308,-1.2318,-1.3006,-1.4201,-1.6025,-1.9073,-2.0789,-2.103,-2.3195,-2.4284,-2.4284,-2.4228,-2.419,-2.4199,-2.4257,-2.4284,-2.4294,-2.4348,-2.4375,-2.4393,-2.4537,-2.4583,-2.4583,-2.4583,-2.4678,-2.4768,-2.4478,-2.4461,-2.4578,-2.8583,-2.8134,-2.7912,-2.8906,-2.9088,-2.9088,-2.9088,-2.9813,-3.0058,-2.9204,-2.9088,-2.8434,-2.6774,-2.6582,-2.6231,-2.5385,-2.5308,-2.5308,-2.5308,-2.5308,-2.5308,-2.5308,-2.5308,-2.5308,-2.5308,-2.5308,-2.4909,-2.4072,-2.4052,-2.3163,-2.1446,-2.1446,-2.1446,-2.1543,-2.3297,-2.4072,-2.4149,-2.4947,-2.5288,-2.5308,-2.5308,-2.5308,-2.5308,-2.5308,-2.5308,-2.5308,-2.5308,-2.5308,-2.5308,-2.5308,-2.5308,-2.5308,-2.5308,-2.5308,-2.5308,-2.5308,-2.5308,-2.5308,-2.5303,-2.5303,-2.5303,-2.5284,-2.5303,-2.5303,-2.5303,-2.5303,-2.5303,-2.5308,-2.5308,-2.5308,-2.5308,-2.462,-2.3528,-2.1812,-2.15,-2.0908,-1.9261,-1.8206,0.0,-1.7602,-1.52,-1.3925,-1.4881,-1.3369,0.0,0.0,0.0,-1.4298,-1.5759,-1.434,-1.5438,-1.9709,-2.0656,-2.1462,-2.2281,-2.3749,-2.4495,-2.4495,-2.4294,-2.419,-2.4199,-2.441,-2.4495,-2.4512,-2.4708,-2.4797,-2.4797,-2.4797,-2.4797,-2.4797,-2.4797,-2.4797,-2.4797,-2.4797,-2.4797,-2.4797,-2.9832,-2.9685,-2.9607,-2.9936,-2.9981,-2.9981,-2.9981,-3.0212,-3.0308,-3.0019,-2.9981,-2.9563,-2.8429,-2.7813,-2.7371,-2.7101,-2.6524,-2.6192,-2.6192,-2.5635,-2.5308,-2.5308,-2.5308,-2.5308,-2.5308,-2.5308,-2.5173,-2.4928,-2.4375,-2.3821,-2.3278,-2.3278,-2.3562,-2.4115,-2.4673,-2.4928,-2.4928,-2.5192,-2.5308,-2.5308,-2.5308,-2.5308,-2.5308,-2.5308,-2.5308,-2.5308,-2.5308,-2.5308,-2.5308,-2.5308,-2.5308,-2.5308,-2.5308,-2.5308,-2.5308,-2.5308,-2.5308,-2.5308,-2.5308,-2.5308,-2.5308,-2.5308,-2.5308,-2.5308,-2.5308,-2.5308,-2.5308,-2.5308,-2.5308,-2.5135,-2.4582,-2.3798,-2.2836,-2.1696,-2.1038,-2.0504,-1.9965,0.0,-1.768,-1.768,-1.6406,-1.5435,-1.5153,-1.507,0.0,0.0,0.0,-1.4168,-1.5226,-1.5832,-1.6772,-1.8146,-2.0624,-2.2035,-2.2306,-2.3898,-2.4708,-2.47,-2.4639,-2.4607,-2.4607,-2.4678,-2.4708,-2.4708,-2.4775,-2.4804,-2.4811,-2.4897,-2.4949,-2.4949,-2.4949,-2.5011,-2.5115,-2.4876,-2.4862,-2.4911,-3.0404,-3.0404,-3.0404,-3.0404,-3.0404,-3.0404,-3.0404,-3.0404,-3.0404,-3.0404,-3.0404,-3.0192,-2.964,-2.914,-2.8582,-2.7953,-2.739,-2.7082,-2.7082,-2.6582,-2.6135,-2.5808,-2.5788,-2.5635,-2.5308,-2.5308,-2.5308,-2.5308,-2.4793,-2.4548,-2.4548,-2.4548,-2.4812,-2.5308,-2.5308,-2.5308,-2.5308,-2.5308,-2.5308,-2.5308,-2.5308,-2.5308,-2.5308,-2.5308,-2.5308,-2.5308,-2.5308,-2.5308,-2.5308,-2.5308,-2.5308,-2.5308,-2.5308,-2.5308,-2.5308,-2.5308,-2.5308,-2.5308,-2.5308,-2.5308,-2.5308,-2.5308,-2.5308,-2.5308,-2.5308,-2.5308,-2.5308,-2.5308,-2.5308,-2.5154,-2.4639,-2.3586,-2.2624,-2.2081,-2.1043,-2.0308,-2.0308,-1.9077,-1.8166,0.0,0.0,-1.6706,-1.6147,-1.6521,-1.6701,-1.6528,0.0,-1.6078,-1.6942,-1.7301,-1.8074,-1.9391,-2.1741,-2.3128,-2.3431,-2.4398,-2.4889,-2.4864,-2.4814,-2.4804,-2.4804,-2.4855,-2.4889,-2.4871,-2.4949,-2.5,-2.4987,-2.509,-2.5105,-2.5105,-2.5105,-2.5198,-2.5269,-2.5049,-2.5043,-2.5094,-3.0404,-3.0404,-3.0404,-3.0404,-3.0404,-3.0404,-3.0404,-3.0404,-3.0404,-3.0404,-3.0404,-3.0404,-3.0404,-3.0404,-2.9769,-2.8217,-2.803,-2.7992,-2.7992,-2.7934,-2.7544,-2.6736,-2.6697,-2.6269,-2.5404,-2.5385,-2.5365,-2.5308,-2.5308,-2.5308,-2.5308,-2.5308,-2.5308,-2.5308,-2.5308,-2.5308,-2.5308,-2.5308,-2.5308,-2.5308,-2.5308,-2.5308,-2.5308,-2.5308,-2.5308,-2.5308,-2.5308,-2.5308,-2.5308,-2.5308,-2.5308,-2.5308,-2.5308,-2.5308,-2.5308,-2.5308,-2.5308,-2.5308,-2.5308,-2.5308,-2.5308,-2.5308,-2.5308,-2.5308,-2.5308,-2.5308,-2.5308,-2.5308,-2.5308,-2.5288,-2.5231,-2.3889,-2.2778,-2.272,-2.135,-2.0308,-2.0308,-1.9554,-1.8951,-1.8835,-1.8153,-1.7672,-1.7614,-1.7729,-1.8094,-1.8853,0.0,-1.9354,-2.0173,-1.872,-1.9391,-2.2697,-2.3648,-2.449,-2.5288,-2.5111,-2.5022,-2.5022,-2.4884,-2.484,-2.4847,-2.4955,-2.5022,-2.5028,-2.5219,-2.5308,-2.5308,-2.5308,-2.5308,-2.5308,-2.5308,-2.5308,-2.5308,-2.5308,-2.5308,-2.5308,-3.0404,-3.0404,-3.0404,-3.0404,-3.0404,-3.0404,-3.0404,-3.0404,-3.0404,-3.0404,-3.0404,-3.0404,-3.0404,-3.0404,-3.0231,-2.9846,-2.9198,-2.8819,-2.8819,-2.8242,-2.7818,-2.7601,-2.7582,-2.7178,-2.6308,-2.6288,-2.5962,-2.5308,-2.5308,-2.5308,-2.5308,-2.5308,-2.5308,-2.5308,-2.5308,-2.5308,-2.5308,-2.5308,-2.5308,-2.5308,-2.5308,-2.5308,-2.5308,-2.5308,-2.5308,-2.5308,-2.5308,-2.5308,-2.5308,-2.5308,-2.5308,-2.5308,-2.5308,-2.5308,-2.5308,-2.5308,-2.5308,-2.5308,-2.5308,-2.5308,-2.5308,-2.5308,-2.5308,-2.5308,-2.5308,-2.5308,-2.5308,-2.5308,-2.5308,-2.5115,-2.4509,-2.3528,-2.2586,-2.1927,-2.0962,-2.0308,-2.0308,-1.9542,-1.9,-1.8951,-1.8785,-1.8405,-1.7748,-1.8878,-1.9193,-1.8084,-1.8626,-1.9088,-1.93,-2.0108,-2.1261,-2.2759,-2.3648,-2.449,-2.5288,-2.5259,-2.5224,-2.5224,-2.5206,-2.5171,-2.5176,-2.5208,-2.5224,-2.5224,-2.5274,-2.5308,-2.5308,-2.5308,-2.5308,-2.5308,-2.5308,-2.5308,-2.5308,-2.5308,-2.5308,-2.5308,-3.0404,-3.0404,-3.0404,-3.0404,-3.0404,-3.0404,-3.0404,-3.0404,-3.0404,-3.0404,-3.0404,-3.0404,-3.0404,-3.0404,-3.0404,-3.0404,-2.9967,-2.9698,-2.9698,-2.9294,-2.8852,-2.8472,-2.8453,-2.8049,-2.7217,-2.7198,-2.6967,-2.6486,-2.6096,-2.5885,-2.5885,-2.55,-2.5308,-2.5308,-2.5308,-2.5308,-2.5308,-2.5308,-2.5308,-2.5308,-2.5308,-2.5308,-2.5308,-2.5308,-2.5308,-2.5308,-2.5308,-2.5308,-2.5308,-2.5308,-2.5308,-2.5308,-2.5308,-2.5308,-2.5308,-2.5308,-2.5308,-2.5308,-2.5308,-2.5308,-2.5308,-2.5308,-2.5308,-2.5308,-2.5308,-2.5308,-2.5308,-2.5308,-2.5308,-2.5173,-2.4736,-2.3644,-2.2643,-2.2177,-2.1081,-2.0308,-2.0308,-1.9888,-1.9581,-1.9596,-1.96,-1.9546,-1.9446,-2.0292,-2.0465,-1.9504,-2.0239,-2.0566,-2.0162,-2.1758,-2.272,-2.2797,-2.4005,-2.487,-2.5308,-2.5308,-2.5308,-2.5308,-2.5308,-2.5308,-2.5308,-2.5308,-2.5308,-2.5308,-2.5308,-2.5308,-2.5308,-2.5308,-2.5308,-2.5308,-2.5308,-2.5308,-2.5308,-2.5308,-2.5308,-2.5308,-3.0404,-3.0404,-3.0404,-3.0404,-3.0404,-3.0404,-3.0404,-3.0404,-3.0404,-3.0404,-3.0404,-3.0404,-3.0404,-3.0404,-3.0404,-3.0404,-3.0404,-3.0404,-3.0404,-3.0404,-3.0077,-2.9338,-2.93,-2.8915,-2.8107,-2.7953,-2.7895,-2.7895,-2.7159,-2.6736,-2.6582,-2.5846,-2.5423,-2.5308,-2.5308,-2.5308,-2.5308,-2.5308,-2.5308,-2.5308,-2.5308,-2.5308,-2.5308,-2.5308,-2.5308,-2.5308,-2.5308,-2.5308,-2.5308,-2.5308,-2.5308,-2.5308,-2.5308,-2.5308,-2.5308,-2.5308,-2.5308,-2.5308,-2.5308,-2.5308,-2.5308,-2.5308,-2.5308,-2.5308,-2.5308,-2.5308,-2.5308,-2.5308,-2.5308,-2.5308,-2.5308,-2.3928,-2.2797,-2.2797,-2.1389,-2.0308,-2.0308,-2.0308,-2.0346,-2.0462,-2.0481,-2.0808,-2.162,-2.1696,-2.1696,-2.1696,-2.237,-2.2489,-2.1735,-2.322,-2.3764,-2.3028,-2.4481,-2.5308,-2.5308,-2.5308,-2.5308,-2.5308,-2.5308,-2.5308,-2.5308,-2.5308,-2.5308,-2.5308,-2.5308,-2.5308,-2.5308,-2.5308,-2.5308,-2.5308,-2.5308,-2.5308,-2.5308,-2.5308,-2.5308,-2.5308,-3.0404,-3.0404,-3.0404,-3.0404,-3.0404,-3.0404,-3.0404,-3.0404,-3.0404,-3.0404,-3.0404,-3.0404,-3.0404,-3.0404,-3.0404,-3.0404,-3.0404,-3.0404,-3.0404,-3.0404,-3.0346,-3.0192,-3.0192,-2.9794,-2.8934,-2.8261,-2.7895,-2.7895,-2.7761,-2.7313,-2.6601,-2.6467,-2.6,-2.5308,-2.5308,-2.5308,-2.5308,-2.5308,-2.5308,-2.5308,-2.5308,-2.5308,-2.5308,-2.5308,-2.5308,-2.5308,-2.5308,-2.5308,-2.5308,-2.5308,-2.5308,-2.5308,-2.5308,-2.5308,-2.5308,-2.5308,-2.5308,-2.5308,-2.5308,-2.5308,-2.5308,-2.5308,-2.5308,-2.5308,-2.5308,-2.5308,-2.5308,-2.5308,-2.5308,-2.5308,-2.5308,-2.3928,-2.2797,-2.2797,-2.1389,-2.0308,-2.0308,-2.0308,-2.0558,-2.1235,-2.1312,-2.1658,-2.2509,-2.2605,-2.2605,-2.2605,-2.272,-2.274,-2.2605,-2.3548,-2.4033,-2.3898,-2.4812,-2.5308,-2.5308,-2.5308,-2.5308,-2.5308,-2.5308,-2.5308,-2.5308,-2.5308,-2.5308,-2.5308,-2.5308,-2.5308,-2.5308,-2.5308,-2.5308,-2.5308,-2.5308,-2.5308,-2.5308,-2.5308,-2.5308,-2.5308,-3.0404,-3.0404,-3.0404,-3.0404,-3.0404,-3.0404,-3.0404,-3.0404,-3.0404,-3.0404,-3.0404,-3.0404,-3.0404,-3.0404,-3.0404,-3.0404,-3.0404,-3.0404,-3.0404,-3.0404,-3.0404,-3.0404,-3.0404,-3.0212,-2.9813,-2.9448,-2.9256,-2.9256,-2.8775,-2.8338,-2.7928,-2.7505,-2.7082,-2.6697,-2.6697,-2.6697,-2.6697,-2.6697,-2.6697,-2.6659,-2.6192,-2.6,-2.5942,-2.5481,-2.5308,-2.5308,-2.5308,-2.5308,-2.5308,-2.5308,-2.5308,-2.5308,-2.5308,-2.5308,-2.5308,-2.5308,-2.5308,-2.5308,-2.5308,-2.5308,-2.5308,-2.5308,-2.5308,-2.5308,-2.5308,-2.5308,-2.5308,-2.5308,-2.5308,-2.5308,-2.5308,-2.4312,-2.349,-2.349,-2.2062,-2.1119,-2.1581,-2.1235,-2.1254,-2.21,-2.2197,-2.2547,-2.3413,-2.349,-2.349,-2.349,-2.3908,-2.3966,-2.3528,-2.4298,-2.4755,-2.4755,-2.5115,-2.5308,-2.5308,-2.5308,-2.5308,-2.5308,-2.5308,-2.5308,-2.5308,-2.5308,-2.5308,-2.5308,-2.5308,-2.5308,-2.5308,-2.5308,-2.5308,-2.5308,-2.5308,-2.5308,-2.5308,-2.5308,-2.5308,-2.5308,-3.0404,-3.0404,-3.0404,-3.0404,-3.0404,-3.0404,-3.0404,-3.0404,-3.0404,-3.0404,-3.0404,-3.0404,-3.0404,-3.0404,-3.0404,-3.0404,-3.0404,-3.0404,-3.0404,-3.0404,-3.0404,-3.0404,-3.0404,-3.0404,-3.0404,-3.0404,-3.0404,-3.0404,-2.9737,-2.93,-2.9088,-2.8472,-2.8088,-2.7895,-2.7895,-2.7895,-2.7895,-2.7895,-2.7895,-2.7838,-2.7178,-2.6909,-2.6813,-2.5923,-2.5596,-2.5577,-2.5365,-2.5308,-2.5308,-2.5308,-2.5308,-2.5308,-2.5308,-2.5308,-2.5308,-2.5308,-2.5308,-2.5308,-2.5308,-2.5308,-2.5308,-2.5308,-2.5308,-2.5308,-2.5308,-2.5308,-2.5308,-2.5308,-2.5308,-2.5308,-2.5308,-2.4639,-2.411,-2.411,-2.2816,-2.2043,-2.272,-2.2216,-2.212,-2.3009,-2.3105,-2.3432,-2.4298,-2.4375,-2.4375,-2.4375,-2.4947,-2.5019,-2.4413,-2.4962,-2.5308,-2.5308,-2.5308,-2.5308,-2.5308,-2.5308,-2.5308,-2.5308,-2.5308,-2.5308,-2.5308,-2.5308,-2.5308,-2.5308,-2.5308,-2.5308,-2.5308,-2.5308,-2.5308,-2.5308,-2.5308,-2.5308,-2.5308,-2.5308,-2.5308,-2.5308,-3.0404,-3.0404,-3.0404,-3.0404,-3.0404,-3.0404,-3.0404,-3.0404,-3.0404,-3.0404,-3.0404,-3.0404,-3.0404,-3.0404,-3.0404,-3.0404,-3.0404,-3.0404,-3.0404,-3.0404,-3.0404,-3.0404,-3.0404,-3.0404,-3.0404,-3.0404,-3.0404,-3.0404,-3.0346,-2.989,-2.9107,-2.905,-2.8607,-2.7895,-2.7895,-2.7895,-2.7895,-2.7895,-2.7895,-2.7895,-2.7838,-2.7799,-2.7717,-2.6832,-2.6505,-2.6409,-2.5596,-2.5308,-2.5308,-2.5308,-2.5308,-2.5308,-2.5308,-2.5308,-2.5308,-2.5308,-2.5308,-2.5308,-2.5308,-2.5308,-2.5308,-2.5308,-2.5308,-2.5308,-2.5308,-2.5308,-2.5308,-2.5308,-2.5308,-2.5308,-2.5308,-2.4639,-2.411,-2.411,-2.3317,-2.274,-2.2797,-2.274,-2.3028,-2.3898,-2.3995,-2.4317,-2.5135,-2.5212,-2.5212,-2.5212,-2.5269,-2.5269,-2.5212,-2.5269,-2.5308,-2.5308,-2.5308,-2.5308,-2.5308,-2.5308,-2.5308,-2.5308,-2.5308,-2.5308,-2.5308,-2.5308,-2.5308,-2.5308,-2.5308,-2.5308,-2.5308,-2.5308,-2.5308,-2.5308,-2.5308,-2.5308,-2.5308,-2.5308,-2.5308,-2.5308,-3.0404,-3.0404,-3.0404,-3.0404,-3.0404,-3.0404,-3.0404,-3.0404,-3.0404,-3.0404,-3.0404,-3.0404,-3.0404,-3.0404,-3.0404,-3.0404,-3.0404,-3.0404,-3.0404,-3.0404,-3.0404,-3.0404,-3.0404,-3.0404,-3.0404,-3.0404,-3.0404,-3.0404,-3.0404,-3.0231,-2.991,-2.991,-2.9737,-2.9442,-2.9442,-2.9459,-2.9506,-2.9506,-2.9532,-2.9536,-2.9036,-2.8822,-2.8745,-2.7863,-2.7537,-2.7498,-2.7168,-2.6699,-2.6227,-2.6227,-2.5874,-2.5421,-2.5421,-2.5421,-2.5421,-2.5421,-2.5421,-2.5421,-2.5421,-2.5367,-2.5308,-2.5308,-2.5308,-2.5308,-2.5308,-2.5308,-2.5308,-2.5308,-2.5308,-2.5308,-2.5308,-2.5058,-2.4832,-2.4832,-2.4144,-2.3778,-2.4274,-2.3913,-2.3913,-2.4755,-2.4832,-2.4962,-2.5269,-2.5308,-2.5308,-2.5308,-2.5308,-2.5308,-2.5308,-2.5308,-2.5308,-2.5308,-2.5308,-2.5308,-2.5308,-2.5308,-2.5308,-2.5308,-2.5308,-2.5308,-2.5308,-2.5308,-2.5308,-2.5308,-2.5308,-2.5308,-2.5308,-2.5308,-2.5308,-2.5308,-2.5308,-2.5308,-2.5308,-2.5308,-2.5308,-2.5308,-3.0404,-3.0404,-3.0404,-3.0404,-3.0404,-3.0404,-3.0404,-3.0404,-3.0404,-3.0404,-3.0404,-3.0404,-3.0404,-3.0404,-3.0404,-3.0404,-3.0431,-3.0439,-3.0439,-3.0456,-3.0441,-3.041,-3.0404,-3.0408,-3.0439,-3.0439,-3.0441,-3.0462,-3.0462,-3.0462,-3.0462,-3.0462,-3.0462,-3.0462,-3.0462,-3.0495,-3.0533,-3.0533,-3.0551,-3.0544,-3.0005,-2.9772,-2.9677,-2.8829,-2.8501,-2.8464,-2.8194,-2.7724,-2.7216,-2.7216,-2.6627,-2.5902,-2.5902,-2.5727,-2.5491,-2.5491,-2.5491,-2.5491,-2.5491,-2.5431,-2.5363,-2.5363,-2.5363,-2.5363,-2.5363,-2.5363,-2.5363,-2.5363,-2.5363,-2.5363,-2.5363,-2.5363,-2.5363,-2.5363,-2.4907,-2.4725,-2.5262,-2.4857,-2.4709,-2.5236,-2.5308,-2.5308,-2.5308,-2.5308,-2.5308,-2.5308,-2.5308,-2.5308,-2.5308,-2.5308,-2.5308,-2.5308,-2.5308,-2.5308,-2.5308,-2.5308,-2.5308,-2.5308,-2.5308,-2.5308,-2.5308,-2.5308,-2.5308,-2.5308,-2.5308,-2.5308,-2.5308,-2.5308,-2.5308,-2.5308,-2.5308,-2.5308,-2.5308,-2.5308,-2.5308,-2.5308,-3.0404,-3.0404,-3.0404,-3.0404,-3.0404,-3.0404,-3.0404,-3.0404,-3.0404,-3.0404,-3.0404,-3.0404,-3.0404,-3.0404,-3.0404,-3.0404,-3.0467,-3.0503,-3.0503,-3.0558,-3.0541,-3.0402,-3.0404,-3.0419,-3.0498,-3.0503,-3.0533,-3.0603,-3.0603,-3.0603,-3.0603,-3.0603,-3.0603,-3.0603,-3.0603,-3.0603,-3.0606,-3.0606,-3.0606,-3.0606,-3.0606,-3.0606,-3.0528,-2.9716,-2.9408,-2.9291,-2.8425,-2.8119,-2.8119,-2.8119,-2.753,-2.6807,-2.6805,-2.6199,-2.5493,-2.5493,-2.5493,-2.5493,-2.5493,-2.5493,-2.5493,-2.5491,-2.5491,-2.5491,-2.5491,-2.5491,-2.5491,-2.5491,-2.5491,-2.5491,-2.5491,-2.5491,-2.5491,-2.5491,-2.5491,-2.5488,-2.5408,-2.5394,-2.5372,-2.5308,-2.5308,-2.5308,-2.5308,-2.5308,-2.5308,-2.5308,-2.5308,-2.5308,-2.5308,-2.5308,-2.5308,-2.5308,-2.5308,-2.5308,-2.5308,-2.5308,-2.5308,-2.5308,-2.5308,-2.5308,-2.5308,-2.5308,-2.5308,-2.5308,-2.5308,-2.5308,-2.5308,-2.5308,-2.5308,-2.5308,-2.5308,-2.5308,-2.5308,-2.5308,-2.5308,-2.5308,-3.0404,-3.0404,-3.0404,-3.0404,-3.0404,-3.0404,-3.0404,-3.0404,-3.0404,-3.0404,-3.0441,-3.0463,-3.0463,-3.0516,-3.0541,-3.0541,-3.0551,-3.0568,-3.0568,-3.0591,-3.0581,-3.0545,-3.0541,-3.0556,-3.0568,-3.0568,-3.0581,-3.0603,-3.0603,-3.0603,-3.0603,-3.0603,-3.0603,-3.0603,-3.0603,-3.0633,-3.0675,-3.0675,-3.0711,-3.081,-3.081,-3.081,-3.0771,-3.0537,-3.046,-3.0421,-3.0168,-2.9661,-2.9152,-2.9152,-2.8567,-2.7746,-2.7121,-2.6339,-2.5636,-2.5636,-2.5636,-2.5636,-2.5636,-2.5636,-2.5629,-2.5511,-2.5491,-2.5491,-2.5491,-2.5491,-2.5491,-2.5491,-2.5491,-2.5491,-2.5491,-2.5491,-2.5491,-2.5491,-2.5491,-2.5484,-2.5463,-2.546,-2.5451,-2.5444,-2.5441,-2.5441,-2.5441,-2.5441,-2.5441,-2.5441,-2.5441,-2.5441,-2.5441,-2.5441,-2.5441,-2.5441,-2.5441,-2.5441,-2.5441,-2.5357,-2.5317,-2.536,-2.5312,-2.5342,-2.5438,-2.5348,-2.5346,-2.5438,-2.5387,-2.5398,-2.5441,-2.5441,-2.5441,-2.5441,-2.5441,-2.5441,-2.5441,-2.5441,-2.5441,-2.5441,-3.0404,-3.0404,-3.0404,-3.0404,-3.0404,-3.0404,-3.0404,-3.0417,-3.0436,-3.0436,-3.0494,-3.0545,-3.0545,-3.0575,-3.0603,-3.0603,-3.0611,-3.0657,-3.0718,-3.0718,-3.0718,-3.0718,-3.0718,-3.0691,-3.0648,-3.0648,-3.0678,-3.0718,-3.0718,-3.0718,-3.0718,-3.0718,-3.0718,-3.0718,-3.0718,-3.0734,-3.0771,-3.0771,-3.0836,-3.0898,-3.0898,-3.0898,-3.0898,-3.0898,-3.0898,-3.0898,-3.0898,-3.0566,-3.0117,-3.0117,-2.9316,-2.8144,-2.7266,-2.6406,-2.5703,-2.5703,-2.5703,-2.5703,-2.5703,-2.5703,-2.5683,-2.5601,-2.557,-2.557,-2.557,-2.557,-2.557,-2.557,-2.557,-2.557,-2.557,-2.557,-2.557,-2.557,-2.557,-2.5566,-2.5547,-2.5545,-2.5537,-2.5493,-2.5491,-2.5491,-2.5491,-2.5491,-2.5491,-2.5491,-2.5491,-2.5491,-2.5491,-2.5491,-2.5491,-2.5491,-2.5491,-2.5491,-2.5491,-2.5415,-2.5406,-2.5444,-2.5406,-2.5418,-2.5508,-2.5427,-2.5418,-2.5508,-2.5462,-2.5468,-2.5491,-2.5491,-2.5491,-2.5491,-2.5491,-2.5491,-2.5491,-2.5491,-2.5491,-2.5491,-3.0404,-3.0396,-3.0408,-3.0408,-3.0414,-3.0425,-3.0425,-3.0463,-3.0516,-3.0516,-3.0565,-3.0614,-3.0614,-3.062,-3.0625,-3.0625,-3.0677,-3.077,-3.0898,-3.0898,-3.0898,-3.0898,-3.0898,-3.0838,-3.072,-3.072,-3.0771,-3.0898,-3.0898,-3.0898,-3.0898,-3.0898,-3.0898,-3.0898,-3.0898,-3.0898,-3.0898,-3.0898,-3.0898,-3.0898,-3.0898,-3.0898,-3.0898,-3.0898,-3.0898,-3.0898,-3.0898,-3.0898,-3.0898,-3.0898,-2.9785,-2.8262,-2.7383,-2.6523,-2.5801,-2.5723,-2.5703,-2.5703,-2.5703,-2.5703,-2.5703,-2.5703,-2.5703,-2.5703,-2.5703,-2.5703,-2.5703,-2.5703,-2.5703,-2.5703,-2.5703,-2.5703,-2.5703,-2.5703,-2.5703,-2.5683,-2.5629,-2.5605,-2.5594,-2.5533,-2.5526,-2.5526,-2.5526,-2.5526,-2.5526,-2.5526,-2.5526,-2.5526,-2.5526,-2.5526,-2.5526,-2.5526,-2.5526,-2.5526,-2.5526,-2.5526,-2.5505,-2.552,-2.5493,-2.5517,-2.5526,-2.5515,-2.5517,-2.5526,-2.5503,-2.5503,-2.5526,-2.5526,-2.5526,-2.5526,-2.5526,-2.5526,-2.5526,-2.5526,-2.5526,-2.5526,-3.0404,-3.0441,-3.0477,-3.0477,-3.0513,-3.0567,-3.0567,-3.0565,-3.0578,-3.0578,-3.0645,-3.068,-3.068,-3.0765,-3.0834,-3.0834,-3.0857,-3.0878,-3.0898,-3.0898,-3.0898,-3.0898,-3.0898,-3.0898,-3.0858,-3.0858,-3.0878,-3.0898,-3.0898,-3.0898,-3.0898,-3.0898,-3.0898,-3.0898,-3.0898,-3.0898,-3.0898,-3.0898,-3.0898,-3.0898,-3.0898,-3.0898,-3.0898,-3.0898,-3.0898,-3.0898,-3.0898,-3.0898,-3.0898,-3.0898,-3.0195,-2.918,-2.8281,-2.7422,-2.6582,-2.5898,-2.5703,-2.5703,-2.5703,-2.5703,-2.5703,-2.5703,-2.5703,-2.5703,-2.5703,-2.5703,-2.5703,-2.5703,-2.5703,-2.5703,-2.5703,-2.5703,-2.5703,-2.5703,-2.5703,-2.5683,-2.5683,-2.5682,-2.5662,-2.566,-2.566,-2.566,-2.566,-2.566,-2.566,-2.566,-2.566,-2.566,-2.566,-2.566,-2.566,-2.566,-2.566,-2.566,-2.566,-2.566,-2.5633,-2.559,-2.5533,-2.5556,-2.5659,-2.5551,-2.5558,-2.5659,-2.5602,-2.5605,-2.566,-2.566,-2.566,-2.566,-2.566,-2.566,-2.566,-2.566,-2.566,-2.566,-3.0505,-3.0517,-3.0556,-3.0556,-3.0575,-3.0603,-3.0603,-3.0636,-3.0655,-3.0655,-3.0737,-3.0793,-3.0793,-3.0858,-3.0898,-3.0898,-3.0898,-3.0898,-3.0898,-3.0898,-3.0898,-3.0898,-3.0898,-3.0898,-3.0898,-3.0898,-3.0898,-3.0898,-3.0898,-3.0898,-3.0898,-3.0898,-3.0898,-3.0898,-3.0898,-3.0898,-3.0898,-3.0898,-3.0898,-3.0898,-3.0898,-3.0898,-3.0898,-3.0898,-3.0898,-3.0898,-3.0898,-3.0898,-3.0898,-3.0898,-3.0312,-2.9453,-2.8574,-2.7695,-2.6836,-2.5957,-2.5703,-2.5703,-2.5703,-2.5703,-2.5703,-2.5703,-2.5703,-2.5703,-2.5703,-2.5703,-2.5703,-2.5703,-2.5703,-2.5703,-2.5703,-2.5703,-2.5703,-2.5703,-2.5703,-2.5703,-2.5703,-2.5703,-2.5703,-2.5703,-2.5703,-2.5703,-2.5703,-2.5703,-2.5703,-2.5703,-2.5703,-2.5703,-2.5703,-2.5703,-2.5703,-2.5703,-2.5703,-2.5703,-2.5703,-2.5703,-2.5683,-2.5657,-2.5606,-2.5633,-2.5703,-2.5632,-2.5634,-2.5703,-2.5661,-2.5661,-2.5703,-2.5703,-2.5703,-2.5703,-2.5703,-2.5703,-2.5703,-2.5703,-2.5703,-2.5703,-3.0603,-3.0614,-3.0623,-3.0623,-3.0633,-3.0641,-3.0641,-3.0702,-3.0723,-3.0723,-3.0837,-3.0898,-3.0898,-3.0898,-3.0898,-3.0898,-3.0898,-3.0898,-3.0898,-3.0898,-3.0898,-3.0898,-3.0898,-3.0898,-3.0898,-3.0898,-3.0898,-3.0898,-3.0898,-3.0898,-3.0898,-3.0898,-3.0898,-3.0898,-3.0898,-3.0898,-3.0898,-3.0898,-3.0898,-3.0898,-3.0898,-3.0898,-3.0898,-3.0898,-3.0898,-3.0898,-3.0898,-3.0898,-3.0898,-3.0898,-3.043,-2.9668,-2.8809,-2.793,-2.7051,-2.6172,-2.582,-2.5703,-2.5703,-2.5703,-2.5703,-2.5703,-2.5703,-2.5703,-2.5703,-2.5703,-2.5703,-2.5703,-2.5703,-2.5703,-2.5703,-2.5703,-2.5703,-2.5703,-2.5703,-2.5703,-2.5703,-2.5703,-2.5703,-2.5703,-2.5703,-2.5703,-2.5703,-2.5703,-2.5703,-2.5703,-2.5703,-2.5703,-2.5703,-2.5703,-2.5703,-2.5703,-2.5703,-2.5703,-2.5703,-2.5703,-2.5703,-2.5703,-2.5703,-2.5703,-2.5703,-2.5703,-2.5703,-2.5703,-2.5703,-2.5703,-2.5703,-2.5703,-2.5703,-2.5703,-2.5703,-2.5703,-2.5703,-2.5703,-2.5703,-2.5703,-3.0603,-3.0655,-3.0687,-3.0687,-3.0788,-3.0857,-3.0857,-3.0878,-3.0878,-3.0878,-3.0898,-3.0898,-3.0898,-3.0898,-3.0898,-3.0898,-3.0898,-3.0898,-3.0898,-3.0898,-3.0898,-3.0898,-3.0898,-3.0898,-3.0898,-3.0898,-3.0898,-3.0898,-3.0898,-3.0898,-3.0898,-3.0898,-3.0898,-3.0898,-3.0898,-3.0898,-3.0898,-3.0898,-3.0898,-3.0898,-3.0898,-3.0898,-3.0898,-3.0898,-3.0898,-3.0898,-3.0898,-3.0898,-3.0898,-3.0898,-3.082,-3.0566,-2.9707,-2.8828,-2.7949,-2.707,-2.6289,-2.5703,-2.5703,-2.5703,-2.5703,-2.5703,-2.5703,-2.5703,-2.5703,-2.5703,-2.5703,-2.5703,-2.5703,-2.5703,-2.5703,-2.5703,-2.5703,-2.5703,-2.5703,-2.5703,-2.5703,-2.5703,-2.5703,-2.5703,-2.5703,-2.5703,-2.5703,-2.5703,-2.5703,-2.5703,-2.5703,-2.5703,-2.5703,-2.5703,-2.5703,-2.5703,-2.5703,-2.5703,-2.5703,-2.5703,-2.5703,-2.5703,-2.5703,-2.5703,-2.5703,-2.5703,-2.5703,-2.5703,-2.5703,-2.5703,-2.5703,-2.5703,-2.5703,-2.5703,-2.5703,-2.5703,-2.5703,-2.5703,-2.5703,-2.5703,-3.0778,-3.0788,-3.0815,-3.0815,-3.0858,-3.0898,-3.0898,-3.0898,-3.0898,-3.0898,-3.0898,-3.0898,-3.0898,-3.0898,-3.0898,-3.0898,-3.0898,-3.0898,-3.0898,-3.0898,-3.0898,-3.0898,-3.0898,-3.0898,-3.0898,-3.0898,-3.0898,-3.0898,-3.0898,-3.0898,-3.0898,-3.0898,-3.0898,-3.0898,-3.0898,-3.0898,-3.0898,-3.0898,-3.0898,-3.0898,-3.0898,-3.0898,-3.0898,-3.0898,-3.0898,-3.0898,-3.0898,-3.0898,-3.0898,-3.0898,-3.0898,-3.0742,-2.9863,-2.9004,-2.8125,-2.7266,-2.6387,-2.5703,-2.5703,-2.5703,-2.5703,-2.5703,-2.5703,-2.5703,-2.5703,-2.5703,-2.5703,-2.5703,-2.5703,-2.5703,-2.5703,-2.5703,-2.5703,-2.5703,-2.5703,-2.5703,-2.5703,-2.5703,-2.5703,-2.5703,-2.5703,-2.5703,-2.5703,-2.5703,-2.5703,-2.5703,-2.5703,-2.5703,-2.5703,-2.5703,-2.5703,-2.5703,-2.5703,-2.5703,-2.5703,-2.5703,-2.5703,-2.5703,-2.5703,-2.5703,-2.5703,-2.5703,-2.5703,-2.5703,-2.5703,-2.5703,-2.5703,-2.5703,-2.5703,-2.5703,-2.5703,-2.5703,-2.5703,-2.5703,-2.5703,-2.5703]},{"header":{"parameterUnit":"m.s-1","parameterCategory":1,"la1":30.6,"la2":28.766,"lo1":-90.7593,"lo2":-88.6598,"dy":0.0162,"dx":0.0183,"nx":116,"ny":114,"refTime":"2024-06-30T18:00:00:Z","depth":0,"parameterNumber":3,"parameterNumberName":"V-component_of_WINDS"},"data":[0.0,0.0,0.0,0.0,0.0,0.0,0.0,0.0,0.0,0.0,0.0,0.0,0.0,0.0,0.0,0.0,0.0,0.0,0.0,0.0,0.0,0.0,0.0,0.0,0.0,0.0,0.0,0.0,0.0,0.0,0.0,0.0,0.0,0.0,0.0,0.0,0.0,0.0,0.0,0.0,0.0,0.0,0.0,0.0,0.0,0.0,0.0,0.0,0.0,0.0,0.0,0.0,0.0,0.0,0.0,0.0,0.0,0.0,0.0,0.0,0.0,0.0,0.0,0.0,0.0,0.0,0.0,0.0,0.0,0.0,0.0,0.0,0.0,0.0,0.0,0.0,0.0,0.0,0.0,0.0,0.0,0.0,0.0,0.0,0.0,0.0,0.0,0.0,0.0,0.0,0.0,0.0,0.0,0.0,0.0,0.0,0.0,0.0,0.0,0.0,0.0,0.0,0.0,0.0,0.0,0.0,0.0,0.0,0.0,0.0,0.0,0.0,0.0,0.0,0.0,0.0,0.0,0.0,0.0,0.0,0.0,0.0,0.0,0.0,0.0,0.0,0.0,0.0,0.0,0.0,0.0,0.0,0.0,0.0,0.0,0.0,0.0,0.0,0.0,0.0,0.0,0.0,0.0,0.0,0.0,0.0,0.0,0.0,0.0,0.0,0.0,0.0,0.0,0.0,0.0,0.0,0.0,0.0,0.0,0.0,0.0,0.0,0.0,0.0,0.0,0.0,0.0,0.0,0.0,0.0,0.0,0.0,0.0,0.0,0.0,0.0,0.0,0.0,0.0,0.0,0.0,0.0,0.0,0.0,0.0,0.0,0.0,0.0,0.0,0.0,0.0,0.0,0.0,0.0,0.0,0.0,0.0,0.0,0.0,0.0,0.0,0.0,0.0,0.0,0.0,0.0,0.0,0.0,0.0,0.0,0.0,0.0,0.0,0.0,0.0,0.0,0.0,0.0,0.0,0.0,0.0,0.0,0.0,0.0,0.0,0.0,0.0,0.0,0.0,0.0,0.0,0.0,0.0,0.0,0.0,0.0,0.0,0.0,0.0,0.0,0.0,0.0,0.0,0.0,0.0,0.0,0.0,0.0,0.0,0.0,0.0,0.0,0.0,0.0,0.0,0.0,0.0,0.0,0.0,0.0,0.0,0.0,0.0,0.0,0.0,0.0,0.0,0.0,0.0,0.0,0.0,0.0,0.0,0.0,0.0,0.0,0.0,0.0,0.0,0.0,0.0,0.0,0.0,0.0,0.0,0.0,0.0,0.0,0.0,0.0,0.0,0.0,0.0,0.0,0.0,0.0,0.0,0.0,0.0,0.0,0.0,0.0,0.0,0.0,0.0,0.0,0.0,0.0,0.0,0.0,0.0,0.0,0.0,0.0,0.0,0.0,0.0,0.0,0.0,0.0,0.0,0.0,0.0,0.0,0.0,0.0,0.0,0.0,0.0,0.0,0.0,0.0,0.0,0.0,0.0,0.0,0.0,0.0,0.0,0.0,0.0,0.0,0.0,0.0,0.0,0.0,0.0,0.0,0.0,0.0,0.0,0.0,0.0,0.0,0.0,0.0,0.0,0.0,0.0,0.0,0.0,0.0,0.0,0.0,0.0,0.0,0.0,0.0,0.0,0.0,0.0,0.0,0.0,0.0,0.0,0.0,0.0,0.0,0.0,0.0,0.0,0.0,0.0,0.0,0.0,0.0,0.0,0.0,0.0,0.0,0.0,0.0,0.0,0.0,0.0,0.0,0.0,0.0,0.0,0.0,0.0,0.0,0.0,0.0,0.0,0.0,0.0,0.0,0.0,0.0,0.0,0.0,0.0,0.0,0.0,0.0,0.0,0.0,0.0,0.0,0.0,0.0,0.0,0.0,0.0,0.0,0.0,0.0,0.0,0.0,0.0,0.0,0.0,0.0,0.0,0.0,0.0,0.0,0.0,0.0,0.0,0.0,0.0,0.0,0.0,0.0,0.0,0.0,0.0,0.0,0.0,0.0,0.0,0.0,0.0,0.0,0.0,0.0,0.0,0.0,0.0,0.0,0.0,0.0,0.0,0.0,0.0,0.0,0.0,0.0,0.0,0.0,0.0,0.0,0.0,0.0,0.0,0.0,0.0,0.0,0.0,0.0,0.0,0.0,0.0,0.0,0.0,0.0,0.0,0.0,0.0,0.0,0.0,0.0,0.0,0.0,0.0,0.0,0.0,0.0,0.0,0.0,0.0,0.0,0.0,0.0,0.0,0.0,0.0,0.0,0.0,0.0,0.0,0.0,0.0,0.0,0.0,0.0,0.0,0.0,0.0,0.0,0.0,0.0,0.0,0.0,0.0,0.0,0.0,0.0,0.0,0.0,0.0,0.0,0.0,0.0,0.0,0.0,0.0,0.0,0.0,0.0,0.0,0.0,0.0,0.0,0.0,0.0,0.0,0.0,0.0,0.0,0.0,0.0,0.0,0.0,0.0,0.0,0.0,0.0,0.0,0.0,0.0,0.0,0.0,0.0,0.0,0.0,0.0,0.0,0.0,0.0,0.0,0.0,0.0,0.0,0.0,0.0,0.0,0.0,0.0,0.0,0.0,0.0,0.0,0.0,0.0,0.0,0.0,0.0,0.0,0.0,0.0,0.0,0.0,0.0,0.0,0.0,0.0,0.0,0.0,0.0,0.0,0.0,0.0,0.0,0.0,0.0,0.0,0.0,0.0,0.0,0.0,0.0,0.0,0.0,0.0,0.0,0.0,0.0,0.0,0.0,0.0,0.0,0.0,0.0,0.0,0.0,0.0,0.0,0.0,0.0,0.0,0.0,0.0,0.0,0.0,0.0,0.0,0.0,0.0,0.0,0.0,0.0,0.0,0.0,0.0,0.0,0.0,0.0,0.0,0.0,0.0,0.0,0.0,0.0,0.0,0.0,0.0,0.0,0.0,0.0,0.0,0.0,0.0,0.0,0.0,0.0,0.0,0.0,0.0,0.0,0.0,0.0,0.0,0.0,0.0,0.0,0.0,0.0,0.0,0.0,0.0,0.0,0.0,0.0,0.0,0.0,0.0,0.0,0.0,0.0,0.0,0.0,0.0,0.0,0.0,0.0,0.0,0.0,0.0,0.0,0.0,0.0,0.0,0.0,0.0,0.0,0.0,0.0,0.0,0.0,0.0,0.0,0.0,0.0,0.0,0.0,0.0,0.0,0.0,0.0,0.0,0.0,0.0,0.0,0.0,0.0,0.0,0.0,0.0,0.0,0.0,0.0,0.0,0.0,0.0,0.0,0.0,0.0,0.0,0.0,0.0,0.0,0.0,0.0,0.0,0.0,0.0,0.0,0.0,0.0,0.0,0.0,0.0,0.0,0.0,0.0,0.0,0.0,0.0,0.0,0.0,0.0,0.0,0.0,0.0,0.0,0.0,0.0,0.0,0.0,0.0,0.0,0.0,0.0,0.0,0.0,0.0,0.0,0.0,0.0,0.0,0.0,0.0,0.0,0.0,0.0,0.0,0.0,0.0,0.0,0.0,0.0,0.0,0.0,0.0,0.0,0.0,0.0,0.0,0.0,0.0,0.0,0.0,0.0,0.0,0.0,0.0,0.0,0.0,0.0,0.0,0.0,0.0,0.0,0.0,0.0,0.0,0.0,0.0,0.0,0.0,0.0,0.0,0.0,0.0,0.0,0.0,0.0,0.0,0.0,0.0,0.0,0.0,0.0,0.0,0.0,0.0,0.0,0.0,0.0,0.0,0.0,0.0,0.0,0.0,0.0,0.0,0.0,0.0,0.0,0.0,0.0,0.0,0.0,0.0,0.0,0.0,0.0,0.0,0.0,0.0,0.0,0.0,0.0,0.0,0.0,0.0,0.0,0.0,0.0,0.0,0.0,0.0,0.0,0.0,0.0,0.0,0.0,0.0,0.0,0.0,0.0,0.0,0.0,0.0,0.0,0.0,0.0,0.0,0.0,0.0,0.0,0.0,0.0,0.0,0.0,0.0,0.0,0.0,0.0,0.0,0.0,0.0,0.0,0.0,0.0,0.0,0.0,0.0,0.0,0.0,0.0,0.0,0.0,0.0,0.0,0.0,0.0,0.0,0.0,0.0,0.0,0.0,0.0,0.0,0.0,0.0,0.0,0.0,0.0,0.0,0.0,0.0,0.0,0.0,0.0,0.0,0.0,0.0,0.0,0.0,0.0,0.0,0.0,0.0,0.0,0.0,0.0,0.0,0.0,0.0,0.0,0.0,0.0,0.0,0.0,0.0,0.0,0.0,0.0,0.0,0.0,0.0,0.0,0.0,0.0,0.0,0.0,0.0,0.0,0.0,0.0,0.0,0.0,0.0,0.0,0.0,0.0,0.0,0.0,0.0,0.0,0.0,0.0,0.0,0.0,0.0,0.0,0.0,0.0,0.0,0.0,0.0,0.0,0.0,0.0,0.0,0.0,0.0,0.0,0.0,0.0,0.0,0.0,0.0,0.0,0.0,0.0,0.0,0.0,0.0,0.0,0.0,0.0,0.0,0.0,0.0,0.0,0.0,0.0,0.0,0.0,0.0,0.0,0.0,0.0,0.0,0.0,0.0,0.0,0.0,0.0,0.0,0.0,0.0,0.0,0.0,0.0,0.0,0.0,0.0,0.0,0.0,0.0,0.0,0.0,0.0,0.0,0.0,0.0,0.0,0.0,0.0,0.0,0.0,0.0,0.0,0.0,0.0,0.0,0.0,0.0,0.0,0.0,0.0,0.0,0.0,0.0,0.0,0.0,0.0,0.0,0.0,0.0,0.0,0.0,0.0,0.0,0.0,0.0,0.0,0.0,0.0,0.0,0.0,0.0,0.0,0.0,0.0,0.0,0.0,0.0,0.0,0.0,0.0,0.0,0.0,0.0,0.0,0.0,0.0,0.0,0.0,0.0,0.0,0.0,0.0,0.0,0.0,0.0,0.0,0.0,0.0,0.0,0.0,0.0,0.0,0.0,0.0,0.0,0.0,0.0,0.0,0.0,0.0,0.0,0.0,0.0,0.0,0.0,0.0,0.0,0.0,0.0,0.0,0.0,0.0,0.0,0.0,0.0,0.0,0.0,0.0,0.0,0.0,0.0,0.0,0.0,0.0,0.0,0.0,0.0,0.0,0.0,0.0,0.0,0.0,0.0,0.0,0.0,0.0,0.0,0.0,0.0,0.0,0.0,0.0,0.0,0.0,0.0,0.0,0.0,0.0,0.0,0.0,0.0,0.0,0.0,0.0,0.0,0.0,0.0,0.0,0.0,0.0,0.0,0.0,0.0,0.0,0.0,0.0,0.0,0.0,0.0,0.0,0.0,0.0,0.0,0.0,0.0,0.0,0.0,0.0,0.0,0.0,0.0,0.0,0.0,0.0,0.0,0.0,0.0,0.0,0.0,0.0,0.0,0.0,0.0,0.0,0.0,0.0,0.0,0.0,0.0,0.0,0.0,0.0,0.0,0.0,0.0,0.0,0.0,0.0,0.0,0.0,0.0,0.0,0.0,0.0,0.0,0.0,0.0,0.0,0.0,0.0,0.0,0.0,0.0,0.0,0.0,0.0,0.0,0.0,0.0,0.0,0.0,0.0,0.0,0.0,0.0,0.0,0.0,0.0,0.0,0.0,0.0,0.0,0.0,0.0,0.0,0.0,0.0,0.0,0.0,0.0,0.0,0.0,0.0,0.0,0.0,0.0,0.0,0.0,0.0,0.0,0.0,0.0,0.0,0.0,0.0,0.0,0.0,0.0,0.0,0.0,0.0,0.0,0.0,0.0,0.0,0.0,0.0,0.0,0.0,0.0,0.0,0.0,0.0,0.0,0.0,0.0,0.0,0.0,0.0,0.0,0.0,0.0,0.0,0.0,0.0,0.0,0.0,0.0,0.0,0.0,0.0,0.0,0.0,0.0,0.0,0.0,0.0,0.0,0.0,0.0,0.0,0.0,0.0,0.0,0.0,0.0,0.0,0.0,0.0,0.0,0.0,0.0,0.0,0.0,0.0,0.0,0.0,0.0,0.0,0.0,0.0,0.0,0.0,0.0,0.0,0.0,0.0,0.0,0.0,0.0,0.0,0.0,0.0,0.0,0.0,0.0,0.0,0.0,0.0,0.0,0.0,0.0,0.0,-1.4323,-1.3381,0.0,0.0,0.0,0.0,0.0,0.0,0.0,0.0,0.0,0.0,0.0,0.0,0.0,0.0,0.0,0.0,0.0,0.0,0.0,0.0,0.0,0.0,0.0,-0.7841,-0.7899,-0.7899,-0.7899,-0.7899,-0.7899,0.0,0.0,0.0,0.0,0.0,-0.7996,-0.8101,-0.8312,-0.8638,-0.8638,-0.9009,-0.9703,-1.0192,-1.0161,-0.9676,0.0,0.0,0.0,0.0,0.0,0.0,0.0,0.0,0.0,0.0,0.0,0.0,0.0,0.0,0.0,0.0,0.0,0.0,0.0,0.0,0.0,0.0,0.0,0.0,0.0,0.0,0.0,0.0,0.0,0.0,0.0,0.0,0.0,0.0,0.0,0.0,0.0,0.0,0.0,0.0,0.0,0.0,0.0,0.0,0.0,0.0,0.0,0.0,0.0,0.0,0.0,0.0,0.0,0.0,0.0,0.0,0.0,0.0,0.0,0.0,0.0,0.0,0.0,0.0,0.0,0.0,0.0,0.0,0.0,0.0,-1.6435,-1.5436,0.0,0.0,0.0,0.0,0.0,0.0,0.0,0.0,0.0,0.0,0.0,0.0,0.0,0.0,0.0,0.0,0.0,0.0,0.0,0.0,0.0,-0.6541,-0.7764,-0.7899,-0.7899,-0.7899,-0.7899,-0.7899,-0.7899,-0.7899,0.0,0.0,0.0,-0.7899,-0.7899,-0.8019,-0.8342,-0.8905,-0.9122,-0.9991,-1.1477,-1.2256,-1.2158,-1.1321,-1.1309,0.0,0.0,0.0,0.0,0.0,0.0,0.0,0.0,0.0,0.0,0.0,0.0,0.0,0.0,0.0,0.0,0.0,0.0,0.0,0.0,0.0,0.0,0.0,0.0,0.0,0.0,0.0,0.0,0.0,0.0,0.0,0.0,0.0,0.0,0.0,0.0,0.0,0.0,0.0,0.0,0.0,0.0,0.0,0.0,0.0,0.0,0.0,0.0,0.0,0.0,0.0,0.0,0.0,0.0,0.0,0.0,0.0,0.0,0.0,0.0,0.0,0.0,0.0,-2.1495,-2.1628,-2.2069,-2.1499,-2.1421,-2.1593,-1.8904,-1.819,-1.8703,-1.6068,0.0,0.0,0.0,0.0,0.0,0.0,0.0,0.0,0.0,0.0,0.0,0.0,0.0,0.0,0.0,0.0,0.0,0.0,0.0,-0.7062,-0.7824,-0.7899,-0.7899,-0.7899,-0.7899,-0.7899,-0.7899,-0.7899,0.0,0.0,-0.7899,-0.7899,-0.7899,-0.8462,-0.8815,-0.8905,-1.0009,-1.1328,-1.2847,-1.3598,-1.4173,-1.4513,-1.2869,-1.2049,-1.1854,0.0,0.0,0.0,0.0,0.0,0.0,0.0,0.0,0.0,0.0,0.0,0.0,0.0,0.0,0.0,0.0,0.0,0.0,0.0,0.0,0.0,0.0,0.0,0.0,0.0,0.0,0.0,0.0,0.0,0.0,0.0,0.0,0.0,0.0,0.0,0.0,0.0,0.0,0.0,0.0,0.0,-1.2365,-1.3743,0.0,0.0,0.0,0.0,0.0,0.0,0.0,0.0,0.0,0.0,0.0,0.0,0.0,-2.1275,-2.2649,-2.4036,-2.4559,-2.4246,-2.5967,-2.5973,-2.4455,-2.4527,-2.4305,-2.3861,-2.3016,0.0,-2.0683,-1.8861,0.0,0.0,0.0,0.0,0.0,0.0,0.0,0.0,0.0,0.0,0.0,0.0,0.0,0.0,0.0,0.0,0.0,0.0,0.0,0.0,0.0,-0.8237,-0.8462,-0.8462,-0.8814,-0.8874,-0.8492,-0.8462,-0.8297,-0.7914,-0.7899,-0.7899,-0.7899,-0.8552,-0.9626,-1.1092,-1.2774,-1.4133,-1.5146,-1.5837,-1.632,-1.6577,-1.5711,-1.4645,-1.3422,-1.2526,0.0,0.0,0.0,0.0,0.0,0.0,0.0,0.0,0.0,0.0,0.0,0.0,0.0,0.0,0.0,0.0,0.0,0.0,0.0,0.0,0.0,0.0,0.0,0.0,0.0,0.0,0.0,0.0,0.0,0.0,0.0,0.0,0.0,0.0,0.0,0.0,0.0,0.0,0.0,-1.2094,-1.3777,-1.4419,-1.458,-1.4471,0.0,0.0,0.0,0.0,0.0,0.0,0.0,0.0,0.0,-2.2496,-2.3678,-2.4797,-2.5846,-2.6505,-2.6943,-2.7135,-2.8039,-2.7682,-2.6249,-2.6346,-2.5874,-2.5008,-2.4807,-2.4312,-2.3498,-2.1289,-2.0291,-2.0013,0.0,0.0,0.0,0.0,-1.845,-1.8241,0.0,0.0,0.0,0.0,0.0,0.0,0.0,0.0,0.0,0.0,0.0,0.0,-0.8064,-0.8604,-0.8965,-0.9137,-0.9614,-0.9689,-0.9197,-0.8995,-0.8679,-0.8177,-0.7989,-0.7974,-0.8162,-0.9302,-1.1102,-1.3565,-1.5215,-1.6353,-1.6965,-1.7654,-1.7953,-1.7968,-1.8132,-1.7121,-1.5178,-1.4229,-1.2941,0.0,0.0,0.0,0.0,0.0,0.0,0.0,0.0,0.0,0.0,0.0,0.0,0.0,0.0,0.0,0.0,0.0,0.0,0.0,0.0,0.0,0.0,0.0,0.0,0.0,0.0,0.0,0.0,0.0,0.0,0.0,0.0,0.0,0.0,0.0,0.0,0.0,0.0,-1.3768,-1.5358,-1.6109,-1.6525,-1.6498,0.0,0.0,0.0,0.0,0.0,0.0,-2.1096,-2.3308,-2.478,-2.5337,-2.6623,-2.7723,-2.8652,-2.8506,-2.8846,-2.9632,-2.9612,-2.9013,-2.7897,-2.8053,-2.7557,-2.6617,-2.6452,-2.6378,-2.6168,-2.3535,-2.2443,-2.2338,-2.1141,-2.0711,-2.0771,-2.1261,-2.1126,-2.0827,0.0,0.0,0.0,0.0,0.0,0.0,0.0,0.0,0.0,0.0,0.0,-0.8087,-0.877,-0.8875,-0.9152,-0.9794,-0.9875,-0.9875,0.0,-0.9257,-0.889,-0.8845,-0.8237,-0.8207,-0.883,-1.1327,-1.361,-1.5649,-1.6323,-1.6995,-1.7652,-1.8326,-1.8657,-1.8687,-1.9333,-1.8839,-1.7416,-1.5529,-1.4673,-1.4358,0.0,0.0,0.0,0.0,0.0,0.0,0.0,0.0,0.0,0.0,0.0,0.0,0.0,0.0,0.0,0.0,0.0,0.0,0.0,0.0,0.0,0.0,0.0,0.0,0.0,0.0,0.0,0.0,0.0,0.0,0.0,0.0,0.0,0.0,0.0,0.0,0.0,0.0,0.0,-2.0513,-2.0217,0.0,0.0,0.0,0.0,-1.9782,-2.2496,-2.4203,-2.4271,-2.637,-2.7604,-2.7638,-2.845,-2.9568,-3.1004,-3.0389,-3.0511,-3.1381,-3.1302,-3.0651,-2.9504,-3.0073,-3.0011,-2.934,-2.8727,-2.8442,-2.8248,-2.5561,-2.4455,-2.438,-2.3684,-2.34,-2.3415,-2.3445,-2.343,-2.3415,0.0,0.0,0.0,-0.3306,-0.3818,-0.4407,-0.4871,-0.5725,-0.654,-0.7157,-0.786,-0.8445,-0.8859,-0.9638,-1.0219,-1.0464,-1.0877,-1.0937,-1.0508,-0.9899,-0.9719,-1.0114,-0.9524,-1.0093,-1.1999,-1.3388,-1.5052,-1.7026,-1.7669,-1.8326,-1.8986,-1.9226,-1.9348,-1.9346,-1.9588,-1.942,-1.8897,-1.7325,-1.5949,-1.4691,-1.3289,-1.1824,0.0,0.0,0.0,0.0,0.0,0.0,0.0,0.0,0.0,0.0,0.0,0.0,0.0,0.0,0.0,0.0,0.0,0.0,0.0,0.0,0.0,0.0,0.0,0.0,0.0,0.0,0.0,0.0,0.0,0.0,0.0,0.0,0.0,0.0,0.0,0.0,0.0,-2.1072,-2.1786,0.0,-2.1536,-2.2344,-2.2902,-2.2902,-2.522,-2.6607,-2.6607,-2.835,-2.9552,-2.9971,-3.0777,-3.1663,-3.2611,-3.195,-3.1778,-3.2069,-3.1622,-3.0979,-3.0184,-3.0402,-3.0158,-2.9592,-2.9367,-2.922,-2.916,-2.8203,-2.7051,-2.5824,-2.5151,-2.4896,-2.4896,-2.4896,-2.4896,-2.4896,-0.3424,-0.3391,0.0,-0.3306,-0.3962,-0.4688,-0.5219,-0.6038,-0.6839,-0.7517,-0.8202,-0.8783,-0.9195,-1.0174,-1.0887,-1.1121,-1.154,-1.161,-1.1166,-1.0553,-1.0374,-1.0783,-1.0847,-1.1895,-1.4094,-1.5216,-1.6518,-1.8042,-1.8717,-1.9256,-1.9708,-1.9708,-1.9708,-1.9708,-1.9708,-1.9708,-1.9648,-1.8747,-1.7505,-1.6039,-1.5142,-1.3857,-1.2373,0.0,0.0,0.0,0.0,0.0,0.0,0.0,0.0,0.0,0.0,0.0,0.0,0.0,0.0,0.0,0.0,0.0,0.0,0.0,0.0,0.0,0.0,0.0,0.0,0.0,0.0,0.0,0.0,0.0,0.0,0.0,0.0,0.0,0.0,0.0,-2.1563,-2.2578,-2.3545,-2.4052,-2.3816,-2.4898,-2.5609,-2.5609,-2.7689,-2.8939,-2.8939,-3.0203,-3.1158,-3.1591,-3.2106,-3.2605,-3.3095,-3.2669,-3.2456,-3.2466,-3.1757,-3.1223,-3.083,-3.083,-3.0603,-3.0223,-2.9998,-2.9894,-2.9879,-2.9696,-2.8801,-2.756,-2.7111,-2.6946,-2.6946,-2.6946,-2.6811,-2.6587,-0.2901,-0.3116,-0.3306,-0.3306,-0.4399,-0.5292,-0.5292,-0.6603,-0.7583,-0.7583,-0.8375,-0.9182,-0.9839,-1.0464,-1.1091,-1.1745,-1.1805,-1.1805,-1.1805,-1.1166,-1.0827,-1.0887,-1.2205,-1.3553,-1.4901,-1.6757,-1.8057,-1.8732,-1.9375,-1.9708,-1.9708,-1.9708,-1.9708,-1.9708,-1.9708,-1.9708,-1.9708,-1.9708,-1.9333,-1.8627,-1.7294,-1.6383,-1.5619,0.0,0.0,0.0,0.0,0.0,0.0,0.0,0.0,0.0,0.0,0.0,0.0,0.0,0.0,0.0,0.0,0.0,0.0,0.0,0.0,0.0,0.0,0.0,0.0,0.0,0.0,0.0,0.0,0.0,0.0,0.0,0.0,0.0,-2.0111,-2.0842,-2.2429,-2.5306,-2.5677,-2.5964,-2.6674,-2.7435,-2.7873,-2.7873,-2.9952,-3.1219,-3.1238,-3.1961,-3.2387,-3.2387,-3.242,-3.2469,-3.2565,-3.2515,-3.2534,-3.2614,-3.1866,-3.1511,-3.1511,-3.1511,-3.1511,-3.1466,-3.0821,-3.0537,-3.0492,-2.9894,-2.9666,-2.9666,-2.9621,-2.9606,-2.9606,-2.9606,-2.9175,-2.8532,-0.3021,-0.3186,-0.3306,-0.3306,-0.4289,-0.5087,-0.5087,-0.6343,-0.7303,-0.7303,-0.866,-0.9689,-0.9875,-1.0877,-1.1595,-1.1775,-1.1805,-1.1805,-1.1805,-1.1166,-1.144,-1.2915,-1.468,-1.6263,-1.7595,-1.8149,-1.8747,-1.9438,-1.9618,-1.9708,-1.9708,-1.9708,-1.9708,-1.9708,-1.9708,-1.9708,-1.9708,-1.9708,-1.9588,-1.9346,-1.8491,-1.7474,-1.6338,0.0,0.0,0.0,0.0,0.0,0.0,0.0,0.0,0.0,0.0,0.0,0.0,0.0,0.0,0.0,0.0,0.0,0.0,0.0,0.0,0.0,0.0,0.0,0.0,0.0,0.0,0.0,0.0,0.0,0.0,0.0,-2.0629,-2.2677,-2.2615,-2.4107,-2.5513,-2.6435,-2.7443,-2.7969,-2.7734,-2.8817,-2.9562,-2.9622,-3.068,-3.1567,-3.2045,-3.1815,-3.1915,-3.2458,-3.253,-3.3016,-3.4015,-3.3054,-3.284,-3.3313,-3.2076,-3.1511,-3.1511,-3.1511,-3.1511,-3.1496,-3.1301,-3.1227,-3.1212,-3.1032,-3.0972,-3.0883,-2.9953,-2.9606,-2.9606,-2.9606,-2.946,-2.928,-0.2999,-0.3172,-0.3365,-0.36,-0.4386,-0.5106,-0.5415,-0.6455,-0.7241,-0.7356,-0.8838,-0.989,-0.989,-1.1042,-1.1805,-1.1805,-1.1805,-1.1805,-1.1805,-1.17,-1.2538,-1.4543,-1.5965,-1.7324,-1.8672,-1.8972,-1.9301,-1.9708,-1.9708,-1.9708,-1.9708,-1.9708,-1.9708,-1.9708,-1.9708,-1.9708,-1.9708,-1.9708,-1.9708,-1.9678,-1.9271,-1.8657,-1.7863,-1.6937,-1.6114,-1.5307,-1.4391,-1.3688,-1.3163,-1.2777,0.0,0.0,0.0,0.0,0.0,0.0,0.0,0.0,0.0,0.0,0.0,0.0,0.0,0.0,0.0,0.0,0.0,0.0,0.0,0.0,0.0,0.0,0.0,0.0,-2.2699,-2.4796,-2.5131,-2.633,-2.7238,-2.7472,-2.8431,-2.9081,-2.9067,-2.9794,-3.0411,-3.0748,-3.1429,-3.2023,-3.2423,-3.21,-3.21,-3.2536,-3.2585,-3.2841,-3.3282,-3.2826,-3.2641,-3.2718,-3.1894,-3.1511,-3.1511,-3.1511,-3.1511,-3.1511,-3.1511,-3.1511,-3.1511,-3.1511,-3.1511,-3.1436,0.0,0.0,0.0,0.0,-2.9968,-2.9924,-0.2896,-0.3116,-0.3466,-0.4,-0.4594,-0.5234,-0.5962,-0.6716,-0.728,-0.753,-0.8861,-0.9794,-0.9794,-1.0862,-1.161,-1.1685,-1.1685,-1.1745,-1.1895,-1.2609,-1.3895,-1.5829,-1.6562,-1.7518,-1.8792,-1.9408,-1.9708,-1.9708,-1.9708,-1.9708,-1.9708,-1.9708,-1.9708,-1.9708,-1.9708,-1.9708,-1.9708,-1.9708,-1.9708,-1.9708,-1.9708,-1.9708,-1.9573,-1.8371,-1.7878,-1.7669,-1.6533,-1.5365,-1.4335,-1.426,0.0,0.0,0.0,0.0,0.0,0.0,0.0,0.0,0.0,0.0,0.0,0.0,0.0,0.0,0.0,0.0,0.0,0.0,0.0,0.0,0.0,0.0,0.0,0.0,-2.4577,-2.6444,-2.7202,-2.7697,-2.8061,-2.8297,-2.8913,-2.9588,-3.0241,-3.0426,-3.0776,-3.1388,-3.2038,-3.2409,-3.251,0.0,0.0,0.0,0.0,-3.2341,-3.185,-3.2418,-3.2418,-3.185,-3.1749,-3.169,-3.1615,-3.1615,-3.157,-3.1511,-3.1511,-3.1511,-3.1511,-3.1511,-3.1511,-3.1511,-3.1511,-3.1511,-3.1436,-3.0823,-3.0612,-3.0537,-0.2896,-0.3116,-0.3466,-0.4,-0.4594,-0.52,-0.5779,-0.6624,-0.7225,-0.7272,-0.8345,-0.9092,-0.9092,-0.9794,-1.0458,-1.0957,-1.0992,-1.145,0.0,0.0,-1.5052,-1.6458,-1.7669,-1.8687,-1.9498,-1.9633,-1.9708,-1.9708,-1.9708,-1.9708,-1.9708,-1.9708,-1.9708,-1.9708,-1.9708,-1.9708,-1.9708,-1.9708,-1.9708,-1.9708,-1.9708,-1.9708,-1.9678,-1.9405,-1.8972,-1.8461,-1.8238,-1.7969,-1.767,-1.713,-1.6756,-1.6293,-1.4707,0.0,0.0,0.0,0.0,0.0,0.0,0.0,0.0,0.0,0.0,0.0,0.0,0.0,0.0,0.0,0.0,0.0,0.0,0.0,0.0,-2.3271,-2.5527,-2.7098,-2.6801,-2.8095,-2.8938,-2.8498,-2.9482,-3.0043,-2.9724,-3.0606,-3.1306,-3.1529,-3.1634,-3.1934,-3.2547,-3.2043,-3.1966,-3.2493,-3.2524,-3.2969,-3.3923,-3.3515,-3.3515,-3.3894,-3.3381,0.0,-3.2303,-3.2303,-3.2004,-3.1511,-3.1511,-3.1511,-3.1511,-3.1511,-3.1511,-3.1511,-3.1511,-3.1511,-3.1481,-3.1346,-3.1316,-3.1286,-0.2896,-0.3116,-0.3567,-0.4405,-0.4802,-0.5268,-0.6076,-0.6686,-0.7048,-0.7048,-0.8048,-0.8741,-0.871,-0.941,-1.0024,-1.0314,-1.0927,0.0,0.0,-1.4361,-1.5859,-1.7145,-1.8162,-1.9016,-1.9693,-1.9708,-1.9708,-1.9708,-1.9708,-1.9708,-1.9708,-1.9708,-1.9708,-1.9708,-1.9708,-1.9708,-1.9708,-1.9708,-1.9708,-1.9708,-1.9708,-1.9708,-1.9708,-1.9708,-1.9498,-1.9196,-1.9196,-1.8986,-1.8657,-1.8311,-1.7983,-1.7534,-1.6562,-1.559,-1.4541,0.0,0.0,0.0,0.0,0.0,0.0,0.0,0.0,0.0,0.0,0.0,0.0,0.0,0.0,-1.9987,-2.0591,0.0,-2.445,-2.4995,-2.6444,-2.7519,-2.7585,-2.866,-2.9224,-2.861,-2.9366,-2.9964,-2.9988,-3.0578,-3.1138,-3.1503,-3.153,-3.1668,-3.2035,-3.2027,-3.2138,-3.2497,-3.2841,-3.3322,-3.3999,-3.3653,-3.3653,-3.3999,-3.3653,-3.332,-3.3006,-3.3006,-3.2826,-3.2512,-3.2512,-3.2303,-3.1974,-3.1645,-3.1511,-3.1511,-3.1511,-3.1511,-3.1511,-3.1511,-3.1511,-3.1511,-0.2892,-0.3177,-0.3747,-0.4821,-0.5086,-0.5475,-0.6449,-0.6774,-0.6908,-0.6908,-0.7734,-0.8335,-0.8323,-0.9004,-0.9511,-0.9689,0.0,0.0,0.0,-1.4796,-1.6488,-1.7637,-1.8478,-1.9151,-1.9693,-1.9708,-1.9708,-1.9708,-1.9708,-1.9708,-1.9708,-1.9708,-1.9708,-1.9708,-1.9708,-1.9708,-1.9708,-1.9708,-1.9708,-1.9708,-1.9708,-1.9708,-1.9708,-1.9708,-1.9708,-1.9708,-1.9708,-1.9271,-1.8732,-1.8852,-1.8446,-1.7893,-1.7893,-1.7191,-1.6203,-1.5396,-1.4332,0.0,0.0,0.0,0.0,0.0,0.0,0.0,0.0,0.0,-1.8551,-1.8805,-2.0928,-2.2812,-2.3035,-2.4425,-2.5826,-2.666,-2.7302,-2.7966,-2.8685,-2.921,-2.9338,-2.8865,-2.9316,-2.9907,-3.0458,-3.0627,-3.0913,-3.1466,-3.1511,-3.157,-3.169,-3.2198,-3.2632,-3.2886,-3.341,-3.3754,-3.3888,-3.3888,-3.3888,-3.3888,-3.3888,-3.3814,-3.3679,-3.3679,-3.3619,-3.3499,-3.3499,-3.3185,-3.2662,-3.2108,-3.1809,-3.169,-3.169,-3.1615,-3.1511,-3.1511,-3.1511,-3.1511,-0.2883,-0.3411,-0.4081,-0.4859,-0.5394,-0.5913,-0.6511,-0.6774,-0.6908,-0.6908,-0.7172,-0.7438,-0.7683,-0.7801,-0.8171,-0.8949,0.0,0.0,-1.2756,-1.5187,-1.6936,-1.7669,-1.8912,-1.9633,-1.9708,-1.9708,-1.9708,-1.9708,-1.9708,-1.9708,-1.9708,-1.9708,-1.9708,-1.9708,-1.9708,-1.9708,-1.9708,-1.9708,-1.9708,-1.9708,-1.9708,-1.9708,-1.9708,-1.9708,-1.9708,-1.9708,-1.9708,-1.9271,-1.8792,-1.9393,-1.9136,-1.8597,-1.8597,-1.8493,-1.8134,-1.6861,0.0,-1.5454,-1.5379,-1.5409,-1.5903,-1.77,-1.7818,-1.8253,0.0,0.0,-2.1575,-2.2712,-2.3676,-2.4357,-2.438,-2.5526,-2.6675,-2.7375,-2.804,-2.87,-2.9397,-2.9555,-2.9567,-2.9502,-3.0036,-3.0426,-3.0492,-3.1032,-3.1421,-3.1496,-3.1511,-3.1765,-3.2348,-3.2452,-3.3051,-3.4249,-3.4354,-3.4666,-3.5265,-3.528,-3.528,-3.528,-3.528,-3.4951,-3.4399,-3.4399,-3.4038,-3.3499,-3.3499,-3.3455,-3.338,-3.3305,-3.2931,-3.2378,-3.2378,-3.2019,-3.1511,-3.1511,-3.1511,-3.1511,-0.2834,-0.3568,-0.4334,-0.4799,-0.5395,-0.5976,-0.6511,-0.6676,-0.6723,-0.6723,-0.6903,-0.7069,-0.7179,-0.7438,-0.7789,-0.8281,-1.0099,-1.1495,-1.2175,-1.4692,-1.6622,-1.7669,-1.8612,-1.9286,-1.9693,-1.9708,-1.9708,-1.9708,-1.9708,-1.9708,-1.9708,-1.9708,-1.9708,-1.9708,-1.9708,-1.9708,-1.9708,-1.9708,-1.9708,-1.9708,-1.9708,-1.9708,-1.9708,-1.9708,-1.9468,-1.9106,-1.9106,-1.8942,0.0,0.0,-1.8612,-1.8625,-1.8237,-1.8117,-1.8012,-1.7443,-1.6816,0.0,-1.7281,-1.8059,0.0,0.0,-2.0797,-2.15,-2.2892,-2.331,-2.3528,-2.4066,-2.5031,-2.5764,-2.5764,-2.6527,-2.7405,0.0,-2.8412,-2.8966,-2.9983,-2.9804,-2.9714,-3.0073,-3.0342,-3.0507,-3.0507,-3.1107,-3.1511,-3.1511,-3.1854,-3.2183,-3.2497,-3.3245,-3.3903,-3.4488,-3.4861,-3.522,-3.5504,-3.5504,-3.5504,-3.5504,-3.5504,-3.5355,-3.507,-3.507,-3.4921,-3.4637,-3.4247,-3.4068,-3.4038,-3.3649,-3.3335,-3.3036,-3.2662,-3.2318,-3.2034,-3.1645,-3.1511,-3.1511,-0.2793,-0.3631,-0.4444,-0.4745,-0.5408,-0.6067,-0.6528,-0.6599,-0.6599,-0.6599,-0.6723,-0.6841,-0.6899,-0.7368,-0.7717,-0.782,-0.9645,-1.1017,-1.148,-1.4212,-1.6203,-1.713,-1.8147,-1.8927,-1.9405,-1.9618,-1.9708,-1.9708,-1.9708,-1.9708,-1.9708,-1.9708,-1.9708,-1.9708,-1.9708,-1.9708,-1.9708,-1.9708,-1.9708,-1.9708,-1.9708,-1.9708,-1.9678,-1.948,-1.9121,-1.8702,-1.8702,-1.8446,0.0,0.0,-1.7758,-1.8057,-1.7594,-1.7548,-1.7743,-1.7923,-1.7773,-1.7743,-1.8717,0.0,0.0,-2.2009,-2.3056,-2.3984,-2.4343,-2.4807,-2.5187,-2.5382,-2.6198,-2.6881,-2.6881,-2.727,-2.7884,-2.8727,-2.8876,-2.9325,-3.0612,-3.0238,-2.9939,-3.0223,-3.0253,-3.0253,-3.0253,-3.1002,-3.1511,-3.1511,-3.2108,-3.2587,-3.2781,-3.3858,-3.4593,-3.4788,-3.525,-3.5504,-3.5504,-3.5504,-3.5504,-3.5504,-3.5504,-3.5504,-3.5504,-3.5504,-3.5504,-3.5474,-3.4981,-3.4788,-3.4726,-3.4247,-3.3933,-3.3709,-3.3036,-3.2677,-3.2407,-3.175,-3.1511,-3.1511,-0.2774,-0.3555,-0.433,-0.4732,-0.5572,-0.6286,-0.6552,-0.6599,-0.6599,-0.6599,-0.6608,-0.6685,-0.6883,-0.7492,-0.782,-0.7635,-0.9573,-1.0812,-1.0827,-1.3957,-1.5829,-1.5858,-1.767,-1.8717,-1.8732,-1.9378,-1.9708,-1.9708,-1.9708,-1.9708,-1.9708,-1.9708,-1.9708,-1.9708,-1.9708,-1.9708,-1.9708,-1.9708,-1.9708,-1.9708,-1.9708,-1.9708,-1.9633,-1.8972,-1.8717,-1.8702,-1.8702,0.0,0.0,0.0,-1.6741,-1.6756,-1.6741,-1.7174,0.0,-1.8493,-1.9106,0.0,0.0,0.0,-2.1964,-2.3236,-2.4051,-2.4903,-2.6213,-2.6512,-2.6707,-2.7375,-2.754,-2.757,-2.757,-2.7585,-2.8034,-2.9367,-2.9577,-2.9998,-3.1286,-3.0883,-3.0253,-2.9696,-2.9636,-2.9636,0.0,-3.0748,-3.1511,-3.1511,-3.2108,-3.2796,-3.3425,-3.4098,-3.4786,-3.5444,-3.5489,-3.5504,-3.5504,-3.5504,-3.5504,-3.5504,-3.5504,-3.5504,-3.5504,-3.5504,-3.5504,-3.5504,-3.5489,-3.5474,-3.5474,-3.5459,-3.5055,-3.4414,-3.3724,-3.308,-3.2407,-3.175,-3.1511,-3.1511,-0.3005,-0.3571,-0.4232,-0.4945,-0.5585,-0.6135,-0.6547,-0.6599,-0.6599,-0.6599,-0.6599,0.0,0.0,0.0,0.0,0.0,-0.8871,-0.9899,-1.0738,-1.2699,-1.4405,-1.5739,-1.6817,-1.7788,-1.8687,-1.8927,-1.9241,-1.9708,-1.9708,-1.9708,-1.9708,-1.9708,-1.9708,-1.9708,-1.9708,-1.9708,-1.9708,-1.9708,-1.9708,-1.9708,-1.9708,-1.9708,-1.9678,-1.9453,-1.8521,-1.7369,0.0,0.0,0.0,0.0,-1.574,-1.6099,-1.6099,0.0,0.0,-1.8508,0.0,0.0,0.0,0.0,-2.3827,-2.4717,-2.5435,-2.6153,-2.7061,-2.727,-2.721,-2.6986,-2.6941,-2.6806,-2.6348,-2.6632,-2.739,-2.8712,-2.9295,-3.0043,-3.1316,-3.0913,-3.0417,-3.0223,-3.0193,0.0,0.0,0.0,0.0,-3.1466,-3.2512,-3.326,-3.3484,-3.4562,-3.5265,-3.5489,-3.5504,-3.5504,-3.5504,-3.5504,-3.5504,-3.5504,-3.5504,-3.5504,-3.5504,-3.5504,-3.5504,-3.5504,-3.5504,-3.5504,-3.5504,-3.5504,-3.537,-3.51,-3.4412,-3.3739,-3.308,-3.2392,-3.1884,-3.1511,-0.3121,-0.3574,-0.4154,-0.495,-0.5539,0.0,0.0,0.0,0.0,0.0,0.0,0.0,0.0,0.0,0.0,0.0,0.0,-0.9172,-1.006,-1.1576,-1.3014,-1.4302,-1.5426,-1.6428,-1.7296,-1.7535,-1.7969,-1.8627,-1.8627,-1.8747,-1.8986,-1.8986,-1.8986,-1.8986,-1.8986,-1.9106,-1.9333,-1.9091,-1.9256,-1.9663,-1.9166,-1.8986,-1.8927,-1.848,-1.7356,0.0,0.0,0.0,0.0,-1.4511,0.0,0.0,0.0,0.0,0.0,0.0,0.0,-2.1799,0.0,-2.3633,-2.5113,-2.5794,-2.6452,-2.7076,-2.7495,-2.7405,-2.7061,-2.6378,-2.6048,-2.5689,-2.5016,-2.5241,-2.6123,-2.7934,-2.8618,-2.949,-3.1256,-3.0913,-3.0507,-3.0507,-3.0507,-3.0597,0.0,0.0,0.0,-3.1466,-3.2961,-3.3739,-3.3499,-3.4771,-3.5504,-3.5504,-3.5504,-3.5504,-3.5504,-3.5504,-3.5504,-3.5504,-3.5504,-3.5504,-3.5504,-3.5504,-3.5504,-3.5504,-3.5504,-3.5504,-3.5504,-3.5504,-3.5504,-3.5429,-3.4741,-3.4249,-3.3739,-3.2841,-3.2213,-3.1824,-0.3156,-0.3594,-0.4119,0.0,0.0,0.0,0.0,0.0,0.0,0.0,0.0,0.0,0.0,0.0,0.0,0.0,0.0,0.0,-0.8857,-1.0648,0.0,-1.1745,-1.363,-1.4707,-1.4751,-1.5409,-1.6054,-1.6636,-1.6636,-1.698,-1.7609,-1.7609,-1.7609,-1.7609,-1.7609,-1.7968,-1.8553,-1.7893,-1.8341,-1.942,-1.8132,-1.7609,-1.7474,-1.6263,0.0,0.0,0.0,0.0,0.0,0.0,0.0,0.0,0.0,0.0,0.0,0.0,0.0,-2.2113,-2.3355,-2.4687,-2.5854,-2.6482,-2.7136,-2.7585,-2.7555,-2.7031,-2.6348,-2.5644,-2.4963,-2.4291,0.0,0.0,-2.4507,-2.7121,-2.763,-2.8603,-3.1137,-3.0972,-3.0612,0.0,0.0,0.0,0.0,0.0,0.0,-3.16,0.0,-3.4204,-3.3574,-3.4801,-3.5504,-3.5504,-3.5504,-3.5504,-3.5504,-3.5504,-3.5504,-3.5504,-3.5504,-3.5504,-3.5504,-3.5504,-3.5504,-3.5504,-3.5504,-3.5504,-3.5504,-3.5504,-3.5504,-3.5444,-3.4786,-3.4533,-3.4354,-3.3036,-3.2542,-3.2392,0.0,0.0,0.0,0.0,0.0,0.0,0.0,0.0,0.0,0.0,0.0,0.0,0.0,0.0,0.0,0.0,0.0,0.0,0.0,0.0,0.0,0.0,0.0,-1.3538,-1.4049,-1.4707,0.0,0.0,0.0,-1.6129,-1.6278,-1.6278,-1.6278,-1.6278,-1.6278,-1.6637,-1.7174,-1.6548,-1.6742,-1.7399,0.0,-1.6278,-1.6248,0.0,0.0,0.0,0.0,0.0,0.0,0.0,0.0,0.0,0.0,0.0,-2.0423,0.0,0.0,-2.4036,-2.4881,-2.6063,-2.7136,-2.73,-2.7465,-2.7465,-2.6986,-2.6333,-2.5525,-2.4358,-2.361,-2.2987,-2.2308,0.0,0.0,-2.6572,-2.8124,0.0,-3.1271,-3.178,0.0,0.0,0.0,-3.2796,-3.2976,-3.344,0.0,0.0,-3.3469,-3.3888,-3.4234,-3.504,-3.5504,-3.5504,-3.5504,-3.5504,-3.5504,-3.5504,-3.5504,-3.5504,-3.5504,-3.5504,-3.5504,-3.5504,-3.5504,-3.5504,-3.5504,-3.5504,-3.5504,-3.5504,-3.5504,-3.5489,-3.531,-3.4936,-3.4414,-3.3544,-3.2931,-3.2392,0.0,0.0,0.0,0.0,0.0,0.0,0.0,0.0,0.0,0.0,0.0,0.0,0.0,0.0,0.0,0.0,0.0,0.0,0.0,0.0,0.0,0.0,0.0,-1.1711,-1.2089,-1.2718,-1.3226,0.0,0.0,0.0,0.0,-1.4781,-1.4931,-1.4931,-1.4931,-1.5276,-1.5815,-1.5186,0.0,0.0,0.0,0.0,0.0,0.0,0.0,0.0,0.0,0.0,0.0,0.0,0.0,-1.9346,-2.0621,-2.1261,-2.1844,-2.3146,0.0,-2.5187,-2.5869,-2.6806,-2.76,-2.76,-2.7375,-2.7001,-2.6303,-2.542,-2.4268,-2.2667,-2.2054,0.0,-2.0183,0.0,0.0,0.0,0.0,0.0,-3.0793,-3.1869,-3.2512,0.0,-3.335,0.0,-3.3918,-3.4294,-3.4488,0.0,-3.4382,-3.4397,-3.4503,-3.513,-3.5504,-3.5504,-3.5504,-3.5504,-3.5504,-3.5504,-3.5504,-3.5504,-3.5504,-3.5504,-3.5504,-3.5504,-3.5504,-3.5504,-3.5504,-3.5504,-3.5504,-3.5504,-3.5504,-3.5504,-3.5504,-3.5265,-3.4816,-3.3858,-3.326,-3.2811,0.0,0.0,0.0,0.0,0.0,0.0,0.0,0.0,0.0,0.0,0.0,0.0,0.0,0.0,0.0,0.0,0.0,0.0,0.0,0.0,0.0,0.0,0.0,-0.9764,-0.9764,0.0,0.0,0.0,0.0,0.0,0.0,0.0,0.0,0.0,0.0,0.0,0.0,0.0,0.0,0.0,0.0,0.0,0.0,0.0,0.0,0.0,0.0,0.0,0.0,0.0,-1.8792,-2.0292,-2.2119,-2.2823,-2.3197,-2.438,-2.5202,-2.5884,-2.6542,-2.7165,-2.76,-2.76,-2.7031,-2.6288,-2.563,-2.4298,-2.2712,-2.0932,0.0,-1.9806,-1.8147,-1.9403,-2.138,-2.34,0.0,-2.75,-3.0133,-3.1584,-3.2422,-3.2617,-3.3724,-3.4533,-3.4638,-3.4638,-3.4861,-3.5459,-3.5504,-3.525,-3.4668,-3.5175,-3.5504,-3.5504,-3.5504,-3.5504,-3.5504,-3.5504,-3.5504,-3.5504,-3.5504,-3.5504,-3.5504,-3.5504,-3.5504,-3.5504,-3.5504,-3.5504,-3.5504,-3.5504,-3.5504,-3.5489,-3.54,-3.537,-3.5205,-3.3858,-3.3365,-3.3185,0.0,0.0,0.0,0.0,0.0,0.0,0.0,0.0,0.0,0.0,0.0,0.0,0.0,0.0,0.0,0.0,0.0,0.0,0.0,0.0,0.0,0.0,0.0,0.0,0.0,0.0,0.0,0.0,0.0,0.0,0.0,0.0,0.0,0.0,0.0,0.0,0.0,0.0,0.0,0.0,0.0,0.0,0.0,0.0,0.0,0.0,0.0,0.0,0.0,0.0,-1.9794,-2.15,-2.2418,-2.3415,-2.441,-2.5187,-2.5899,-2.6557,-2.724,-2.751,-2.76,-2.76,-2.6686,-2.5615,-2.4933,-2.2915,0.0,0.0,0.0,-1.8281,-1.8493,-1.9717,0.0,-2.4022,0.0,0.0,0.0,0.0,-3.2079,0.0,0.0,0.0,0.0,0.0,0.0,0.0,-3.5504,-3.5444,-3.5325,-3.5444,-3.5504,-3.5504,-3.5504,-3.5504,-3.5504,-3.5504,-3.5504,-3.5504,-3.5504,-3.5504,-3.5504,-3.5504,-3.5504,-3.5504,-3.5504,-3.5504,-3.5504,-3.5504,-3.5504,-3.5444,-3.4876,-3.4651,-3.4518,-3.317,-3.2677,-3.2572,0.0,0.0,0.0,0.0,0.0,0.0,0.0,0.0,0.0,0.0,-0.6599,0.0,0.0,0.0,0.0,0.0,0.0,0.0,0.0,0.0,0.0,0.0,0.0,0.0,0.0,0.0,0.0,0.0,0.0,0.0,0.0,0.0,0.0,0.0,0.0,0.0,0.0,0.0,0.0,0.0,0.0,0.0,0.0,0.0,0.0,0.0,0.0,0.0,0.0,0.0,-1.8749,-2.0946,-2.2643,-2.3834,-2.4799,-2.5824,-2.6348,-2.6761,-2.742,-2.76,-2.751,-2.7165,-2.6078,-2.4724,-2.3379,0.0,0.0,0.0,0.0,-1.7594,-1.7236,0.0,0.0,0.0,0.0,0.0,0.0,0.0,0.0,0.0,0.0,0.0,0.0,0.0,0.0,0.0,-3.5504,-3.5504,-3.5504,-3.5504,-3.5504,-3.5504,-3.5504,-3.5504,-3.5504,-3.5504,-3.5504,-3.5504,-3.5504,-3.5504,-3.5504,-3.5504,-3.5504,-3.5504,-3.5504,-3.5504,-3.5504,-3.5504,-3.5295,-3.4936,-3.4638,-3.4027,-3.3189,-3.2188,-3.1545,-3.1104,0.0,0.0,0.0,0.0,0.0,0.0,0.0,0.0,-0.6599,-0.6599,-0.6599,-0.6689,-0.6944,-0.6927,0.0,0.0,0.0,0.0,0.0,0.0,0.0,0.0,0.0,0.0,0.0,0.0,0.0,0.0,0.0,0.0,0.0,0.0,0.0,0.0,0.0,0.0,0.0,0.0,0.0,0.0,0.0,0.0,0.0,0.0,0.0,0.0,0.0,0.0,0.0,0.0,-1.7162,-1.9303,-2.1769,-2.331,-2.4448,-2.56,-2.6153,-2.6527,-2.721,-2.748,-2.7435,-2.6776,-2.5495,-2.3902,-2.2113,-2.0438,0.0,0.0,0.0,-1.7041,-1.6159,0.0,0.0,0.0,0.0,0.0,0.0,0.0,0.0,0.0,0.0,0.0,0.0,0.0,0.0,0.0,-3.5504,-3.5504,-3.5504,-3.5504,-3.5504,-3.5504,-3.5504,-3.5504,-3.5504,-3.5504,-3.5504,-3.5504,-3.5504,-3.5504,-3.5504,-3.5504,-3.5504,-3.5504,-3.5279,-3.5237,-3.528,-3.5085,-3.4716,-3.4247,-3.3926,-3.3054,-3.1884,-3.1048,-3.0334,-2.9702,0.0,0.0,0.0,0.0,0.0,0.0,0.0,0.0,-0.6599,-0.6599,-0.6599,-0.6744,-0.713,-0.7012,0.0,0.0,0.0,0.0,0.0,0.0,0.0,0.0,0.0,0.0,0.0,0.0,0.0,0.0,0.0,0.0,0.0,0.0,0.0,0.0,0.0,0.0,0.0,0.0,0.0,0.0,0.0,0.0,0.0,0.0,0.0,0.0,0.0,0.0,0.0,0.0,0.0,-1.6518,-1.8508,-2.0857,-2.3017,-2.367,0.0,0.0,-2.6497,-2.7151,-2.7435,-2.6776,-2.5121,-2.334,-2.1994,0.0,0.0,0.0,-1.6323,-1.6114,-1.6547,-1.6816,0.0,0.0,0.0,0.0,0.0,0.0,0.0,0.0,0.0,0.0,0.0,0.0,0.0,0.0,-3.5504,-3.5504,-3.5504,-3.5504,-3.5504,-3.5504,-3.5504,-3.5504,-3.5504,-3.5504,-3.5504,-3.5504,-3.5504,-3.5504,-3.5504,-3.5504,-3.5504,-3.5439,-3.4543,-3.4306,-3.453,-3.3664,-3.3413,-3.3453,-3.2063,-3.143,-3.113,-2.9705,-2.918,-2.9071,0.0,0.0,0.0,0.0,0.0,0.0,0.0,-0.6051,-0.6599,-0.6599,-0.6698,-0.6836,-0.7004,-0.7197,0.0,0.0,0.0,0.0,0.0,0.0,0.0,0.0,0.0,0.0,0.0,0.0,0.0,0.0,0.0,0.0,0.0,0.0,0.0,0.0,0.0,0.0,0.0,0.0,0.0,0.0,0.0,0.0,0.0,0.0,0.0,0.0,0.0,0.0,0.0,0.0,0.0,0.0,-1.5635,-1.728,0.0,0.0,-2.3385,-2.4627,-2.5704,-2.6183,-2.6333,-2.6063,-2.4507,-2.2613,-2.0891,0.0,0.0,-1.6368,-1.5964,-1.5873,-1.6099,-1.6458,-1.7189,0.0,-1.9223,-2.0617,0.0,0.0,0.0,0.0,0.0,0.0,0.0,0.0,0.0,-3.4643,-3.4075,-3.3754,-3.3754,-3.4854,-3.5504,-3.5504,-3.5504,-3.5504,-3.5504,-3.4905,-3.461,-3.4576,-3.4007,-3.3754,-3.3739,-3.3402,-3.3445,-3.3711,-3.2636,-3.2449,-3.2816,-3.2113,-3.1654,-3.1314,-3.0726,-2.9923,-2.9017,-2.8444,-2.792,-2.7517,0.0,0.0,0.0,0.0,0.0,0.0,-0.4966,-0.5783,-0.642,-0.6574,-0.6774,-0.6919,-0.698,-0.7284,-0.7545,-0.7679,0.0,0.0,0.0,0.0,0.0,0.0,0.0,0.0,0.0,0.0,0.0,0.0,0.0,0.0,0.0,0.0,0.0,0.0,0.0,0.0,0.0,0.0,0.0,0.0,0.0,0.0,0.0,0.0,0.0,0.0,0.0,0.0,0.0,0.0,0.0,0.0,0.0,0.0,0.0,0.0,-2.1724,-2.3071,-2.4597,-2.5143,-2.5247,-2.5061,-2.3834,-2.2119,0.0,0.0,-1.734,-1.6068,-1.5799,-1.5799,-1.5799,-1.6144,-1.6637,-1.7294,-1.7968,-1.9346,-2.2029,0.0,0.0,0.0,0.0,0.0,0.0,0.0,0.0,-3.3561,-3.3182,-3.2758,-3.2152,-3.3566,-3.4468,-3.4624,-3.492,-3.492,-3.4639,-3.3925,-3.3602,-3.3602,-3.2779,-3.2366,-3.2352,-3.1813,-3.1771,-3.2048,-3.1,-3.0834,-3.1231,-3.0533,-3.0044,-2.967,-2.941,-2.8675,-2.767,-2.7417,-2.7007,-2.6499,0.0,0.0,0.0,0.0,0.0,0.0,0.0,-0.5463,-0.6001,-0.6524,-0.6774,-0.6972,-0.7178,-0.7195,-0.7394,-0.7863,0.0,0.0,0.0,0.0,0.0,0.0,0.0,0.0,0.0,0.0,0.0,0.0,0.0,0.0,0.0,0.0,0.0,0.0,0.0,0.0,0.0,0.0,0.0,0.0,0.0,0.0,0.0,0.0,0.0,0.0,0.0,0.0,0.0,0.0,0.0,0.0,0.0,0.0,0.0,0.0,-1.969,-2.1152,-2.3086,-2.4118,-2.4455,-2.3789,-2.3167,-2.1999,0.0,-1.8192,-1.734,-1.6068,-1.5799,-1.5799,-1.5799,-1.5814,-1.6009,-1.6622,-1.7279,-1.8655,-2.1335,0.0,0.0,0.0,0.0,0.0,0.0,0.0,0.0,-3.2399,-3.3321,0.0,-3.1116,-3.1562,-3.209,-3.2615,-3.3518,-3.3567,-3.2629,-3.2629,-3.2593,-3.2593,-3.2069,-3.1813,-3.1799,-3.1257,-3.1013,-3.096,-2.996,-2.9706,-2.9946,-2.8926,-2.8724,-2.8907,-2.8065,-2.7703,-2.7604,-2.6816,-2.6499,-2.6499,0.0,0.0,0.0,0.0,0.0,0.0,0.0,0.0,-0.5858,-0.6026,-0.6664,-0.713,-0.7187,-0.7486,-0.768,-0.7694,0.0,0.0,0.0,0.0,0.0,0.0,0.0,0.0,0.0,0.0,0.0,0.0,0.0,0.0,0.0,0.0,0.0,0.0,0.0,0.0,0.0,0.0,0.0,0.0,0.0,0.0,0.0,0.0,0.0,0.0,0.0,0.0,0.0,0.0,0.0,0.0,0.0,0.0,0.0,-1.4977,-1.7251,0.0,-2.0632,-2.1425,-2.1884,-2.166,-2.0797,-1.963,-1.8311,-1.7488,-1.6802,-1.5964,-1.5799,-1.5799,-1.5799,-1.5799,-1.6293,-1.7818,-1.8237,0.0,0.0,0.0,0.0,0.0,0.0,0.0,0.0,0.0,-3.1124,-3.0433,-3.0099,-2.9705,-2.9032,-2.9799,-3.0622,-3.1466,-3.1772,-3.182,-3.1501,-3.0812,-3.0475,-3.0475,-2.9643,-2.9291,-2.9265,-2.8729,-2.869,-2.898,-2.7901,-2.7717,-2.8101,-2.7417,-2.7194,-2.7263,-2.7007,-2.6871,-2.685,-2.6589,-2.6499,-2.6499,0.0,0.0,0.0,0.0,0.0,0.0,0.0,0.0,-0.5311,-0.5745,-0.6381,-0.6892,-0.7174,-0.7553,-0.7761,-0.7717,0.0,0.0,0.0,0.0,0.0,0.0,0.0,0.0,0.0,0.0,0.0,0.0,0.0,0.0,0.0,0.0,0.0,0.0,0.0,0.0,0.0,0.0,0.0,0.0,0.0,0.0,-0.989,0.0,0.0,0.0,0.0,0.0,0.0,0.0,0.0,0.0,0.0,0.0,0.0,0.0,-1.4771,-1.6958,0.0,-1.9328,-1.9904,-1.976,-1.9087,-1.8184,-1.7061,-1.6437,-1.5934,-1.5344,-1.5181,-1.5284,-1.5725,-1.5536,-1.5826,-1.7421,-1.7729,0.0,0.0,0.0,0.0,0.0,0.0,0.0,0.0,0.0,-2.9703,-2.8866,-2.8701,-2.8293,-2.7542,-2.8251,-2.8869,-2.9268,-3.0025,-3.0269,-2.9925,-2.9289,-2.8983,-2.8948,-2.816,-2.7795,-2.777,-2.7218,-2.719,-2.7444,-2.6788,-2.6688,0.0,-2.6637,-2.6499,-2.6499,-2.6499,-2.6499,-2.6499,-2.6499,-2.6499,-2.6499,0.0,0.0,0.0,0.0,0.0,0.0,0.0,0.0,0.0,0.0,0.0,-0.6386,-0.7069,-0.7426,0.0,0.0,0.0,0.0,0.0,0.0,0.0,0.0,0.0,0.0,0.0,-0.7899,-0.8252,-0.898,-0.9584,-0.995,-1.0039,-1.0568,0.0,0.0,0.0,0.0,0.0,0.0,0.0,0.0,0.0,-0.9203,0.0,0.0,0.0,0.0,0.0,0.0,0.0,0.0,0.0,0.0,0.0,0.0,0.0,0.0,0.0,0.0,0.0,-1.75,-1.825,-1.7833,-1.7716,-1.7267,-1.5516,-1.5035,0.0,-1.4341,-1.414,-1.44,-1.5534,-1.5087,-1.4904,-1.598,0.0,0.0,0.0,0.0,0.0,0.0,0.0,0.0,0.0,-2.9582,-2.982,-2.7782,-2.8657,-2.8469,-2.6618,-2.6977,-2.7014,-2.6512,-2.8309,-2.8866,-2.7984,-2.7996,-2.7996,-2.7984,-2.7469,-2.7218,-2.7241,-2.6725,-2.6499,-2.6499,-2.6499,-2.6499,-2.6499,-2.6499,-2.6499,-2.6499,-2.6499,-2.6499,-2.6499,-2.6499,-2.6499,-2.6499,0.0,0.0,0.0,0.0,0.0,0.0,0.0,0.0,0.0,0.0,0.0,-0.6401,-0.6568,-0.733,0.0,0.0,0.0,0.0,0.0,0.0,0.0,0.0,0.0,0.0,0.0,-0.7899,-0.8484,-0.9659,-0.9824,-1.0398,-1.1341,-1.0972,-1.0389,0.0,0.0,0.0,0.0,0.0,0.0,0.0,-0.8132,-0.8229,0.0,0.0,0.0,0.0,-0.9137,-0.9854,0.0,0.0,0.0,0.0,0.0,0.0,0.0,0.0,-1.1657,-1.2283,-1.2511,0.0,-1.4812,-1.4196,-1.4053,-1.394,0.0,-1.3361,-1.3388,0.0,0.0,-1.408,-1.5019,-1.5161,-1.5655,0.0,0.0,0.0,0.0,0.0,0.0,0.0,0.0,0.0,0.0,-2.7296,-2.7357,-2.6829,-2.7058,-2.6993,-2.6546,-2.6612,-2.6625,-2.6499,-2.6967,-2.7107,-2.6889,-2.6889,-2.6889,-2.6876,-2.6751,-2.6688,-2.6688,-2.6549,-2.6499,-2.6499,-2.6499,-2.6499,-2.6499,-2.6499,-2.6499,-2.6499,-2.6499,-2.6499,-2.6499,-2.6499,-2.6499,-2.6499,0.0,0.0,0.0,0.0,0.0,0.0,0.0,0.0,0.0,0.0,0.0,0.0,0.0,0.0,0.0,0.0,0.0,0.0,0.0,0.0,0.0,0.0,0.0,0.0,0.0,-0.7899,-0.8551,-0.989,-0.989,-1.0548,-1.179,-1.142,0.0,0.0,0.0,0.0,0.0,0.0,0.0,0.0,-0.7899,0.0,0.0,0.0,0.0,0.0,-0.8447,-0.9017,0.0,-0.9701,-1.0129,-1.0677,0.0,0.0,0.0,0.0,-1.081,-1.1128,-1.0704,-1.2329,-1.3996,-1.3441,-1.33,-1.33,-1.33,0.0,0.0,0.0,0.0,0.0,-1.491,0.0,0.0,0.0,0.0,0.0,0.0,0.0,0.0,0.0,0.0,0.0,0.0,-2.6499,-2.6499,-2.6499,-2.6499,-2.6499,-2.6499,-2.6499,-2.6499,-2.6499,-2.6499,-2.6499,-2.6499,-2.6499,-2.6499,-2.6499,-2.6499,-2.6499,-2.6499,-2.6499,-2.6499,-2.6499,-2.6499,-2.6499,-2.6499,-2.6499,-2.6499,-2.6499,-2.6499,-2.6499,-2.6499,-2.6499,-2.6499,-2.6499,0.0,0.0,0.0,0.0,0.0,0.0,0.0,0.0,0.0,0.0,0.0,0.0,0.0,0.0,0.0,0.0,0.0,0.0,0.0,0.0,0.0,0.0,0.0,0.0,0.0,0.0,0.0,0.0,0.0,0.0,0.0,0.0,-1.1117,0.0,0.0,0.0,0.0,0.0,0.0,0.0,0.0,0.0,0.0,0.0,0.0,0.0,0.0,0.0,0.0,-0.8987,-0.9489,-0.9947,-0.9989,0.0,0.0,0.0,0.0,0.0,-1.0046,-1.2109,-1.4162,-1.3557,-1.3539,-1.3657,-1.3582,0.0,0.0,0.0,0.0,0.0,0.0,0.0,0.0,0.0,0.0,0.0,0.0,0.0,0.0,0.0,0.0,0.0,-2.6499,-2.6499,-2.6499,-2.6499,-2.6499,-2.6499,-2.6499,-2.6499,-2.6499,-2.6499,-2.6499,-2.6499,-2.6499,-2.6499,-2.6499,-2.6499,-2.6499,-2.6499,-2.6499,-2.6499,-2.6499,-2.6499,-2.6499,-2.6499,-2.6499,-2.6499,-2.6499,-2.6499,-2.6499,-2.6499,-2.6499,-2.6499,-2.6499,-2.6487,0.0,0.0,0.0,0.0,0.0,0.0,0.0,0.0,0.0,0.0,0.0,0.0,0.0,0.0,0.0,0.0,0.0,0.0,0.0,0.0,0.0,0.0,0.0,0.0,0.0,0.0,0.0,0.0,0.0,0.0,-1.0972,-1.1525,-1.1117,-0.986,0.0,0.0,0.0,0.0,0.0,-0.7899,0.0,0.0,0.0,0.0,0.0,0.0,0.0,0.0,0.0,-0.7966,-0.8679,-0.9495,-0.8501,0.0,0.0,0.0,0.0,0.0,-1.0345,-1.1953,-1.3048,-1.1553,-1.1918,-1.25,-1.2063,0.0,0.0,0.0,0.0,0.0,0.0,0.0,0.0,0.0,0.0,0.0,0.0,0.0,0.0,0.0,0.0,-2.6499,-2.6499,-2.6499,-2.6499,-2.6499,-2.6499,-2.6499,-2.6499,-2.6499,-2.6499,-2.6499,-2.6499,-2.6499,-2.6499,-2.6499,-2.6499,-2.6499,-2.6499,-2.6499,-2.6499,-2.6499,-2.6499,-2.6499,-2.6499,-2.6499,-2.6499,-2.6499,-2.6499,-2.6499,-2.6499,-2.6499,-2.6499,-2.6499,-2.6499,-2.6424,0.0,0.0,0.0,0.0,0.0,0.0,0.0,0.0,0.0,0.0,0.0,0.0,0.0,0.0,0.0,0.0,0.0,0.0,0.0,0.0,0.0,0.0,0.0,0.0,0.0,0.0,0.0,0.0,0.0,-1.0703,-1.1331,-1.0952,-1.0458,-0.9845,0.0,0.0,0.0,0.0,0.0,-0.7739,0.0,0.0,0.0,0.0,0.0,0.0,0.0,0.0,0.0,0.0,-0.8019,-0.8371,-0.8144,0.0,0.0,0.0,0.0,0.0,-0.9617,-1.106,-1.2212,-1.1736,-1.2693,-1.3765,-1.3797,0.0,0.0,0.0,0.0,0.0,0.0,0.0,0.0,0.0,0.0,0.0,0.0,0.0,0.0,0.0,0.0,-2.5573,-2.5573,-2.5573,-2.5573,-2.5573,-2.5573,-2.5573,-2.5573,-2.5573,-2.5573,-2.5573,-2.5573,-2.5573,-2.5573,-2.585,-2.6185,-2.6499,-2.6499,-2.6499,-2.6499,-2.6499,-2.6499,-2.6499,-2.6499,-2.6499,-2.6499,-2.6499,-2.6499,-2.6499,-2.6499,-2.6499,-2.6461,-2.6135,-2.6021,-2.5912,0.0,0.0,0.0,0.0,0.0,0.0,0.0,0.0,0.0,0.0,0.0,0.0,0.0,0.0,0.0,0.0,0.0,0.0,0.0,0.0,0.0,0.0,0.0,0.0,0.0,0.0,-0.9227,-0.989,-1.0441,-1.0974,-1.1455,-1.0337,-0.9755,-0.9614,0.0,0.0,0.0,0.0,-0.765,-0.75,0.0,0.0,0.0,0.0,0.0,0.0,0.0,0.0,0.0,0.0,0.0,0.0,0.0,0.0,0.0,-0.8087,-0.8087,-0.8288,-0.9215,-1.0522,-1.1791,-1.2592,-1.3765,-1.489,-1.5563,0.0,0.0,0.0,0.0,0.0,0.0,0.0,0.0,0.0,0.0,0.0,0.0,0.0,0.0,-2.4004,-2.4481,-2.4788,-2.4788,-2.4788,-2.4788,-2.4788,-2.4788,-2.4788,-2.4788,-2.4788,-2.4788,-2.4788,-2.4788,-2.4788,-2.4788,-2.5222,-2.5636,-2.6109,-2.6235,-2.6223,-2.6109,-2.6109,-2.6109,-2.6109,-2.6109,-2.6109,-2.6109,-2.6109,-2.6109,-2.6109,-2.6109,-2.6109,-2.6059,-2.5573,-2.541,-2.5335,0.0,0.0,0.0,0.0,0.0,0.0,0.0,0.0,0.0,0.0,0.0,0.0,0.0,0.0,0.0,0.0,0.0,0.0,0.0,0.0,0.0,0.0,0.0,0.0,0.0,-0.8875,-0.9227,-0.989,-1.0258,-1.0454,-1.0483,-0.9826,-0.9325,-0.8949,0.0,0.0,0.0,0.0,-0.7248,-0.7233,-0.7233,0.0,0.0,0.0,0.0,0.0,0.0,0.0,0.0,0.0,0.0,0.0,0.0,0.0,-0.7468,-0.7468,-0.7468,-0.7928,-1.0017,-1.1071,-1.198,-1.3569,-1.4078,0.0,-1.5454,-1.563,0.0,0.0,0.0,0.0,0.0,0.0,0.0,0.0,0.0,0.0,0.0,0.0,-2.4004,-2.4004,-2.4481,-2.4788,-2.4788,-2.4788,-2.4788,-2.4788,-2.4788,-2.4788,-2.4788,-2.4788,-2.4788,-2.4788,-2.4788,-2.4788,-2.4788,-2.4825,-2.4863,-2.4946,-2.5423,-2.541,-2.4913,-2.4913,-2.4913,-2.4913,-2.4913,-2.4913,-2.4913,-2.4913,-2.4913,-2.4913,-2.4913,-2.4913,-2.4933,-2.4863,-2.4838,-2.4763,0.0,0.0,0.0,0.0,0.0,0.0,0.0,0.0,0.0,0.0,0.0,0.0,0.0,0.0,0.0,0.0,0.0,0.0,0.0,0.0,0.0,0.0,0.0,-0.7925,-0.8631,-0.9058,-0.9404,-0.9653,-0.9773,-0.984,-0.9826,-0.9224,0.0,0.0,0.0,0.0,0.0,0.0,0.0,-0.7012,-0.7012,-0.7088,0.0,0.0,0.0,0.0,0.0,0.0,0.0,0.0,-0.6798,-0.6865,-0.6662,-0.6737,-0.6903,-0.6903,-0.6903,-0.725,-0.8789,-1.0093,-1.1435,-1.3119,-1.4079,0.0,0.0,0.0,0.0,0.0,0.0,0.0,0.0,0.0,0.0,0.0,0.0,0.0,0.0,-2.3296,-2.3434,-2.3434,-2.3609,-2.3747,-2.3747,-2.3747,-2.3747,-2.3747,-2.3747,-2.3747,-2.3747,-2.3747,-2.3747,-2.3747,-2.3747,-2.3747,-2.3747,-2.413,-2.4098,-2.3747,-2.4682,-2.5008,-2.4788,-2.4788,-2.4788,-2.4788,-2.4788,-2.4788,-2.4788,-2.4788,-2.4788,-2.4788,-2.4788,-2.4788,-2.475,-2.4443,-2.4305,-2.423,0.0,0.0,0.0,0.0,0.0,0.0,0.0,0.0,0.0,0.0,0.0,0.0,0.0,0.0,0.0,0.0,0.0,0.0,0.0,0.0,0.0,0.0,0.0,-0.7769,-0.8388,-0.8793,-0.9133,-0.9408,-0.9198,-0.9043,-0.895,0.0,0.0,0.0,0.0,0.0,0.0,0.0,0.0,0.0,-0.6807,-0.6894,0.0,0.0,0.0,0.0,0.0,0.0,0.0,0.0,-0.6599,-0.6599,-0.6599,-0.6599,-0.6637,-0.6803,-0.6987,-0.7385,-0.8499,-0.9867,-1.1347,0.0,0.0,0.0,0.0,0.0,0.0,0.0,0.0,0.0,0.0,0.0,0.0,0.0,0.0,0.0,-2.3032,-2.3108,-2.3108,-2.3108,-2.3108,-2.3108,-2.3108,-2.3108,-2.3108,-2.3108,-2.3108,-2.3108,-2.3108,-2.3108,-2.3108,-2.3108,-2.3108,-2.3108,-2.3108,-2.3496,-2.3496,-2.3108,-2.3885,-2.4261,-2.4261,-2.4261,-2.4261,-2.4261,-2.4261,-2.4261,-2.4261,-2.4261,-2.4261,-2.4261,-2.4261,-2.4261,-2.4211,-2.3866,-2.3728,-2.3665,0.0,0.0,0.0,0.0,0.0,0.0,0.0,0.0,0.0,0.0,0.0,0.0,0.0,0.0,0.0,0.0,0.0,0.0,0.0,0.0,0.0,0.0,0.0,-0.7507,-0.8179,-0.7996,-0.8318,-0.9193,-0.8521,-0.8055,-0.7778,-0.7183,0.0,0.0,0.0,0.0,0.0,0.0,0.0,0.0,-0.6599,-0.6599,-0.6599,0.0,0.0,0.0,0.0,0.0,0.0,0.0,-0.6599,-0.6599,-0.6599,-0.6611,-0.6724,-0.7231,-0.7826,-0.8537,-0.9604,-1.0721,0.0,0.0,0.0,0.0,0.0,0.0,0.0,0.0,0.0,0.0,0.0,0.0,0.0,0.0,0.0,-2.2498,-2.3032,-2.3108,-2.3108,-2.3108,-2.3108,-2.3108,-2.3108,-2.3108,-2.3108,-2.3108,-2.3108,-2.3108,-2.3108,-2.3108,-2.3108,-2.3108,-2.3108,-2.3108,-2.3108,-2.3108,-2.3108,-2.3108,-2.3108,-2.3108,-2.3108,-2.3108,-2.3108,-2.3108,-2.3108,-2.3108,-2.3108,-2.3108,-2.3108,-2.3108,-2.3108,-2.3108,-2.3108,-2.3108,-2.3108,-2.3108,0.0,0.0,0.0,0.0,0.0,0.0,0.0,0.0,0.0,0.0,0.0,0.0,0.0,0.0,0.0,0.0,0.0,0.0,0.0,0.0,0.0,0.0,0.0,0.0,0.0,0.0,-0.7406,-0.8295,-0.7618,-0.7243,0.0,0.0,0.0,-0.6972,0.0,0.0,0.0,0.0,0.0,0.0,-0.6599,-0.6599,-0.6599,0.0,0.0,0.0,0.0,0.0,0.0,0.0,0.0,0.0,-0.6599,-0.7159,-0.7673,-0.7025,-0.7799,-0.8925,-0.9252,-1.0723,0.0,0.0,0.0,0.0,0.0,0.0,0.0,0.0,0.0,0.0,0.0,0.0,0.0,-2.1368,-2.1945,-2.2498,-2.3032,-2.3108,-2.3108,-2.3108,-2.3108,-2.3108,-2.3108,-2.3108,-2.3108,-2.3108,-2.3108,-2.3108,-2.3108,-2.3108,-2.3108,-2.3108,-2.3108,-2.3108,-2.3108,-2.3108,-2.3108,-2.3108,-2.3108,-2.3108,-2.3108,-2.3108,-2.3108,-2.3108,-2.3108,-2.3108,-2.3108,-2.3108,-2.3108,-2.3108,-2.3108,-2.3108,-2.3108,-2.3108,-2.3108,-2.3108,0.0,0.0,0.0,0.0,0.0,0.0,0.0,0.0,0.0,0.0,0.0,-0.3703,0.0,0.0,0.0,0.0,0.0,0.0,0.0,0.0,0.0,-0.6908,0.0,0.0,0.0,-0.6668,-0.6854,0.0,0.0,0.0,0.0,0.0,0.0,-0.6774,0.0,-0.6599,0.0,0.0,0.0,0.0,-0.6599,-0.6599,-0.6599,0.0,0.0,0.0,0.0,0.0,0.0,0.0,0.0,0.0,-0.6599,-0.7071,-0.7533,-0.7091,-0.8001,-0.9228,-0.9629,0.0,0.0,0.0,0.0,0.0,0.0,0.0,0.0,0.0,0.0,0.0,0.0,0.0,0.0,-2.1131,-2.1631,-2.2096,-2.2406,-2.2456,-2.2456,-2.2456,-2.2456,-2.2456,-2.2456,-2.2456,-2.2456,-2.2456,-2.2456,-2.2456,-2.2456,-2.2456,-2.2456,-2.2456,-2.2656,-2.2782,-2.2782,-2.2995,-2.3108,-2.3108,-2.3108,-2.3108,-2.3108,-2.3108,-2.3108,-2.3108,-2.3108,-2.3108,-2.3108,-2.3108,-2.3108,-2.3108,-2.3108,-2.3108,-2.3108,-2.3108,-2.3108,-2.3108,0.0,0.0,-0.2944,-0.3078,0.0,0.0,0.0,0.0,0.0,0.0,-0.3532,-0.3525,0.0,0.0,0.0,-0.4909,0.0,0.0,0.0,0.0,-0.6874,-0.6874,-0.6874,-0.6774,-0.6573,0.0,0.0,0.0,0.0,0.0,0.0,0.0,-0.6599,-0.6599,0.0,-0.6599,0.0,0.0,0.0,0.0,-0.659,-0.659,-0.6573,-0.659,0.0,0.0,0.0,0.0,0.0,0.0,0.0,0.0,-0.6564,-0.6635,-0.6815,-0.7248,-0.8282,-0.9461,0.0,0.0,0.0,0.0,0.0,0.0,0.0,0.0,0.0,0.0,0.0,0.0,0.0,0.0,-2.0611,-2.0611,-2.0979,-2.1313,-2.1397,-2.1397,-2.1425,-2.1493,-2.1493,-2.1493,-2.1493,-2.1493,-2.1493,-2.1493,-2.1493,-2.1493,-2.1493,-2.1493,-2.1493,-2.1493,-2.197,-2.2234,-2.2234,-2.2706,-2.2957,-2.2957,-2.2957,-2.2957,-2.2957,-2.3058,-2.3108,-2.3108,-2.3108,-2.3078,-2.2975,-2.2975,-2.2975,-2.2975,-2.2975,-2.3047,-2.3078,-2.3005,-2.2975,-2.2975,0.0,0.0,-0.2944,-0.3078,0.0,0.0,0.0,0.0,-0.3311,-0.3357,-0.3441,-0.3471,-0.3369,-0.3445,0.0,-0.4909,-0.4997,0.0,0.0,0.0,-0.6668,-0.6668,-0.6668,-0.654,-0.6289,-0.65,-0.65,-0.628,-0.65,0.0,0.0,0.0,0.0,-0.6599,0.0,-0.6599,0.0,0.0,0.0,-0.6298,-0.6517,-0.647,-0.6306,-0.6517,-0.6462,0.0,0.0,0.0,0.0,0.0,0.0,0.0,-0.6239,-0.6907,-0.7462,-0.6701,-0.8063,-0.982,0.0,0.0,0.0,0.0,0.0,0.0,0.0,0.0,0.0,0.0,0.0,0.0,0.0,-1.9826,-1.9839,-1.9839,-1.9792,-1.9989,-2.055,-2.0636,-2.0836,-2.1425,-2.1493,-2.1493,-2.1493,-2.1493,-2.1493,-2.1493,-2.1493,-2.1493,-2.1493,-2.1493,-2.1493,-2.1493,-2.1606,-2.1669,-2.1669,-2.1782,-2.1845,-2.1845,-2.1845,-2.1845,-2.187,-2.2706,-2.3108,-2.3108,-2.3108,-2.2732,-2.2168,-2.2168,-2.2168,-2.2168,-2.2168,-2.2537,-2.3005,-2.2384,-2.2168,-2.2063,0.0,0.0,0.0,0.0,0.0,0.0,0.0,0.0,-0.3323,-0.3391,-0.3399,-0.3404,-0.3395,-0.3399,0.0,0.0,-0.4833,-0.5344,0.0,0.0,0.0,0.0,-0.6409,-0.6292,-0.6061,-0.6283,-0.6345,0.0,0.0,0.0,0.0,0.0,0.0,-0.6969,0.0,-0.6831,0.0,0.0,-0.6336,-0.6198,-0.6251,-0.618,-0.607,-0.6207,-0.618,-0.6061,-0.6061,0.0,0.0,0.0,0.0,0.0,0.0,0.0,-0.6889,-0.6577,-0.7568,-0.8871,0.0,0.0,0.0,0.0,0.0,0.0,0.0,0.0,0.0,0.0,0.0,0.0,0.0,-1.8697,-1.8638,-1.8638,-1.8549,-1.8606,-1.9003,-1.9071,-1.92,-1.9602,-1.9934,-2.0177,-2.0177,-2.0476,-2.0677,-2.0677,-2.0677,-2.0677,-2.0677,-2.0677,-2.0677,-2.0677,-2.0981,-2.1119,-2.1119,-2.1036,-2.0978,-2.0978,-2.0978,-2.0978,-2.1002,-2.1927,-2.2456,-2.2706,-2.2706,-2.2395,-2.1908,-2.1908,-2.1647,-2.127,-2.127,-2.1522,-2.1865,-2.1416,-2.127,-2.1207,0.0,0.0,0.0,0.0,0.0,0.0,0.0,0.0,0.0,-0.3454,-0.3374,-0.334,-0.3454,-0.3361,-0.3512,0.0,0.0,0.0,-0.5757,0.0,0.0,0.0,-0.6147,-0.6079,-0.5911,-0.6094,-0.618,0.0,0.0,0.0,0.0,0.0,0.0,-0.7387,0.0,0.0,0.0,0.0,-0.6121,-0.6067,-0.5954,-0.5874,-0.5837,-0.5883,-0.5874,-0.5837,-0.5837,-0.5799,-0.5762,-0.5762,0.0,0.0,0.0,0.0,-0.5926,-0.6422,-0.6921,-0.7565,0.0,0.0,0.0,0.0,0.0,0.0,0.0,0.0,0.0,0.0,0.0,0.0,0.0,-1.7495,-1.7413,-1.7413,-1.7302,-1.7274,-1.7385,-1.7413,-1.7468,-1.7578,-1.8151,-1.8501,-1.8501,-1.9071,-1.9423,-1.9423,-1.9423,-1.9423,-1.9423,-1.9423,-1.9423,-1.9423,-1.9894,-2.0167,-2.0167,-1.9989,-1.992,-1.992,-1.992,-1.992,-1.9949,-2.0555,-2.1165,-2.177,-2.177,-2.1572,-2.1233,-2.1233,-2.0785,-2.0153,-2.0242,-2.036,-2.0467,-2.0396,-2.0365,-2.0365,0.0,0.0,0.0,0.0,0.0,0.0,0.0,0.0,0.0,0.0,-0.3315,-0.3311,-0.3328,-0.3315,-0.3512,-0.405,-0.4175,-0.467,0.0,0.0,0.0,0.0,-0.5936,-0.5927,-0.5902,-0.6094,-0.6112,0.0,0.0,0.0,0.0,0.0,0.0,-0.7364,0.0,0.0,0.0,0.0,-0.5799,-0.5614,-0.5819,-0.5763,-0.5587,-0.5819,-0.5754,-0.5559,-0.5559,-0.5406,-0.5204,-0.5204,-0.5204,0.0,0.0,0.0,0.0,-0.5648,-0.6242,0.0,0.0,0.0,0.0,0.0,0.0,0.0,0.0,0.0,0.0,0.0,0.0,0.0,-1.7468,-1.709,-1.6652,-1.6652,-1.6112,-1.5921,-1.6567,-1.6652,-1.6866,-1.7523,-1.7688,-1.7743,-1.7743,-1.7852,-1.7907,-1.7907,-1.7907,-1.7907,-1.7907,-1.7907,-1.7907,-1.7907,-1.7963,-1.8009,-1.8009,-1.7995,-1.7962,-1.7962,-1.7962,-1.7962,-1.7973,-1.8084,-1.8708,-1.97,-1.97,-1.9257,-1.8503,-1.8503,-1.8442,-1.8361,-1.8733,-1.9326,-1.9966,-1.9598,-1.9464,-1.9365,0.0,0.0,0.0,0.0,0.0,0.0,0.0,0.0,0.0,0.0,0.0,-0.3746,-0.3746,-0.3746,-0.3721,-0.3658,-0.393,0.0,0.0,0.0,0.0,0.0,0.0,-0.5605,-0.5453,-0.5677,0.0,0.0,0.0,0.0,0.0,-0.6959,-0.7412,0.0,0.0,0.0,0.0,0.0,0.0,-0.5502,-0.5462,-0.5674,-0.5964,-0.5591,-0.5684,-0.5943,-0.5452,-0.5204,-0.5098,-0.5098,-0.5098,-0.5117,-0.5243,0.0,0.0,0.0,0.0,0.0,0.0,0.0,0.0,0.0,0.0,0.0,0.0,0.0,0.0,0.0,0.0,0.0,-1.5573,-1.5598,-1.5558,-1.5558,-1.5455,-1.5497,-1.5835,-1.5892,-1.5997,-1.633,-1.6726,-1.6978,-1.6978,-1.7357,-1.7605,-1.7605,-1.7605,-1.7605,-1.7605,-1.7605,-1.7605,-1.7605,-1.7605,-1.7605,-1.7605,-1.7202,-1.6978,-1.6978,-1.6546,-1.6585,-1.6978,-1.6557,-1.7288,-1.8865,-1.8865,-1.8522,-1.7996,-1.7996,-1.7719,-1.7294,-1.7486,-1.7768,-1.8103,-1.7897,-1.7849,-1.7795,0.0,0.0,0.0,0.0,0.0,0.0,0.0,0.0,0.0,0.0,0.0,-0.4163,-0.4306,0.0,0.0,0.0,-0.3663,0.0,0.0,0.0,0.0,0.0,0.0,0.0,-0.5204,-0.5396,0.0,0.0,0.0,0.0,-0.7254,-0.7142,-0.7869,0.0,-0.7996,0.0,0.0,0.0,0.0,-0.5715,-0.551,-0.5818,-0.6345,-0.5925,-0.6168,-0.6618,-0.574,0.0,0.0,0.0,0.0,0.0,0.0,0.0,0.0,0.0,0.0,0.0,0.0,0.0,0.0,0.0,0.0,0.0,0.0,0.0,0.0,0.0,0.0,-1.3792,-1.3792,-1.4258,-1.4619,-1.4619,-1.4883,-1.5059,-1.5059,-1.5059,-1.5059,-1.5059,-1.5661,-1.6072,-1.6072,-1.6584,-1.6895,-1.6895,-1.6786,-1.671,-1.671,-1.671,-1.6776,-1.6867,-1.6895,-1.6932,-1.7052,-1.651,-1.6208,-1.6208,-1.5661,-1.57,-1.6208,-1.5642,-1.6238,-1.7719,-1.7719,-1.7576,-1.7336,-1.7336,-1.6961,-1.6375,-1.6482,-1.6562,-1.6541,-1.6658,-1.6697,-1.6697,0.0,0.0,0.0,0.0,0.0,0.0,0.0,0.0,0.0,0.0,0.0,-0.4319,-0.4896,-0.4328,-0.39,-0.3864,-0.3311,0.0,0.0,0.0,0.0,0.0,0.0,0.0,0.0,0.0,0.0,0.0,0.0,0.0,-0.7101,-0.7103,-0.7788,-0.8976,-0.8091,-0.7386,-0.6822,0.0,0.0,-0.635,-0.6338,-0.6355,-0.6482,-0.7267,-0.7588,-0.7511,-0.6648,0.0,0.0,0.0,0.0,0.0,0.0,0.0,0.0,0.0,0.0,0.0,0.0,0.0,0.0,0.0,0.0,0.0,0.0,0.0,0.0,0.0,0.0,-1.2964,-1.2964,-1.3613,-1.4143,-1.4143,-1.4163,-1.4172,-1.4172,-1.4172,-1.4172,-1.4172,-1.4588,-1.4898,-1.4898,-1.4926,-1.4954,-1.4954,-1.4533,-1.428,-1.428,-1.428,-1.4493,-1.4944,-1.4954,-1.5141,-1.5517,-1.5468,-1.5468,-1.5468,-1.541,-1.541,-1.5468,-1.541,-1.5449,-1.5556,-1.5556,-1.5537,-1.5537,-1.5537,-1.5508,-1.5518,-1.5968,-1.6124,-1.6183,-1.6541,-1.6697,-1.6697,0.0,0.0,0.0,0.0,0.0,0.0,0.0,0.0,0.0,0.0,0.0,0.0,0.0,-0.4823,-0.4513,-0.4128,-0.407,0.0,0.0,0.0,0.0,0.0,0.0,0.0,0.0,0.0,0.0,0.0,0.0,-0.559,-0.6272,-0.6533,-0.6758,-0.6966,-0.7207,-0.7336,-0.7286,-0.5921,0.0,0.0,-0.6394,-0.6914,0.0,-0.77,-0.8051,-0.8422,0.0,0.0,0.0,0.0,0.0,0.0,-0.5547,-0.5341,-0.5098,-0.5098,0.0,0.0,0.0,0.0,0.0,0.0,0.0,0.0,0.0,0.0,0.0,0.0,0.0,-1.2905,-1.2905,-1.335,-1.3704,-1.3704,-1.3929,-1.4104,-1.4104,-1.4104,-1.4104,-1.4104,-1.4241,-1.4338,-1.4338,-1.4338,-1.4338,-1.4338,-1.4192,-1.4104,-1.4104,-1.4104,-1.4182,-1.4338,-1.4338,-1.4416,-1.4562,-1.4873,-1.501,-1.501,-1.5283,-1.541,-1.541,-1.541,-1.541,-1.541,-1.541,-1.541,-1.541,-1.541,-1.541,-1.543,-1.5586,-1.5644,-1.5664,-1.58,-1.5889,-1.5889,0.0,0.0,0.0,-0.4181,0.0,-0.3994,-0.4057,-0.3991,-0.4217,-0.5005,0.0,0.0,0.0,0.0,-0.478,-0.4152,-0.4423,-0.4639,-0.4639,0.0,0.0,0.0,0.0,0.0,0.0,0.0,0.0,0.0,0.0,0.0,0.0,-0.6076,-0.6135,-0.6017,-0.6467,-0.6982,0.0,0.0,0.0,-0.6852,0.0,0.0,-0.8424,0.0,-0.9045,0.0,0.0,0.0,0.0,0.0,0.0,0.0,0.0,-0.5585,-0.5098,-0.5098,-0.5098,0.0,0.0,0.0,0.0,0.0,0.0,0.0,0.0,0.0,0.0,0.0,0.0,-1.2905,-1.2905,-1.3105,-1.3301,-1.3301,-1.3525,-1.3685,-1.3685,-1.3685,-1.3685,-1.3685,-1.3812,-1.3899,-1.3899,-1.3899,-1.3899,-1.3899,-1.3763,-1.3685,-1.3685,-1.3685,-1.3753,-1.389,-1.4036,-1.4104,-1.4104,-1.4424,-1.457,-1.457,-1.4853,-1.5059,-1.5205,-1.5205,-1.5283,-1.541,-1.541,-1.541,-1.541,-1.541,-1.541,-1.541,-1.541,-1.541,-1.541,-1.541,-1.541,-1.541,-0.5098,-0.5098,-0.5019,-0.4755,-0.4708,-0.4594,-0.428,-0.4223,-0.4427,-0.502,0.0,0.0,0.0,0.0,0.0,-0.399,-0.4295,-0.4521,-0.4521,-0.4884,0.0,0.0,0.0,0.0,0.0,0.0,0.0,0.0,0.0,0.0,0.0,0.0,-0.5988,-0.6348,-0.5968,-0.6272,-0.7061,0.0,-0.7291,-0.7734,0.0,-0.8395,-0.863,0.0,0.0,0.0,-0.9815,-0.9378,0.0,-0.8059,0.0,0.0,0.0,-0.5819,-0.5117,-0.5108,-0.5108,0.0,0.0,0.0,0.0,0.0,0.0,0.0,0.0,0.0,0.0,0.0,0.0,-1.2876,-1.2886,-1.2895,-1.2905,-1.2905,-1.2905,-1.2905,-1.2905,-1.2905,-1.2905,-1.2905,-1.3242,-1.3486,-1.3486,-1.3486,-1.3486,-1.3486,-1.3105,-1.2905,-1.2905,-1.2905,-1.3066,-1.3477,-1.386,-1.4075,-1.4075,-1.4085,-1.4085,-1.4085,-1.4104,-1.4328,-1.4766,-1.4766,-1.5,-1.5391,-1.5391,-1.54,-1.541,-1.541,-1.541,-1.541,-1.541,-1.541,-1.541,-1.541,-1.541,-1.541,-0.5098,-0.5098,-0.5069,-0.5009,-0.4822,-0.4733,-0.4834,-0.4681,-0.4691,0.0,0.0,0.0,-0.5309,-0.5152,-0.4967,-0.4786,-0.4874,-0.4932,-0.4932,-0.504,-0.5098,-0.5098,-0.5098,0.0,0.0,0.0,0.0,0.0,0.0,0.0,0.0,0.0,0.0,0.0,-0.5704,-0.5929,-0.6135,-0.58,0.0,0.0,-0.7529,-0.8395,0.0,0.0,0.0,0.0,0.0,-1.0457,-0.9621,0.0,-0.8613,-0.7594,0.0,0.0,0.0,-0.5205,-0.5341,0.0,-0.5195,0.0,0.0,0.0,0.0,0.0,0.0,0.0,0.0,0.0,0.0,-1.2044,-1.2353,-1.2666,-1.2905,-1.2905,-1.2905,-1.2905,-1.2905,-1.2905,-1.2905,-1.2905,-1.3013,-1.3081,-1.3081,-1.3081,-1.3081,-1.3081,-1.2949,-1.2905,-1.2905,-1.2905,-1.2954,-1.3047,-1.3164,-1.3232,-1.3232,-1.3525,-1.3682,-1.3656,-1.3968,-1.4172,-1.428,-1.428,-1.4551,-1.4961,-1.4961,-1.5127,-1.541,-1.541,-1.541,-1.541,-1.541,-1.541,-1.541,-1.541,-1.541,-1.541,-0.5098,-0.5098,-0.5098,-0.5098,-0.4978,-0.4927,-0.5069,-0.4968,-0.4918,0.0,0.0,0.0,-0.5098,-0.5273,-0.5312,-0.5117,-0.5098,-0.5098,-0.5098,-0.5098,-0.5098,-0.5098,-0.4991,-0.4932,0.0,0.0,0.0,0.0,0.0,0.0,0.0,0.0,0.0,0.0,-0.5329,-0.5445,-0.5322,0.0,0.0,0.0,-0.7783,0.0,0.0,-1.0324,-1.0733,0.0,0.0,0.0,-1.0157,-0.9843,-0.9073,0.0,0.0,-0.6687,-0.6475,-0.5829,-0.5977,0.0,0.0,0.0,0.0,0.0,0.0,0.0,0.0,-0.8353,0.0,0.0,0.0,-1.1389,-1.1609,-1.2031,-1.2416,-1.2578,-1.2607,-1.2676,-1.2876,-1.2905,-1.2905,-1.2905,-1.2905,-1.2905,-1.2905,-1.2905,-1.2905,-1.2905,-1.2905,-1.2905,-1.2905,-1.2905,-1.2905,-1.2905,-1.2905,-1.2905,-1.2905,-1.3125,-1.3242,-1.3252,-1.3496,-1.3701,-1.3851,-1.3851,-1.4075,-1.4512,-1.4512,-1.4756,-1.5146,-1.5146,-1.5254,-1.541,-1.541,-1.541,-1.541,-1.541,-1.541,-1.541,0.0,-0.5098,-0.5098,-0.5098,-0.5098,-0.5098,-0.5098,-0.5098,-0.5098,0.0,-0.5137,-0.5195,-0.5234,-0.5576,-0.5636,-0.5215,-0.5107,-0.5059,-0.5059,-0.503,-0.501,-0.501,-0.4784,-0.4656,-0.4656,0.0,0.0,0.0,0.0,0.0,0.0,0.0,0.0,-0.4666,-0.4912,-0.4883,-0.4665,0.0,0.0,-0.7075,-0.8204,-0.9023,0.0,0.0,-1.0512,-1.0604,-1.0346,-1.0373,-1.0391,-0.9699,-0.9073,0.0,0.0,-0.7535,-0.7496,-0.6755,-0.6823,0.0,-0.6654,-0.6579,0.0,0.0,0.0,0.0,-0.8311,-0.8227,-0.808,0.0,0.0,0.0,-1.0693,-1.1076,-1.1516,-1.1921,-1.2067,-1.2301,-1.2837,-1.2905,-1.2905,-1.2905,-1.2905,-1.2905,-1.2905,-1.2905,-1.2905,-1.2905,-1.2905,-1.2905,-1.2905,-1.2905,-1.2905,-1.2905,-1.2905,-1.2905,-1.2905,-1.2905,-1.2905,-1.2905,-1.2905,-1.3101,-1.3437,-1.3437,-1.3636,-1.4036,-1.4036,-1.4289,-1.4717,-1.4717,-1.499,-1.541,-1.541,-1.541,-1.541,-1.541,-1.541,-1.541,-0.5098,-0.5098,-0.5098,-0.5098,-0.5098,-0.5098,-0.5098,-0.5098,-0.5098,-0.5098,-0.5429,-0.5792,-0.6111,-0.5939,-0.5764,-0.5675,-0.512,-0.4775,-0.4775,-0.4577,-0.4456,-0.4456,-0.4406,-0.4376,-0.4376,-0.4249,0.0,0.0,0.0,0.0,0.0,0.0,0.0,0.0,-0.4426,-0.4426,-0.4418,0.0,0.0,-0.6157,-0.6407,0.0,-0.935,-0.9387,-0.9971,-1.0739,-1.0714,-1.0372,-0.9876,-0.9419,-0.8932,-0.8504,0.0,0.0,-0.7324,-0.7412,-0.7439,-0.7426,-0.7434,-0.7725,-0.7886,-0.7353,0.0,0.0,-0.7061,-0.7607,-0.814,0.0,0.0,0.0,0.0,-0.9708,-1.0137,-1.0596,-1.1261,-1.1995,-1.2798,-1.2905,-1.2905,-1.2905,-1.2905,-1.2905,-1.2905,-1.2905,-1.2905,-1.2905,-1.2905,-1.2905,-1.2905,-1.2905,-1.2905,-1.2905,-1.2905,-1.2905,-1.2905,-1.2905,-1.2905,-1.2905,-1.2905,-1.2954,-1.3023,-1.3023,-1.3232,-1.3633,-1.3633,-1.3841,-1.4231,-1.4231,-1.4689,-1.541,-1.541,-1.541,-1.541,-1.541,-1.541,-1.541,-0.5098,-0.5098,-0.5098,-0.5098,-0.5098,-0.5098,-0.5098,-0.5098,-0.5185,-0.5419,-0.6025,-0.6436,-0.6406,-0.6221,-0.596,-0.5626,-0.5043,-0.4636,-0.4507,-0.4384,-0.4303,-0.4303,-0.4171,-0.4099,-0.4099,-0.3965,-0.39,0.0,0.0,0.0,0.0,-0.4242,0.0,0.0,0.0,0.0,0.0,0.0,-0.4923,-0.5444,-0.6521,0.0,-0.921,-0.9164,-0.9626,-1.0261,-0.9917,-0.9588,-0.9264,-0.9107,-0.8858,0.0,0.0,-0.8119,-0.8091,0.0,-0.786,-0.7923,-0.7641,-0.7732,-0.7913,-0.7943,0.0,0.0,0.0,-0.7725,-0.7803,-0.8008,0.0,0.0,0.0,0.0,-0.9757,-1.0215,-1.0841,-1.1408,-1.1836,-1.2275,-1.2559,-1.2559,-1.2559,-1.2559,-1.2559,-1.2754,-1.2905,-1.2905,-1.2905,-1.2905,-1.2905,-1.2905,-1.2905,-1.2905,-1.2905,-1.2905,-1.2905,-1.2905,-1.2905,-1.2905,-1.2905,-1.2905,-1.2905,-1.2905,-1.3023,-1.3193,-1.3193,-1.325,-1.331,-1.331,-1.3668,-1.4289,-1.4636,-1.4874,-1.5098,-1.5098,-1.5234,-1.541,-0.503,-0.502,-0.504,-0.5088,-0.5098,-0.5098,-0.5098,-0.5098,-0.5292,-0.5841,-0.6584,-0.6952,-0.6639,-0.651,0.0,0.0,-0.5125,-0.4681,-0.4412,0.0,-0.4211,-0.415,-0.3942,-0.3817,-0.3817,-0.3605,-0.3495,0.0,0.0,0.0,-0.3828,-0.4048,-0.4181,-0.4225,0.0,0.0,0.0,0.0,0.0,-0.5139,0.0,-0.8059,-0.8566,-0.8794,-0.9104,-0.9369,-0.8941,-0.8804,-0.8803,-0.8803,-0.8727,-0.8524,-0.7932,-0.8263,0.0,0.0,0.0,0.0,0.0,0.0,0.0,0.0,0.0,-0.7549,0.0,0.0,0.0,-0.8128,0.0,0.0,0.0,0.0,0.0,0.0,0.0,0.0,0.0,-1.1083,0.0,-1.1814,-1.1979,-1.2077,-1.2077,-1.2422,-1.2719,-1.2895,-1.2749,-1.2729,-1.2895,-1.2905,-1.2905,-1.2905,-1.2905,-1.2905,-1.2905,-1.2905,-1.2905,-1.2905,-1.2905,-1.2905,-1.2905,-1.2905,-1.2905,-1.2881,-1.274,-1.2576,-1.2354,-1.2225,-1.236,-1.2735,-1.3572,-1.421,-1.4658,-1.4658,-1.4873,-1.5137,-0.4785,-0.4745,-0.4824,-0.5059,-0.5098,-0.5098,-0.5098,-0.5098,-0.5399,-0.623,-0.6679,-0.7038,0.0,0.0,0.0,0.0,0.0,0.0,-0.4763,0.0,0.0,-0.3608,-0.3569,-0.3548,-0.3548,-0.3517,-0.3495,0.0,0.0,0.0,0.0,-0.358,-0.3593,-0.3619,-0.3906,0.0,0.0,0.0,-0.4833,0.0,-0.6445,-0.6667,0.0,-0.7393,-0.7872,-0.8169,-0.8643,-0.8804,-0.8758,0.0,-0.8441,-0.8413,0.0,-0.8129,-0.8152,-0.8779,0.0,0.0,0.0,0.0,0.0,0.0,-0.8558,0.0,0.0,0.0,-0.733,-0.5929,0.0,0.0,0.0,0.0,0.0,0.0,0.0,0.0,-0.8737,-0.9072,-0.9648,-1.041,-1.1193,-1.1663,-1.1663,-1.1724,-1.2064,-1.2846,-1.2171,-1.2074,-1.2866,-1.2905,-1.2905,-1.2905,-1.2905,-1.2905,-1.2905,-1.2905,-1.2905,-1.2905,-1.2905,-1.2905,-1.2905,-1.2905,-1.2905,-1.2847,-1.2212,-1.1916,-1.1837,-1.1234,-1.1031,-1.1208,-1.2645,-1.3612,-1.4182,-1.4182,-1.4211,-1.425,-0.4834,-0.4932,-0.4971,-0.5078,-0.5098,-0.5049,-0.4893,-0.5532,-0.6098,-0.6315,-0.7103,0.0,0.0,0.0,0.0,0.0,0.0,-0.5459,0.0,0.0,0.0,-0.4029,-0.3685,-0.3586,-0.3781,-0.3603,-0.3495,-0.3495,-0.3495,0.0,0.0,0.0,-0.361,-0.3799,-0.3938,0.0,-0.4456,0.0,-0.4695,0.0,0.0,0.0,0.0,-0.7642,-0.8323,-0.8445,-0.8717,-0.8804,-0.8738,0.0,-0.8116,0.0,0.0,0.0,0.0,0.0,0.0,0.0,0.0,0.0,0.0,0.0,0.0,0.0,-0.7165,0.0,-0.6981,0.0,0.0,0.0,0.0,0.0,0.0,0.0,-0.7337,0.0,0.0,0.0,-0.8314,0.0,0.0,0.0,-1.1113,-1.0978,-1.1203,-1.2074,-1.133,-1.133,-1.2418,-1.25,-1.2617,-1.2895,-1.2905,-1.2905,-1.2905,-1.2905,-1.2905,-1.2905,-1.2905,-1.2905,-1.2881,-1.2452,-1.2261,-1.2212,-1.1525,-1.099,-1.0618,-1.0338,-1.0218,-1.0267,-1.0932,-1.1753,-1.2591,-1.2591,-1.2744,-1.295,-0.4824,0.0,0.0,0.0,-0.4883,-0.4877,-0.4835,-0.5832,-0.6542,-0.6432,0.0,0.0,-0.7761,-0.7478,0.0,0.0,-0.6713,-0.6152,0.0,0.0,-0.4729,-0.4649,-0.4069,0.0,0.0,-0.3801,-0.3586,-0.3495,-0.3495,-0.3495,0.0,0.0,-0.363,-0.3866,0.0,-0.4369,-0.4801,0.0,0.0,-0.5445,-0.5974,-0.6339,-0.6687,-0.8056,-0.8671,-0.8804,-0.8804,-0.8804,-0.8731,-0.8199,-0.8025,-0.8012,-0.7932,-0.7829,0.0,0.0,0.0,0.0,-0.7919,0.0,0.0,0.0,0.0,0.0,0.0,0.0,0.0,0.0,0.0,0.0,0.0,0.0,0.0,0.0,0.0,-0.6617,0.0,0.0,0.0,0.0,0.0,0.0,0.0,-0.9973,-1.0108,-1.132,-1.0498,-1.0516,-1.1853,-1.1929,-1.2049,-1.232,-1.2314,-1.2314,-1.2314,-1.2314,-1.2314,-1.2314,-1.2314,-1.2314,-1.2304,-1.1774,-1.1541,-1.1491,-1.0813,-1.0244,-0.9788,-0.9614,-0.951,-0.951,-0.951,-1.0042,-1.0796,-1.1165,-1.1489,-1.1731,-0.4656,-0.4303,0.0,0.0,0.0,-0.4522,-0.5093,-0.5832,-0.6394,0.0,0.0,0.0,0.0,0.0,0.0,0.0,0.0,-0.7204,-0.6593,0.0,-0.5544,-0.528,-0.4689,-0.4382,0.0,-0.4114,-0.3826,-0.3495,-0.3495,-0.3495,0.0,0.0,0.0,0.0,-0.4123,-0.4542,-0.4841,-0.5415,-0.6147,-0.696,-0.731,-0.7953,-0.8651,0.0,-0.8285,-0.8804,-0.8804,-0.8804,-0.8758,-0.8489,-0.8382,-0.8335,-0.7999,-0.8123,0.0,0.0,0.0,0.0,0.0,0.0,0.0,-0.7328,0.0,0.0,0.0,0.0,-0.6125,0.0,0.0,0.0,0.0,0.0,-0.6859,-0.588,0.0,0.0,0.0,0.0,0.0,0.0,0.0,0.0,0.0,-0.8577,-0.8722,-1.076,-0.9766,-0.9696,-1.1161,-1.1237,-1.1121,-1.0881,-1.0864,-1.0864,-1.0864,-1.0864,-1.0864,-1.0864,-1.0864,-1.0864,-1.0864,-1.0838,-1.0838,-1.0788,-1.0115,-0.9814,-0.9744,-0.9113,-0.8831,-0.8831,-0.8831,-0.8864,-0.9048,-1.0328,-1.0838,-1.0846,0.0,0.0,0.0,0.0,0.0,-0.4502,-0.5103,-0.5899,0.0,0.0,0.0,0.0,0.0,-0.8105,-0.8134,0.0,0.0,-0.7832,-0.7229,-0.664,0.0,0.0,0.0,-0.4998,0.0,0.0,-0.4127,-0.3832,-0.361,-0.3495,0.0,0.0,0.0,0.0,0.0,-0.4676,0.0,0.0,0.0,0.0,0.0,-0.8027,-0.8784,0.0,-0.8611,-0.8804,-0.8804,-0.8804,-0.8791,-0.8697,-0.8556,-0.8415,-0.8484,-0.831,-0.8116,-0.8342,-0.8469,-0.8524,-0.8524,-0.8657,-0.8617,-0.7799,-0.7299,-0.68,0.0,0.0,0.0,0.0,0.0,0.0,0.0,0.0,-0.6037,-0.5518,-0.5408,0.0,0.0,0.0,0.0,0.0,0.0,0.0,0.0,0.0,-0.7798,-0.8899,-0.8382,-0.8612,-0.9993,-1.016,-1.0299,-1.0523,-1.0714,-1.0788,-1.0788,-1.0788,-1.0788,-1.0788,-1.0788,-1.0788,-1.0788,-1.0338,-1.0141,-1.009,-0.9439,-0.9133,-0.9106,-0.8883,-0.8804,-0.8804,-0.8804,-0.8804,-0.8857,-0.9316,-0.9484,-0.9484,-0.4249,0.0,0.0,0.0,0.0,0.0,-0.5286,0.0,0.0,0.0,-0.7753,0.0,-0.8373,0.0,-0.8442,0.0,-0.853,-0.8277,-0.7692,-0.7275,0.0,-0.6928,-0.6177,0.0,0.0,0.0,-0.4629,-0.4141,-0.3923,-0.3712,-0.3495,0.0,0.0,0.0,0.0,0.0,-0.5347,0.0,-0.67,0.0,0.0,-0.829,0.0,0.0,-0.8804,-0.8804,-0.8804,-0.8804,-0.8804,-0.8804,-0.8684,-0.8564,-0.8751,-0.8525,-0.8258,-0.847,-0.853,-0.853,-0.853,-0.8664,-0.8664,-0.8052,-0.7612,-0.7146,-0.6486,-0.6512,-0.6579,0.0,0.0,0.0,0.0,0.0,-0.5932,-0.5672,-0.5257,-0.4756,0.0,-0.4086,0.0,0.0,0.0,0.0,0.0,0.0,-0.6571,-0.7607,-0.7344,-0.7663,-0.887,-0.9199,-0.9447,-0.968,-0.9946,-1.009,-1.009,-1.009,-1.009,-1.009,-1.009,-1.009,-1.0064,-0.964,-0.9439,-0.9413,-0.8982,-0.8804,-0.8804,-0.8804,-0.8804,-0.8804,-0.8804,-0.8804,-0.8804,-0.8804,-0.8804,-0.8804,0.0,0.0,0.0,0.0,-0.4469,0.0,0.0,0.0,-0.7121,0.0,-0.7762,-0.8045,-0.8389,-0.8422,-0.8536,-0.8784,-0.8804,-0.8571,-0.7985,-0.7939,0.0,0.0,-0.6981,-0.664,-0.6613,0.0,0.0,0.0,-0.4402,-0.4083,-0.3526,0.0,0.0,0.0,-0.4129,0.0,-0.5373,-0.6513,-0.7346,-0.7979,-0.8551,-0.8804,-0.8804,-0.8804,-0.8804,-0.8804,-0.8804,-0.8804,-0.8804,-0.8804,-0.8804,-0.8804,-0.8804,-0.8804,-0.8804,-0.8804,-0.8804,-0.8804,-0.8804,-0.8804,-0.8671,-0.8092,-0.7925,-0.7686,-0.6847,-0.7109,-0.743,-0.7086,0.0,0.0,0.0,0.0,-0.6546,-0.6243,-0.5685,-0.4985,0.0,0.0,0.0,0.0,0.0,0.0,0.0,0.0,-0.5153,-0.6866,-0.6668,0.0,0.0,-0.8312,-0.8521,-0.8393,-0.8637,-0.8791,-0.8804,-0.8804,-0.8804,-0.8804,-0.8804,-0.8804,-0.8804,-0.8804,-0.8804,-0.8804,-0.8804,-0.8804,-0.8804,-0.8804,-0.8804,-0.8804,-0.8804,-0.8804,-0.8804,-0.8804,-0.8804,-0.8804,-0.4522,-0.4746,-0.4958,0.0,-0.4868,-0.5095,0.0,0.0,0.0,0.0,-0.8076,-0.837,-0.8664,-0.8697,-0.8731,-0.8798,-0.8804,0.0,0.0,0.0,0.0,-0.8167,-0.7782,-0.7353,-0.69,-0.6358,0.0,-0.5072,0.0,0.0,-0.3866,0.0,0.0,0.0,0.0,0.0,-0.536,-0.6299,-0.7308,-0.829,-0.8657,-0.8804,-0.8804,-0.8804,-0.8804,-0.8804,-0.8804,-0.8804,-0.8804,-0.8804,-0.8804,-0.8804,-0.8804,-0.8804,-0.8804,-0.8804,-0.8804,-0.8804,-0.8804,-0.8804,-0.8771,-0.8624,-0.8225,-0.7846,-0.7619,-0.7679,-0.7722,-0.7437,-0.7799,-0.8053,-0.7678,-0.7417,-0.7022,0.0,0.0,0.0,0.0,0.0,0.0,0.0,0.0,0.0,0.0,-0.4802,-0.5248,-0.5518,-0.5858,-0.6356,-0.7041,-0.7121,-0.742,-0.8023,-0.833,-0.8591,-0.8804,-0.8804,-0.8804,-0.8804,-0.8804,-0.8804,-0.8804,-0.8804,-0.8804,-0.8804,-0.8804,-0.8804,-0.8804,-0.8804,-0.8804,-0.8804,-0.8804,-0.8804,-0.8804,-0.8804,-0.8804,-0.8804,-0.4983,0.0,0.0,-0.6019,0.0,0.0,-0.6479,-0.6801,0.0,-0.7826,-0.819,0.0,-0.8604,-0.8436,-0.8321,-0.8321,-0.8023,0.0,-0.7657,0.0,0.0,-0.7437,-0.7263,-0.6996,-0.6649,-0.6145,0.0,-0.4917,0.0,0.0,-0.3699,0.0,0.0,0.0,0.0,-0.4656,0.0,-0.6459,-0.7538,-0.8422,-0.8691,-0.8804,0.0,-0.8804,-0.8804,-0.8804,-0.8804,-0.8804,-0.8804,-0.8804,-0.8804,-0.8804,-0.8804,-0.8804,-0.8804,-0.8804,-0.8804,-0.8804,-0.8804,-0.8804,-0.8804,-0.8804,-0.8532,-0.8258,-0.815,-0.8123,-0.8076,-0.7919,-0.8053,-0.8156,-0.8094,-0.7645,-0.6987,0.0,0.0,0.0,0.0,0.0,0.0,0.0,0.0,0.0,-0.3572,-0.4277,-0.4772,-0.4736,-0.5161,-0.5639,-0.6108,-0.654,-0.7074,-0.7709,-0.8174,-0.8543,-0.8804,-0.8804,-0.8804,-0.8804,-0.8804,-0.8804,-0.8804,-0.8804,-0.8804,-0.8804,-0.8804,-0.8804,-0.8804,-0.8804,-0.8804,-0.8804,-0.8804,-0.8804,-0.8804,-0.8804,-0.8804,-0.8804,0.0,0.0,0.0,0.0,0.0,0.0,0.0,-0.7388,0.0,-0.7925,0.0,-0.8405,-0.8322,-0.7935,-0.767,-0.7563,0.0,-0.6503,-0.6272,-0.6473,-0.6498,-0.6267,-0.6257,-0.6247,-0.6212,-0.5744,0.0,0.0,0.0,-0.3931,-0.3284,0.0,0.0,0.0,0.0,0.0,0.0,-0.6658,-0.7698,-0.8271,-0.856,-0.8725,-0.8778,-0.8699,-0.8646,-0.8646,-0.8533,-0.8646,-0.8804,-0.8804,-0.8725,-0.8646,-0.8646,-0.8646,-0.8646,-0.8533,-0.8593,-0.8646,-0.8646,-0.8646,-0.8672,-0.8778,-0.8804,-0.8744,-0.8516,-0.8456,-0.8456,-0.8456,-0.8223,-0.8165,-0.8664,-0.7735,-0.6671,0.0,0.0,0.0,0.0,0.0,0.0,0.0,0.0,0.0,-0.3705,-0.3874,-0.414,-0.4329,-0.4569,-0.4868,-0.528,-0.6239,-0.6981,-0.7417,-0.802,-0.8457,-0.8744,-0.8791,-0.8804,-0.8804,-0.8804,-0.8804,-0.8804,-0.8804,-0.8804,-0.8804,-0.8804,-0.8804,-0.8804,-0.8804,-0.8804,-0.8804,-0.8804,-0.8804,-0.8804,-0.8804,-0.8804,-0.8804,0.0,0.0,0.0,0.0,0.0,-0.7832,-0.8127,-0.7976,-0.7932,-0.8281,-0.855,-0.8488,-0.7897,-0.7747,-0.7456,-0.6858,-0.6669,0.0,0.0,0.0,0.0,-0.6528,-0.6528,-0.6438,-0.6191,-0.5744,-0.5183,0.0,-0.3955,-0.3481,-0.3128,-0.2928,0.0,0.0,0.0,0.0,-0.5435,-0.6249,0.0,-0.7518,-0.7781,-0.8262,-0.8725,-0.8129,-0.7883,-0.7803,-0.7208,-0.7777,-0.8804,-0.8804,-0.8401,-0.7883,-0.7883,-0.7883,-0.7777,-0.7155,-0.7429,-0.7883,-0.7883,-0.7883,-0.8049,-0.8646,-0.8804,-0.8791,-0.8744,-0.8731,-0.8731,-0.8731,-0.8691,-0.8611,-0.8502,-0.7383,-0.6389,-0.602,0.0,0.0,0.0,0.0,0.0,0.0,0.0,0.0,0.0,-0.4295,-0.4261,-0.4086,0.0,0.0,-0.5253,-0.5487,-0.6052,-0.7046,-0.7666,-0.815,-0.8469,-0.8691,-0.8804,-0.8804,-0.8804,-0.8804,-0.8804,-0.8804,-0.8804,-0.8804,-0.8804,-0.8804,-0.8804,-0.8804,-0.8804,-0.8804,-0.8804,-0.8804,-0.8804,-0.8804,-0.8804,-0.8804,0.0,0.0,0.0,0.0,0.0,0.0,0.0,-0.724,-0.7379,-0.7778,-0.7596,-0.7324,-0.6959,-0.6695,-0.6416,-0.6064,-0.5714,-0.55,-0.55,-0.55,-0.55,-0.55,-0.55,-0.5454,-0.5335,-0.5001,-0.4575,-0.4074,-0.3614,-0.322,-0.2888,-0.2765,-0.2742,-0.2833,0.0,-0.4369,0.0,0.0,-0.6253,-0.676,-0.703,-0.7343,-0.7616,-0.7262,-0.7128,-0.7074,-0.6723,-0.7047,-0.767,-0.767,-0.7429,-0.7128,-0.7128,-0.7128,-0.7074,-0.6696,-0.6858,-0.7208,-0.7589,-0.7696,-0.7883,-0.8619,-0.8507,-0.8235,-0.8235,-0.8235,-0.8129,-0.775,-0.7969,-0.8043,-0.7377,-0.691,-0.6401,-0.5756,0.0,0.0,0.0,0.0,0.0,0.0,0.0,0.0,0.0,0.0,0.0,0.0,0.0,0.0,-0.4811,-0.5132,-0.5762,-0.6767,-0.7375,-0.7909,-0.8395,-0.8664,-0.8804,-0.8804,-0.8804,-0.8804,-0.8804,-0.8804,-0.8804,-0.8804,-0.8804,-0.8804,-0.8804,-0.8804,-0.8804,-0.8804,-0.8804,-0.8804,-0.8804,-0.8804,-0.8804,-0.8804,0.0,-0.8228,0.0,0.0,-0.7338,-0.7268,-0.646,-0.6416,-0.6633,-0.7097,-0.6659,-0.6235,-0.6079,-0.5721,-0.5433,-0.5296,-0.4814,-0.4491,-0.4491,-0.4491,-0.4491,-0.4491,-0.4491,-0.4491,-0.4491,-0.4294,-0.4004,0.0,-0.3405,-0.3073,-0.2657,-0.2657,-0.278,-0.3006,-0.3549,-0.4164,-0.481,-0.5183,-0.56,-0.6067,-0.6267,-0.6453,-0.6588,-0.6421,-0.6367,-0.634,-0.6204,-0.6154,-0.6154,-0.6154,-0.6258,-0.6367,-0.6367,-0.6367,-0.634,-0.6204,-0.6258,-0.6502,-0.7069,-0.723,-0.7417,-0.8156,-0.7889,-0.7477,-0.7477,-0.7477,-0.7289,-0.6723,-0.7074,-0.7211,-0.636,-0.6389,-0.6239,-0.5316,-0.5326,0.0,0.0,0.0,0.0,0.0,0.0,0.0,-0.333,0.0,0.0,0.0,0.0,0.0,-0.4456,-0.4937,-0.5608,-0.6492,-0.7149,-0.7718,-0.8201,-0.8597,-0.8804,-0.8804,-0.8804,-0.8804,-0.8804,-0.8804,-0.8804,-0.8804,-0.8804,-0.8804,-0.8804,-0.8804,-0.8804,-0.8804,-0.8804,-0.8804,-0.8804,-0.8804,-0.8804,-0.8804,0.0,0.0,0.0,0.0,0.0,-0.6954,-0.6849,-0.6401,-0.6193,-0.6613,-0.6612,-0.6306,-0.5652,-0.5529,-0.5242,-0.4653,-0.4546,-0.4491,-0.4491,-0.4491,-0.4491,-0.4491,-0.4491,-0.4491,-0.4491,-0.4294,-0.4004,0.0,0.0,-0.3027,-0.2522,-0.252,-0.2785,-0.328,-0.3647,-0.4033,-0.4457,-0.4694,-0.5077,-0.5571,-0.5588,-0.6009,-0.6529,-0.5869,-0.5597,-0.5515,-0.4924,-0.4708,-0.4708,-0.4708,-0.5113,-0.5597,-0.5597,-0.5597,-0.5487,-0.4869,-0.514,-0.5624,-0.5678,-0.5701,-0.5896,-0.661,-0.675,-0.6696,-0.6696,-0.6696,-0.6669,-0.6615,-0.6642,-0.6598,-0.6257,-0.5888,-0.5423,-0.4849,-0.4623,0.0,0.0,0.0,0.0,0.0,0.0,0.0,0.0,-0.3635,0.0,0.0,-0.3456,-0.3904,-0.4721,-0.4821,-0.5268,-0.6209,-0.7063,-0.7517,-0.7594,-0.8383,-0.8804,-0.8804,-0.8804,-0.8804,-0.8804,-0.8804,-0.8804,-0.8804,-0.8804,-0.8804,-0.8804,-0.8804,-0.8804,-0.8804,-0.8804,-0.8804,-0.8804,-0.8804,-0.8804,-0.8804,0.0,0.0,-0.7094,-0.6289,-0.6269,-0.6205,-0.5766,-0.5502,-0.5408,-0.5564,-0.551,-0.5318,-0.4932,-0.4893,-0.4787,-0.4515,-0.4491,-0.4491,-0.4491,-0.4491,-0.4491,-0.4491,-0.4491,-0.4491,-0.4491,-0.4433,-0.4202,0.0,0.0,-0.3269,-0.2852,-0.2785,-0.2958,-0.3376,-0.3664,-0.3926,-0.416,-0.4339,-0.4587,-0.4893,-0.4893,-0.5089,-0.5308,-0.5007,-0.4893,-0.4869,-0.4598,-0.4491,-0.4491,-0.4491,-0.468,-0.4893,-0.4893,-0.4893,-0.4842,-0.457,-0.4677,-0.4976,-0.5378,-0.5515,-0.5678,-0.6421,-0.6258,-0.5955,-0.5955,-0.5955,-0.5819,-0.5418,-0.5336,-0.5311,-0.5207,-0.5161,-0.4978,-0.448,-0.44,-0.4318,0.0,0.0,0.0,0.0,0.0,0.0,0.0,0.0,0.0,0.0,0.0,-0.3732,-0.4289,-0.4621,-0.5062,-0.5645,-0.6868,-0.7513,-0.7513,-0.8357,-0.8804,-0.8804,-0.8804,-0.8804,-0.8804,-0.8804,-0.8804,-0.8804,-0.8804,-0.8804,-0.8752,-0.8321,-0.8129,-0.8129,-0.8129,-0.7857,-0.7589,-0.848,-0.8507,-0.8209,-0.6868,-0.6805,-0.6547,-0.5849,-0.5735,-0.5555,-0.504,-0.502,-0.5033,-0.4958,-0.4887,-0.4745,-0.458,-0.4556,-0.4539,-0.4494,-0.4491,-0.4491,-0.4491,-0.4491,-0.4491,-0.4491,-0.4491,0.0,-0.4491,-0.4491,-0.4365,-0.4062,-0.388,-0.3619,-0.3293,-0.3215,-0.33,-0.3537,-0.3792,-0.396,-0.4072,-0.422,-0.4368,-0.4491,-0.4491,-0.4491,-0.4491,-0.4491,-0.4491,-0.4491,-0.4491,-0.4491,-0.4491,-0.4491,-0.4491,-0.4491,-0.4491,-0.4491,-0.4491,-0.4491,-0.4491,-0.4598,-0.5085,-0.5218,-0.5328,-0.585,-0.5605,-0.5218,-0.5218,-0.5218,-0.5085,-0.4598,-0.4491,-0.4491,-0.4491,-0.4595,-0.457,-0.4161,-0.4171,-0.4081,0.0,-0.3528,0.0,0.0,-0.3291,-0.322,-0.3029,-0.317,0.0,0.0,0.0,-0.3688,-0.4241,-0.4462,-0.4769,-0.5226,-0.6335,-0.6931,-0.7011,-0.7987,-0.848,-0.848,-0.8699,-0.8804,-0.8778,-0.856,-0.848,-0.8454,-0.8235,-0.8156,-0.8103,-0.7589,-0.7369,-0.7369,-0.7369,-0.7047,-0.6723,-0.7777,-0.783,-0.7456,-0.6337,-0.6108,-0.5837,-0.5227,-0.5096,-0.5096,-0.5096,-0.5257,-0.5334,-0.5117,-0.5096,-0.4982,-0.4721,-0.4687,-0.4655,-0.4505,-0.4491,-0.4491,-0.4491,-0.4491,-0.4491,-0.4491,-0.4491,-0.4491,-0.4491,-0.4491,-0.4392,-0.419,-0.4187,-0.4058,-0.3782,-0.3782,-0.3782,-0.3799,-0.4082,-0.419,-0.4204,-0.4399,-0.4487,-0.4491,-0.4491,-0.4491,-0.4491,-0.4491,-0.4491,-0.4491,-0.4491,-0.4491,-0.4491,-0.4491,-0.4491,-0.4491,-0.4491,-0.4491,-0.4491,-0.4491,-0.4491,-0.4491,-0.4519,-0.4519,-0.4519,-0.4515,-0.4519,-0.4519,-0.4519,-0.4519,-0.4519,-0.4491,-0.4491,-0.4491,-0.4491,-0.4341,-0.4122,-0.3846,-0.3815,-0.3687,-0.3353,-0.358,0.0,-0.3802,-0.402,-0.3944,-0.335,-0.3535,0.0,0.0,0.0,-0.3764,-0.4837,-0.4333,-0.4336,-0.5074,-0.539,-0.5626,-0.5814,-0.7091,-0.7723,-0.7723,-0.8454,-0.8804,-0.8778,-0.8049,-0.7723,-0.767,-0.6939,-0.6615,-0.6615,-0.6615,-0.6615,-0.6615,-0.6615,-0.6615,-0.6615,-0.6615,-0.6615,-0.6615,-0.5697,-0.5636,-0.5521,-0.5346,-0.532,-0.532,-0.532,-0.5361,-0.5378,-0.5327,-0.532,-0.5213,-0.5013,-0.4904,-0.4826,-0.4779,-0.4677,-0.4648,-0.4648,-0.4549,-0.4491,-0.4491,-0.4491,-0.4491,-0.4491,-0.4491,-0.4467,-0.4395,-0.4271,-0.4147,-0.4078,-0.4078,-0.4155,-0.4279,-0.4378,-0.4395,-0.4395,-0.447,-0.4491,-0.4491,-0.4491,-0.4491,-0.4491,-0.4491,-0.4491,-0.4491,-0.4491,-0.4491,-0.4491,-0.4491,-0.4491,-0.4491,-0.4491,-0.4491,-0.4491,-0.4491,-0.4491,-0.4491,-0.4491,-0.4491,-0.4491,-0.4491,-0.4491,-0.4491,-0.4491,-0.4491,-0.4491,-0.4491,-0.4491,-0.446,-0.4334,-0.4169,-0.4001,-0.3826,-0.3733,-0.3615,-0.352,0.0,-0.3317,-0.3317,-0.3319,-0.3193,-0.2911,-0.322,0.0,0.0,0.0,-0.3483,-0.392,-0.415,-0.4338,-0.4482,-0.5358,-0.5827,-0.5795,-0.6571,-0.6939,-0.6966,-0.7182,-0.7289,-0.7289,-0.7047,-0.6939,-0.6939,-0.6696,-0.6588,-0.6561,-0.6064,-0.5846,-0.5846,-0.5846,-0.5574,-0.5281,-0.6231,-0.6285,-0.5923,-0.5395,-0.5395,-0.5395,-0.5395,-0.5395,-0.5395,-0.5395,-0.5395,-0.5395,-0.5395,-0.5395,-0.5358,-0.5226,-0.5138,-0.504,-0.4897,-0.483,-0.4775,-0.4775,-0.4687,-0.4638,-0.458,-0.4576,-0.4549,-0.4491,-0.4491,-0.4491,-0.4491,-0.4372,-0.4301,-0.4301,-0.4301,-0.4375,-0.4491,-0.4491,-0.4491,-0.4491,-0.4491,-0.4491,-0.4491,-0.4491,-0.4491,-0.4491,-0.4491,-0.4491,-0.4491,-0.4491,-0.4491,-0.4491,-0.4491,-0.4491,-0.4491,-0.4491,-0.4491,-0.4491,-0.4491,-0.4491,-0.4491,-0.4491,-0.4491,-0.4491,-0.4491,-0.4491,-0.4491,-0.4491,-0.4491,-0.4491,-0.4491,-0.4491,-0.4464,-0.4345,-0.4132,-0.3964,-0.3894,-0.371,-0.3604,-0.3604,-0.3385,-0.3264,0.0,0.0,-0.321,-0.312,-0.3342,-0.3436,-0.3306,0.0,-0.3363,-0.3524,-0.3895,-0.411,-0.4122,-0.4895,-0.5313,-0.5302,-0.5886,-0.6177,-0.6199,-0.6475,-0.6588,-0.6588,-0.6312,-0.6177,-0.6172,-0.5932,-0.58,-0.5769,-0.5304,-0.5136,-0.5136,-0.5136,-0.4869,-0.4598,-0.5496,-0.5523,-0.5191,-0.5395,-0.5395,-0.5395,-0.5395,-0.5395,-0.5395,-0.5395,-0.5395,-0.5395,-0.5395,-0.5395,-0.5395,-0.5395,-0.5395,-0.5283,-0.4975,-0.4911,-0.4904,-0.4904,-0.4894,-0.4857,-0.4714,-0.4707,-0.4662,-0.4508,-0.4505,-0.4501,-0.4491,-0.4491,-0.4491,-0.4491,-0.4491,-0.4491,-0.4491,-0.4491,-0.4491,-0.4491,-0.4491,-0.4491,-0.4491,-0.4491,-0.4491,-0.4491,-0.4491,-0.4491,-0.4491,-0.4491,-0.4491,-0.4491,-0.4491,-0.4491,-0.4491,-0.4491,-0.4491,-0.4491,-0.4491,-0.4491,-0.4491,-0.4491,-0.4491,-0.4491,-0.4491,-0.4491,-0.4491,-0.4491,-0.4491,-0.4491,-0.4491,-0.4491,-0.4487,-0.4477,-0.4212,-0.3991,-0.3981,-0.3765,-0.3604,-0.3604,-0.3492,-0.3534,-0.3918,-0.3838,-0.3756,-0.3744,-0.3768,-0.364,-0.3303,0.0,-0.3391,-0.358,-0.3596,-0.3725,-0.4002,-0.4117,-0.4291,-0.4487,-0.5109,-0.5433,-0.5433,-0.6118,-0.6453,-0.6426,-0.5733,-0.5433,-0.5406,-0.4759,-0.4491,-0.4491,-0.4491,-0.4491,-0.4491,-0.4491,-0.4491,-0.4491,-0.4491,-0.4491,-0.4491,-0.5395,-0.5395,-0.5395,-0.5395,-0.5395,-0.5395,-0.5395,-0.5395,-0.5395,-0.5395,-0.5395,-0.5395,-0.5395,-0.5395,-0.5365,-0.5296,-0.5148,-0.5049,-0.5049,-0.4948,-0.4874,-0.4867,-0.4863,-0.4792,-0.4668,-0.4665,-0.4607,-0.4491,-0.4491,-0.4491,-0.4491,-0.4491,-0.4491,-0.4491,-0.4491,-0.4491,-0.4491,-0.4491,-0.4491,-0.4491,-0.4491,-0.4491,-0.4491,-0.4491,-0.4491,-0.4491,-0.4491,-0.4491,-0.4491,-0.4491,-0.4491,-0.4491,-0.4491,-0.4491,-0.4491,-0.4491,-0.4491,-0.4491,-0.4491,-0.4491,-0.4491,-0.4491,-0.4491,-0.4491,-0.4491,-0.4491,-0.4491,-0.4491,-0.4491,-0.4457,-0.4294,-0.4122,-0.3957,-0.3866,-0.372,-0.3604,-0.3604,-0.3446,-0.3372,-0.3534,-0.346,-0.337,-0.3269,-0.3499,-0.3514,-0.3168,-0.3242,-0.3323,-0.336,-0.3613,-0.3821,-0.3987,-0.4117,-0.4291,-0.4487,-0.4653,-0.4732,-0.4732,-0.4928,-0.5007,-0.4979,-0.4814,-0.4732,-0.4732,-0.457,-0.4491,-0.4491,-0.4491,-0.4491,-0.4491,-0.4491,-0.4491,-0.4491,-0.4491,-0.4491,-0.4491,-0.5395,-0.5395,-0.5395,-0.5395,-0.5395,-0.5395,-0.5395,-0.5395,-0.5395,-0.5395,-0.5395,-0.5395,-0.5395,-0.5395,-0.5395,-0.5395,-0.5284,-0.5237,-0.5237,-0.5165,-0.5087,-0.4988,-0.4985,-0.4914,-0.4799,-0.4796,-0.4755,-0.467,-0.4631,-0.4593,-0.4593,-0.4525,-0.4491,-0.4491,-0.4491,-0.4491,-0.4491,-0.4491,-0.4491,-0.4491,-0.4491,-0.4491,-0.4491,-0.4491,-0.4491,-0.4491,-0.4491,-0.4491,-0.4491,-0.4491,-0.4491,-0.4491,-0.4491,-0.4491,-0.4491,-0.4491,-0.4491,-0.4491,-0.4491,-0.4491,-0.4491,-0.4491,-0.4491,-0.4491,-0.4491,-0.4491,-0.4491,-0.4491,-0.4491,-0.4467,-0.4362,-0.4142,-0.3967,-0.391,-0.3717,-0.3604,-0.3604,-0.3507,-0.3453,-0.3477,-0.3456,-0.3425,-0.3429,-0.3578,-0.3609,-0.3439,-0.3546,-0.3603,-0.3532,-0.3812,-0.3981,-0.3994,-0.4233,-0.4385,-0.4491,-0.4491,-0.4491,-0.4491,-0.4491,-0.4491,-0.4491,-0.4491,-0.4491,-0.4491,-0.4491,-0.4491,-0.4491,-0.4491,-0.4491,-0.4491,-0.4491,-0.4491,-0.4491,-0.4491,-0.4491,-0.4491,-0.5395,-0.5395,-0.5395,-0.5395,-0.5395,-0.5395,-0.5395,-0.5395,-0.5395,-0.5395,-0.5395,-0.5395,-0.5395,-0.5395,-0.5395,-0.5395,-0.5395,-0.5395,-0.5395,-0.5395,-0.5337,-0.514,-0.5133,-0.5066,-0.4924,-0.4897,-0.4887,-0.4887,-0.4789,-0.4714,-0.4687,-0.4586,-0.4511,-0.4491,-0.4491,-0.4491,-0.4491,-0.4491,-0.4491,-0.4491,-0.4491,-0.4491,-0.4491,-0.4491,-0.4491,-0.4491,-0.4491,-0.4491,-0.4491,-0.4491,-0.4491,-0.4491,-0.4491,-0.4491,-0.4491,-0.4491,-0.4491,-0.4491,-0.4491,-0.4491,-0.4491,-0.4491,-0.4491,-0.4491,-0.4491,-0.4491,-0.4491,-0.4491,-0.4491,-0.4491,-0.4491,-0.4219,-0.3994,-0.3994,-0.3771,-0.3604,-0.3604,-0.3604,-0.361,-0.3631,-0.3634,-0.3692,-0.3812,-0.3826,-0.3826,-0.3826,-0.3944,-0.394,-0.3832,-0.4068,-0.4137,-0.4035,-0.4344,-0.4491,-0.4491,-0.4491,-0.4491,-0.4491,-0.4491,-0.4491,-0.4491,-0.4491,-0.4491,-0.4491,-0.4491,-0.4491,-0.4491,-0.4491,-0.4491,-0.4491,-0.4491,-0.4491,-0.4491,-0.4491,-0.4491,-0.4491,-0.5395,-0.5395,-0.5395,-0.5395,-0.5395,-0.5395,-0.5395,-0.5395,-0.5395,-0.5395,-0.5395,-0.5395,-0.5395,-0.5395,-0.5395,-0.5395,-0.5395,-0.5395,-0.5395,-0.5395,-0.5385,-0.5358,-0.5358,-0.5254,-0.5069,-0.4951,-0.4887,-0.4887,-0.4864,-0.4816,-0.4691,-0.4667,-0.4614,-0.4491,-0.4491,-0.4491,-0.4491,-0.4491,-0.4491,-0.4491,-0.4491,-0.4491,-0.4491,-0.4491,-0.4491,-0.4491,-0.4491,-0.4491,-0.4491,-0.4491,-0.4491,-0.4491,-0.4491,-0.4491,-0.4491,-0.4491,-0.4491,-0.4491,-0.4491,-0.4491,-0.4491,-0.4491,-0.4491,-0.4491,-0.4491,-0.4491,-0.4491,-0.4491,-0.4491,-0.4491,-0.4491,-0.4219,-0.3994,-0.3994,-0.3771,-0.3604,-0.3604,-0.3604,-0.3648,-0.3744,-0.3758,-0.3819,-0.3944,-0.396,-0.396,-0.396,-0.3981,-0.3984,-0.396,-0.4126,-0.4184,-0.416,-0.4375,-0.4491,-0.4491,-0.4491,-0.4491,-0.4491,-0.4491,-0.4491,-0.4491,-0.4491,-0.4491,-0.4491,-0.4491,-0.4491,-0.4491,-0.4491,-0.4491,-0.4491,-0.4491,-0.4491,-0.4491,-0.4491,-0.4491,-0.4491,-0.5395,-0.5395,-0.5395,-0.5395,-0.5395,-0.5395,-0.5395,-0.5395,-0.5395,-0.5395,-0.5395,-0.5395,-0.5395,-0.5395,-0.5395,-0.5395,-0.5395,-0.5395,-0.5395,-0.5395,-0.5395,-0.5395,-0.5395,-0.5361,-0.5257,-0.5192,-0.5159,-0.5159,-0.5074,-0.4965,-0.4925,-0.485,-0.4775,-0.4707,-0.4707,-0.4707,-0.4707,-0.4707,-0.4707,-0.4701,-0.4648,-0.4614,-0.4604,-0.4522,-0.4491,-0.4491,-0.4491,-0.4491,-0.4491,-0.4491,-0.4491,-0.4491,-0.4491,-0.4491,-0.4491,-0.4491,-0.4491,-0.4491,-0.4491,-0.4491,-0.4491,-0.4491,-0.4491,-0.4491,-0.4491,-0.4491,-0.4491,-0.4491,-0.4491,-0.4491,-0.4491,-0.4287,-0.4115,-0.4115,-0.389,-0.3724,-0.3805,-0.3744,-0.3748,-0.3897,-0.3914,-0.395,-0.4102,-0.4115,-0.4115,-0.4115,-0.4216,-0.4226,-0.4122,-0.4257,-0.4365,-0.4365,-0.4457,-0.4491,-0.4491,-0.4491,-0.4491,-0.4491,-0.4491,-0.4491,-0.4491,-0.4491,-0.4491,-0.4491,-0.4491,-0.4491,-0.4491,-0.4491,-0.4491,-0.4491,-0.4491,-0.4491,-0.4491,-0.4491,-0.4491,-0.4491,-0.5395,-0.5395,-0.5395,-0.5395,-0.5395,-0.5395,-0.5395,-0.5395,-0.5395,-0.5395,-0.5395,-0.5395,-0.5395,-0.5395,-0.5395,-0.5395,-0.5395,-0.5395,-0.5395,-0.5395,-0.5395,-0.5395,-0.5395,-0.5395,-0.5395,-0.5395,-0.5395,-0.5395,-0.5243,-0.5133,-0.5096,-0.4988,-0.4921,-0.4887,-0.4887,-0.4887,-0.4887,-0.4887,-0.4887,-0.4877,-0.4792,-0.4745,-0.4728,-0.46,-0.4542,-0.4539,-0.4501,-0.4491,-0.4491,-0.4491,-0.4491,-0.4491,-0.4491,-0.4491,-0.4491,-0.4491,-0.4491,-0.4491,-0.4491,-0.4491,-0.4491,-0.4491,-0.4491,-0.4491,-0.4491,-0.4491,-0.4491,-0.4491,-0.4491,-0.4491,-0.4491,-0.4345,-0.4197,-0.4197,-0.3998,-0.3887,-0.3981,-0.3917,-0.39,-0.4031,-0.4048,-0.4105,-0.4257,-0.4271,-0.4271,-0.4271,-0.4399,-0.444,-0.4277,-0.4429,-0.4491,-0.4491,-0.4491,-0.4491,-0.4491,-0.4491,-0.4491,-0.4491,-0.4491,-0.4491,-0.4491,-0.4491,-0.4491,-0.4491,-0.4491,-0.4491,-0.4491,-0.4491,-0.4491,-0.4491,-0.4491,-0.4491,-0.4491,-0.4491,-0.4491,-0.4491,-0.5395,-0.5395,-0.5395,-0.5395,-0.5395,-0.5395,-0.5395,-0.5395,-0.5395,-0.5395,-0.5395,-0.5395,-0.5395,-0.5395,-0.5395,-0.5395,-0.5395,-0.5395,-0.5395,-0.5395,-0.5395,-0.5395,-0.5395,-0.5395,-0.5395,-0.5395,-0.5395,-0.5395,-0.5385,-0.527,-0.51,-0.509,-0.5012,-0.4887,-0.4887,-0.4887,-0.4887,-0.4887,-0.4887,-0.4887,-0.4877,-0.487,-0.4887,-0.4731,-0.4674,-0.4657,-0.4542,-0.4491,-0.4491,-0.4491,-0.4491,-0.4491,-0.4491,-0.4491,-0.4491,-0.4491,-0.4491,-0.4491,-0.4491,-0.4491,-0.4491,-0.4491,-0.4491,-0.4491,-0.4491,-0.4491,-0.4491,-0.4491,-0.4491,-0.4491,-0.4491,-0.4345,-0.4197,-0.4197,-0.4085,-0.3984,-0.3994,-0.3984,-0.4035,-0.416,-0.4177,-0.426,-0.446,-0.4474,-0.4474,-0.4474,-0.4484,-0.4484,-0.4474,-0.4484,-0.4491,-0.4491,-0.4491,-0.4491,-0.4491,-0.4491,-0.4491,-0.4491,-0.4491,-0.4491,-0.4491,-0.4491,-0.4491,-0.4491,-0.4491,-0.4491,-0.4491,-0.4491,-0.4491,-0.4491,-0.4491,-0.4491,-0.4491,-0.4491,-0.4491,-0.4491,-0.5395,-0.5395,-0.5395,-0.5395,-0.5395,-0.5395,-0.5395,-0.5395,-0.5395,-0.5395,-0.5395,-0.5395,-0.5395,-0.5395,-0.5395,-0.5395,-0.5395,-0.5395,-0.5395,-0.5395,-0.5395,-0.5395,-0.5395,-0.5395,-0.5395,-0.5395,-0.5395,-0.5395,-0.5395,-0.5365,-0.5274,-0.5274,-0.5243,-0.5225,-0.5225,-0.4897,-0.4344,-0.4344,-0.4019,-0.3528,-0.3437,-0.3411,-0.3402,-0.3205,-0.3137,-0.3133,-0.3095,-0.3071,-0.3075,-0.3075,-0.3062,-0.3065,-0.3065,-0.3065,-0.3065,-0.3065,-0.3065,-0.3065,-0.3065,-0.3763,-0.4491,-0.4491,-0.4491,-0.4491,-0.4491,-0.4491,-0.4491,-0.4491,-0.4491,-0.4491,-0.4491,-0.4447,-0.4379,-0.4379,-0.423,-0.4166,-0.428,-0.419,-0.419,-0.4365,-0.4379,-0.4429,-0.4484,-0.4491,-0.4491,-0.4491,-0.4491,-0.4491,-0.4491,-0.4491,-0.4491,-0.4491,-0.4491,-0.4491,-0.4491,-0.4491,-0.4491,-0.4491,-0.4491,-0.4491,-0.4491,-0.4491,-0.4491,-0.4491,-0.4491,-0.4491,-0.4491,-0.4491,-0.4491,-0.4491,-0.4491,-0.4491,-0.4491,-0.4491,-0.4491,-0.4491,-0.5395,-0.5395,-0.5395,-0.5395,-0.5395,-0.5395,-0.5395,-0.5395,-0.5395,-0.5395,-0.5395,-0.5395,-0.5395,-0.5395,-0.5395,-0.5395,-0.5126,-0.4957,-0.4957,-0.4722,-0.4821,-0.5362,-0.5395,-0.5259,-0.4957,-0.4957,-0.4821,-0.4553,-0.4553,-0.4553,-0.4553,-0.4553,-0.4553,-0.4553,-0.4553,-0.4184,-0.358,-0.358,-0.3245,-0.2706,-0.2592,-0.2572,-0.2531,-0.2364,-0.2306,-0.2271,-0.2219,-0.2212,-0.2202,-0.2202,-0.2213,-0.2209,-0.2209,-0.2194,-0.2202,-0.2202,-0.2202,-0.2202,-0.2202,-0.2982,-0.379,-0.379,-0.379,-0.379,-0.379,-0.379,-0.379,-0.379,-0.379,-0.379,-0.379,-0.379,-0.379,-0.379,-0.3667,-0.3695,-0.4058,-0.3993,-0.4052,-0.445,-0.4491,-0.4491,-0.4491,-0.4491,-0.4491,-0.4491,-0.4491,-0.4491,-0.4491,-0.4491,-0.4491,-0.4491,-0.4491,-0.4491,-0.4491,-0.4491,-0.4491,-0.4491,-0.4491,-0.4491,-0.4491,-0.4491,-0.4491,-0.4491,-0.4491,-0.4491,-0.4491,-0.4491,-0.4491,-0.4491,-0.4491,-0.4491,-0.4491,-0.4491,-0.4491,-0.4491,-0.5395,-0.5395,-0.5395,-0.5395,-0.5395,-0.5395,-0.5395,-0.5395,-0.5395,-0.5395,-0.5395,-0.5395,-0.5395,-0.5395,-0.5395,-0.5395,-0.4519,-0.3982,-0.3982,-0.3178,-0.3513,-0.5292,-0.5395,-0.4954,-0.4015,-0.3982,-0.358,-0.2711,-0.2711,-0.2711,-0.2711,-0.2711,-0.2711,-0.2711,-0.2711,-0.2711,-0.2678,-0.2678,-0.2678,-0.2678,-0.2678,-0.2678,-0.2671,-0.2535,-0.2476,-0.2466,-0.2268,-0.2182,-0.2182,-0.2182,-0.2197,-0.2169,-0.2198,-0.2177,-0.2174,-0.2174,-0.2174,-0.2174,-0.2174,-0.2174,-0.2174,-0.2202,-0.2202,-0.2202,-0.2202,-0.2202,-0.2202,-0.2202,-0.2202,-0.2202,-0.2202,-0.2202,-0.2202,-0.2202,-0.2202,-0.2454,-0.3176,-0.3287,-0.3594,-0.4377,-0.4491,-0.4491,-0.4491,-0.4491,-0.4491,-0.4491,-0.4491,-0.4491,-0.4491,-0.4491,-0.4491,-0.4491,-0.4491,-0.4491,-0.4491,-0.4491,-0.4491,-0.4491,-0.4491,-0.4491,-0.4491,-0.4491,-0.4491,-0.4491,-0.4491,-0.4491,-0.4491,-0.4491,-0.4491,-0.4491,-0.4491,-0.4491,-0.4491,-0.4491,-0.4491,-0.4491,-0.5395,-0.5395,-0.5395,-0.5395,-0.5395,-0.5395,-0.5395,-0.5395,-0.5395,-0.5395,-0.4821,-0.4417,-0.4417,-0.3882,-0.3513,-0.3513,-0.3245,-0.3078,-0.3078,-0.2845,-0.2945,-0.348,-0.3513,-0.338,-0.3078,-0.3078,-0.2945,-0.2711,-0.2711,-0.2711,-0.2711,-0.2711,-0.2711,-0.2711,-0.2711,-0.2344,-0.1708,-0.1708,-0.1374,-0.0807,-0.0807,-0.0807,-0.0806,-0.0766,-0.0731,-0.073,-0.0691,-0.0647,-0.0668,-0.0668,-0.0655,-0.0666,-0.0651,-0.0661,-0.0643,-0.0643,-0.0643,-0.0643,-0.0643,-0.0643,-0.0895,-0.1952,-0.2202,-0.2202,-0.2202,-0.2202,-0.2202,-0.2202,-0.2202,-0.2202,-0.2202,-0.2202,-0.2202,-0.2202,-0.2202,-0.2286,-0.2508,-0.2536,-0.2619,-0.2871,-0.2899,-0.2899,-0.2899,-0.2899,-0.2899,-0.2899,-0.2899,-0.2899,-0.2899,-0.2899,-0.2899,-0.2899,-0.2899,-0.2899,-0.2899,-0.3959,-0.4208,-0.3677,-0.4236,-0.3929,-0.2926,-0.4015,-0.3901,-0.2926,-0.3483,-0.34,-0.2899,-0.2899,-0.2899,-0.2899,-0.2899,-0.2899,-0.2899,-0.2899,-0.2899,-0.2899,-0.5395,-0.5395,-0.5395,-0.5395,-0.5395,-0.5395,-0.5395,-0.509,-0.4855,-0.4855,-0.4048,-0.348,-0.348,-0.3011,-0.2711,-0.2711,-0.2376,-0.2009,-0.1643,-0.1643,-0.1643,-0.1643,-0.1643,-0.1776,-0.2143,-0.2143,-0.1977,-0.1643,-0.1643,-0.1643,-0.1643,-0.1643,-0.1643,-0.1643,-0.1643,-0.1308,-0.0772,-0.0772,-0.0471,0.0,0.0,0.0,0.0,0.0,0.0,0.0,0.0,0.0,0.0,0.0,0.0,0.0,0.0,0.0,0.0,0.0,0.0,0.0,0.0,0.0,-0.0224,-0.1118,-0.134,-0.134,-0.134,-0.134,-0.134,-0.134,-0.134,-0.134,-0.134,-0.134,-0.134,-0.134,-0.134,-0.1424,-0.173,-0.1758,-0.187,-0.2174,-0.2202,-0.2202,-0.2202,-0.2202,-0.2202,-0.2202,-0.2202,-0.2202,-0.2202,-0.2202,-0.2202,-0.2202,-0.2202,-0.2202,-0.2202,-0.3121,-0.3345,-0.2871,-0.3345,-0.3093,-0.2232,-0.3178,-0.3093,-0.2232,-0.2704,-0.2649,-0.2202,-0.2202,-0.2202,-0.2202,-0.2202,-0.2202,-0.2202,-0.2202,-0.2202,-0.2202,-0.5395,-0.5326,-0.5259,-0.5259,-0.5226,-0.516,-0.516,-0.4417,-0.3882,-0.3882,-0.3111,-0.2577,-0.2577,-0.2511,-0.2444,-0.2444,-0.1675,-0.0839,-0.0067,0.0,0.0,0.0,0.0,-0.037,-0.1173,-0.1173,-0.0806,0.0,0.0,0.0,0.0,0.0,0.0,0.0,0.0,0.0,0.0,0.0,0.0,0.0,0.0,0.0,0.0,0.0,0.0,0.0,0.0,0.0,0.0,0.0,0.0,0.0,0.0,0.0,0.0,0.0,0.0,0.0,0.0,0.0,0.0,0.0,0.0,0.0,0.0,0.0,0.0,0.0,0.0,0.0,0.0,0.0,0.0,0.0,0.0,-0.0224,-0.0895,-0.1006,-0.1257,-0.1925,-0.2009,-0.2009,-0.2009,-0.2009,-0.2009,-0.2009,-0.2009,-0.2009,-0.2009,-0.2009,-0.2009,-0.2009,-0.2009,-0.2009,-0.2009,-0.2009,-0.2035,-0.2093,-0.2174,-0.212,-0.2009,-0.2148,-0.212,-0.2009,-0.2063,-0.2063,-0.2009,-0.2009,-0.2009,-0.2009,-0.2009,-0.2009,-0.2009,-0.2009,-0.2009,-0.2009,-0.5395,-0.4821,-0.4317,-0.4317,-0.3747,-0.328,-0.328,-0.3111,-0.2978,-0.2978,-0.2177,-0.1608,-0.1608,-0.1007,-0.0572,-0.0572,-0.0404,-0.0202,0.0,0.0,0.0,0.0,0.0,-0.0101,-0.0269,-0.0269,-0.0202,0.0,0.0,0.0,0.0,0.0,0.0,0.0,0.0,0.0,0.0,0.0,0.0,0.0,0.0,0.0,0.0,0.0,0.0,0.0,0.0,0.0,0.0,0.0,0.0,0.0,0.0,0.0,0.0,0.0,0.0,0.0,0.0,0.0,0.0,0.0,0.0,0.0,0.0,0.0,0.0,0.0,0.0,0.0,0.0,0.0,0.0,0.0,0.0,-0.0056,-0.0224,-0.0252,-0.0308,-0.0448,-0.0476,-0.0476,-0.0476,-0.0476,-0.0476,-0.0476,-0.0476,-0.0476,-0.0476,-0.0476,-0.0476,-0.0476,-0.0476,-0.0476,-0.0476,-0.0476,-0.0755,-0.1341,-0.1925,-0.1591,-0.0504,-0.1675,-0.1563,-0.0504,-0.109,-0.1006,-0.0476,-0.0476,-0.0476,-0.0476,-0.0476,-0.0476,-0.0476,-0.0476,-0.0476,-0.0476,-0.4118,-0.3713,-0.338,-0.338,-0.3011,-0.2711,-0.2711,-0.231,-0.2043,-0.2043,-0.1241,-0.0672,-0.0672,-0.0269,0.0,0.0,0.0,0.0,0.0,0.0,0.0,0.0,0.0,0.0,0.0,0.0,0.0,0.0,0.0,0.0,0.0,0.0,0.0,0.0,0.0,0.0,0.0,0.0,0.0,0.0,0.0,0.0,0.0,0.0,0.0,0.0,0.0,0.0,0.0,0.0,0.0,0.0,0.0,0.0,0.0,0.0,0.0,0.0,0.0,0.0,0.0,0.0,0.0,0.0,0.0,0.0,0.0,0.0,0.0,0.0,0.0,0.0,0.0,0.0,0.0,0.0,0.0,0.0,0.0,0.0,0.0,0.0,0.0,0.0,0.0,0.0,0.0,0.0,0.0,0.0,0.0,0.0,0.0,0.0,0.0,0.0,-0.0196,-0.0588,-0.0978,-0.0755,-0.0028,-0.0811,-0.0727,-0.0028,-0.042,-0.0364,0.0,0.0,0.0,0.0,0.0,0.0,0.0,0.0,0.0,0.0,-0.2711,-0.2577,-0.2477,-0.2477,-0.2344,-0.2243,-0.2243,-0.1575,-0.1073,-0.1073,-0.0437,0.0,0.0,0.0,0.0,0.0,0.0,0.0,0.0,0.0,0.0,0.0,0.0,0.0,0.0,0.0,0.0,0.0,0.0,0.0,0.0,0.0,0.0,0.0,0.0,0.0,0.0,0.0,0.0,0.0,0.0,0.0,0.0,0.0,0.0,0.0,0.0,0.0,0.0,0.0,0.0,0.0,0.0,0.0,0.0,0.0,0.0,0.0,0.0,0.0,0.0,0.0,0.0,0.0,0.0,0.0,0.0,0.0,0.0,0.0,0.0,0.0,0.0,0.0,0.0,0.0,0.0,0.0,0.0,0.0,0.0,0.0,0.0,0.0,0.0,0.0,0.0,0.0,0.0,0.0,0.0,0.0,0.0,0.0,0.0,0.0,0.0,0.0,0.0,0.0,0.0,0.0,0.0,0.0,0.0,0.0,0.0,0.0,0.0,0.0,0.0,0.0,0.0,0.0,0.0,0.0,-0.2711,-0.2043,-0.1474,-0.1474,-0.0873,-0.037,-0.037,-0.0269,-0.0168,-0.0168,-0.0067,0.0,0.0,0.0,0.0,0.0,0.0,0.0,0.0,0.0,0.0,0.0,0.0,0.0,0.0,0.0,0.0,0.0,0.0,0.0,0.0,0.0,0.0,0.0,0.0,0.0,0.0,0.0,0.0,0.0,0.0,0.0,0.0,0.0,0.0,0.0,0.0,0.0,0.0,0.0,0.0,0.0,0.0,0.0,0.0,0.0,0.0,0.0,0.0,0.0,0.0,0.0,0.0,0.0,0.0,0.0,0.0,0.0,0.0,0.0,0.0,0.0,0.0,0.0,0.0,0.0,0.0,0.0,0.0,0.0,0.0,0.0,0.0,0.0,0.0,0.0,0.0,0.0,0.0,0.0,0.0,0.0,0.0,0.0,0.0,0.0,0.0,0.0,0.0,0.0,0.0,0.0,0.0,0.0,0.0,0.0,0.0,0.0,0.0,0.0,0.0,0.0,0.0,0.0,0.0,0.0,-0.1176,-0.0873,-0.0572,-0.0572,-0.0269,0.0,0.0,0.0,0.0,0.0,0.0,0.0,0.0,0.0,0.0,0.0,0.0,0.0,0.0,0.0,0.0,0.0,0.0,0.0,0.0,0.0,0.0,0.0,0.0,0.0,0.0,0.0,0.0,0.0,0.0,0.0,0.0,0.0,0.0,0.0,0.0,0.0,0.0,0.0,0.0,0.0,0.0,0.0,0.0,0.0,0.0,0.0,0.0,0.0,0.0,0.0,0.0,0.0,0.0,0.0,0.0,0.0,0.0,0.0,0.0,0.0,0.0,0.0,0.0,0.0,0.0,0.0,0.0,0.0,0.0,0.0,0.0,0.0,0.0,0.0,0.0,0.0,0.0,0.0,0.0,0.0,0.0,0.0,0.0,0.0,0.0,0.0,0.0,0.0,0.0,0.0,0.0,0.0,0.0,0.0,0.0,0.0,0.0,0.0,0.0,0.0,0.0,0.0,0.0,0.0,0.0,0.0,0.0,0.0,0.0,0.0]}]]